Time,TemperatureF,DewpointF,PressureIn,WindDirection,WindDirectionDegrees,WindSpeedMPH,WindSpeedGustMPH,Humidity,HourlyPrecipIn,Conditions,Clouds,dailyrainin,SoftwareType,DateUTC
2013-02-09 00:00:00,10.4,0.0,29.62,ENE,68,3.1,3.1,62,0.00,,,0.00,VWS V14.01,2013-02-09 05:00:00,
2013-02-09 00:01:00,10.4,0.0,29.62,ENE,68,2.9,3.1,62,0.00,,,0.00,VWS V14.01,2013-02-09 05:01:00,
2013-02-09 00:02:00,10.2,-0.2,29.62,ENE,68,2.5,3.4,62,0.00,,,0.00,VWS V14.01,2013-02-09 05:02:00,
2013-02-09 00:03:00,10.2,-0.2,29.62,East,90,2.2,2.5,62,0.00,,,0.00,VWS V14.01,2013-02-09 05:03:00,
2013-02-09 00:04:00,10.2,-0.2,29.62,East,90,2.5,2.9,62,0.00,,,0.00,VWS V14.01,2013-02-09 05:04:00,
2013-02-09 00:05:00,10.0,-0.4,29.62,ENE,68,2.2,2.9,62,0.00,,,0.00,VWS V14.01,2013-02-09 05:05:00,
2013-02-09 00:06:00,10.0,-0.4,29.62,ENE,68,2.5,2.5,62,0.00,,,0.00,VWS V14.01,2013-02-09 05:06:00,
2013-02-09 00:07:00,10.0,-0.4,29.62,East,90,2.0,3.1,62,0.00,,,0.00,VWS V14.01,2013-02-09 05:07:00,
2013-02-09 00:08:00,10.0,-0.4,29.62,East,90,2.5,2.9,62,0.00,,,0.00,VWS V14.01,2013-02-09 05:08:00,
2013-02-09 00:09:00,10.0,-0.4,29.62,East,90,3.1,3.4,62,0.00,,,0.00,VWS V14.01,2013-02-09 05:09:00,
2013-02-09 00:10:00,10.0,-0.4,29.62,East,90,3.8,3.8,62,0.00,,,0.00,VWS V14.01,2013-02-09 05:10:00,
2013-02-09 00:11:00,10.0,-0.4,29.62,East,90,3.1,3.1,62,0.00,,,0.00,VWS V14.01,2013-02-09 05:11:00,
2013-02-09 00:12:00,10.0,-0.4,29.62,East,90,4.0,4.0,62,0.00,,,0.00,VWS V14.01,2013-02-09 05:12:00,
2013-02-09 00:13:00,10.0,-0.4,29.62,ENE,68,2.9,4.0,62,0.00,,,0.00,VWS V14.01,2013-02-09 05:13:00,
2013-02-09 00:14:00,10.0,-0.4,29.62,ENE,68,2.9,3.4,62,0.00,,,0.00,VWS V14.01,2013-02-09 05:14:00,
2013-02-09 00:15:00,10.0,-0.4,29.62,East,90,2.9,3.6,62,0.00,,,0.00,VWS V14.01,2013-02-09 05:15:00,
2013-02-09 00:16:00,10.0,-0.4,29.62,East,90,4.0,4.0,62,0.00,,,0.00,VWS V14.01,2013-02-09 05:16:00,
2013-02-09 00:17:00,10.0,-0.4,29.62,East,90,3.1,3.8,62,0.00,,,0.00,VWS V14.01,2013-02-09 05:17:00,
2013-02-09 00:18:00,10.0,-0.4,29.62,East,90,2.7,3.8,62,0.00,,,0.00,VWS V14.01,2013-02-09 05:18:00,
2013-02-09 00:19:00,10.0,-0.4,29.62,East,90,2.9,2.9,62,0.00,,,0.00,VWS V14.01,2013-02-09 05:19:00,
2013-02-09 00:20:00,9.9,-0.5,29.62,ENE,68,2.9,2.9,62,0.00,,,0.00,VWS V14.01,2013-02-09 05:20:00,
2013-02-09 00:21:00,9.9,-0.5,29.62,East,90,2.5,2.9,62,0.00,,,0.00,VWS V14.01,2013-02-09 05:21:00,
2013-02-09 00:22:00,9.9,-0.5,29.62,East,90,2.7,2.7,62,0.00,,,0.00,VWS V14.01,2013-02-09 05:22:00,
2013-02-09 00:23:00,9.7,-0.7,29.65,ENE,68,1.3,2.7,62,0.00,,,0.00,VWS V14.01,2013-02-09 05:23:00,
2013-02-09 00:25:00,9.5,-0.9,29.65,ENE,68,1.6,1.6,62,0.00,,,0.00,VWS V14.01,2013-02-09 05:25:00,
2013-02-09 00:26:00,9.5,-0.9,29.65,East,90,1.6,1.6,62,0.00,,,0.00,VWS V14.01,2013-02-09 05:26:00,
2013-02-09 00:27:00,9.5,-0.9,29.65,East,90,1.3,2.0,62,0.00,,,0.00,VWS V14.01,2013-02-09 05:27:00,
2013-02-09 00:28:00,9.5,-0.9,29.65,ENE,68,1.6,2.0,62,0.00,,,0.00,VWS V14.01,2013-02-09 05:28:00,
2013-02-09 00:29:00,9.3,-1.0,29.65,ENE,68,1.6,1.6,62,0.00,,,0.00,VWS V14.01,2013-02-09 05:29:00,
2013-02-09 00:30:00,9.3,-1.0,29.65,ENE,68,1.3,1.6,62,0.00,,,0.00,VWS V14.01,2013-02-09 05:30:00,
2013-02-09 00:31:00,9.3,-1.0,29.65,ENE,68,1.6,1.6,62,0.00,,,0.00,VWS V14.01,2013-02-09 05:31:00,
2013-02-09 00:32:00,9.3,-1.0,29.65,ENE,68,1.3,1.6,62,0.00,,,0.00,VWS V14.01,2013-02-09 05:32:00,
2013-02-09 00:33:00,9.1,-1.2,29.65,ENE,68,2.0,2.2,62,0.00,,,0.00,VWS V14.01,2013-02-09 05:33:00,
2013-02-09 00:34:00,9.1,-1.2,29.65,East,90,1.6,2.0,62,0.00,,,0.00,VWS V14.01,2013-02-09 05:34:00,
2013-02-09 00:35:00,9.1,-1.2,29.65,East,90,1.6,1.6,62,0.00,,,0.00,VWS V14.01,2013-02-09 05:35:00,
2013-02-09 00:36:00,9.1,-1.2,29.65,ENE,68,1.3,2.2,62,0.00,,,0.00,VWS V14.01,2013-02-09 05:36:00,
2013-02-09 00:37:00,9.1,-1.2,29.62,East,90,1.3,2.0,62,0.00,,,0.00,VWS V14.01,2013-02-09 05:37:00,
2013-02-09 00:39:00,9.1,-1.2,29.62,East,90,2.2,2.2,62,0.00,,,0.00,VWS V14.01,2013-02-09 05:39:00,
2013-02-09 00:40:00,9.1,-1.2,29.62,East,90,2.0,2.2,62,0.00,,,0.00,VWS V14.01,2013-02-09 05:40:00,
2013-02-09 00:41:00,9.1,-1.2,29.62,East,90,2.7,2.7,62,0.00,,,0.00,VWS V14.01,2013-02-09 05:41:00,
2013-02-09 00:42:00,9.1,-1.2,29.62,ESE,112,2.9,2.9,62,0.00,,,0.00,VWS V14.01,2013-02-09 05:42:00,
2013-02-09 00:44:00,9.3,-1.0,29.62,East,90,2.5,3.4,62,0.00,,,0.00,VWS V14.01,2013-02-09 05:44:00,
2013-02-09 00:45:00,9.3,-1.0,29.62,ENE,68,2.5,2.9,62,0.00,,,0.00,VWS V14.01,2013-02-09 05:45:00,
2013-02-09 00:46:00,9.3,-1.0,29.62,East,90,1.3,2.5,62,0.00,,,0.00,VWS V14.01,2013-02-09 05:46:00,
2013-02-09 00:47:00,9.1,-1.2,29.62,ENE,68,1.3,1.3,62,0.00,,,0.00,VWS V14.01,2013-02-09 05:47:00,
2013-02-09 00:48:00,9.1,-1.2,29.62,ENE,68,1.1,1.3,62,0.00,,,0.00,VWS V14.01,2013-02-09 05:48:00,
2013-02-09 00:49:00,9.1,-1.2,29.62,ENE,68,1.6,2.0,62,0.00,,,0.00,VWS V14.01,2013-02-09 05:49:00,
2013-02-09 00:50:00,9.1,-1.2,29.62,East,90,1.1,2.2,62,0.00,,,0.00,VWS V14.01,2013-02-09 05:50:00,
2013-02-09 00:51:00,9.0,-1.4,29.62,East,90,1.6,2.5,62,0.00,,,0.00,VWS V14.01,2013-02-09 05:51:00,
2013-02-09 00:52:00,9.1,-1.2,29.65,SE,135,1.3,2.0,62,0.00,,,0.00,VWS V14.01,2013-02-09 05:52:00,
2013-02-09 00:53:00,9.1,-1.2,29.65,ESE,112,0.9,2.0,62,0.00,,,0.00,VWS V14.01,2013-02-09 05:53:00,
2013-02-09 00:54:00,9.1,-1.2,29.65,SE,135,0.0,0.9,62,0.00,,,0.00,VWS V14.01,2013-02-09 05:54:00,
2013-02-09 00:55:00,9.1,-1.2,29.65,SSE,158,2.0,2.0,62,0.00,,,0.00,VWS V14.01,2013-02-09 05:55:00,
2013-02-09 00:56:00,9.1,-1.2,29.65,SE,135,0.0,2.0,62,0.00,,,0.00,VWS V14.01,2013-02-09 05:56:00,
2013-02-09 00:57:00,9.1,-1.2,29.65,SE,135,0.0,0.0,62,0.00,,,0.00,VWS V14.01,2013-02-09 05:57:00,
2013-02-09 00:58:00,9.1,-1.2,29.65,ESE,112,0.0,0.0,62,0.00,,,0.00,VWS V14.01,2013-02-09 05:58:00,
2013-02-09 00:59:00,9.1,-1.2,29.65,East,90,0.0,0.0,62,0.00,,,0.00,VWS V14.01,2013-02-09 05:59:00,
2013-02-09 01:00:00,9.1,-1.2,29.65,ESE,112,0.0,0.0,62,0.00,,,0.00,VWS V14.01,2013-02-09 06:00:00,
2013-02-09 01:01:00,9.1,-1.2,29.65,ESE,112,0.0,0.0,62,0.00,,,0.00,VWS V14.01,2013-02-09 06:01:00,
2013-02-09 01:02:00,9.1,-1.2,29.65,ESE,112,1.1,1.6,62,0.00,,,0.00,VWS V14.01,2013-02-09 06:02:00,
2013-02-09 01:03:00,9.1,-1.2,29.65,East,90,0.0,1.6,62,0.00,,,0.00,VWS V14.01,2013-02-09 06:03:00,
2013-02-09 01:04:00,9.0,-1.4,29.65,East,90,0.0,0.0,62,0.00,,,0.00,VWS V14.01,2013-02-09 06:04:00,
2013-02-09 01:05:00,9.0,-1.4,29.65,East,90,0.0,0.0,62,0.00,,,0.00,VWS V14.01,2013-02-09 06:05:00,
2013-02-09 01:06:00,8.8,-1.6,29.65,East,90,0.0,0.0,62,0.00,,,0.00,VWS V14.01,2013-02-09 06:06:00,
2013-02-09 01:07:00,8.8,-1.6,29.65,East,90,0.0,0.0,62,0.00,,,0.00,VWS V14.01,2013-02-09 06:07:00,
2013-02-09 01:08:00,8.8,-1.6,29.65,East,90,0.0,0.0,62,0.00,,,0.00,VWS V14.01,2013-02-09 06:08:00,
2013-02-09 01:09:00,8.8,-1.6,29.65,East,90,0.0,0.0,62,0.00,,,0.00,VWS V14.01,2013-02-09 06:09:00,
2013-02-09 01:10:00,8.8,-1.6,29.65,East,90,0.0,0.0,62,0.00,,,0.00,VWS V14.01,2013-02-09 06:10:00,
2013-02-09 01:11:00,8.8,-1.6,29.65,East,90,0.0,0.0,62,0.00,,,0.00,VWS V14.01,2013-02-09 06:11:00,
2013-02-09 01:12:00,8.6,-1.7,29.65,East,90,0.0,0.0,62,0.00,,,0.00,VWS V14.01,2013-02-09 06:12:00,
2013-02-09 01:13:00,8.6,-1.7,29.65,East,90,0.0,0.0,62,0.00,,,0.00,VWS V14.01,2013-02-09 06:13:00,
2013-02-09 01:14:00,8.6,-1.7,29.65,East,90,0.0,0.0,62,0.00,,,0.00,VWS V14.01,2013-02-09 06:14:00,
2013-02-09 01:15:00,8.4,-1.9,29.65,East,90,0.0,0.0,62,0.00,,,0.00,VWS V14.01,2013-02-09 06:15:00,
2013-02-09 01:16:00,8.1,-2.2,29.65,East,90,0.0,0.0,62,0.00,,,0.00,VWS V14.01,2013-02-09 06:16:00,
2013-02-09 01:17:00,8.1,-2.2,29.65,East,90,0.0,0.0,62,0.00,,,0.00,VWS V14.01,2013-02-09 06:17:00,
2013-02-09 01:18:00,8.1,-2.2,29.65,East,90,0.0,0.0,62,0.00,,,0.00,VWS V14.01,2013-02-09 06:18:00,
2013-02-09 01:20:00,8.1,-2.2,29.65,SE,135,0.0,0.0,62,0.00,,,0.00,VWS V14.01,2013-02-09 06:20:00,
2013-02-09 01:21:00,7.9,-2.4,29.65,SSE,158,0.0,0.0,62,0.00,,,0.00,VWS V14.01,2013-02-09 06:21:00,
2013-02-09 01:22:00,7.9,-2.4,29.65,SE,135,0.0,1.1,62,0.00,,,0.00,VWS V14.01,2013-02-09 06:22:00,
2013-02-09 01:23:00,7.9,-2.4,29.65,SE,135,0.0,1.1,62,0.00,,,0.00,VWS V14.01,2013-02-09 06:23:00,
2013-02-09 01:24:00,8.2,-2.1,29.65,SE,135,0.0,0.0,62,0.00,,,0.00,VWS V14.01,2013-02-09 06:24:00,
2013-02-09 01:25:00,8.2,-2.1,29.65,SE,135,0.0,0.0,62,0.00,,,0.00,VWS V14.01,2013-02-09 06:25:00,
2013-02-09 01:27:00,8.4,-1.9,29.65,SE,135,0.0,0.0,62,0.00,,,0.00,VWS V14.01,2013-02-09 06:27:00,
2013-02-09 01:28:00,8.4,-1.9,29.65,SE,135,0.0,0.0,62,0.00,,,0.00,VWS V14.01,2013-02-09 06:28:00,
2013-02-09 01:29:00,8.4,-1.9,29.65,SE,135,0.0,0.0,62,0.00,,,0.00,VWS V14.01,2013-02-09 06:29:00,
2013-02-09 01:30:00,8.4,-1.9,29.65,SSE,158,0.0,0.0,62,0.00,,,0.00,VWS V14.01,2013-02-09 06:30:00,
2013-02-09 01:31:00,8.6,-1.7,29.65,SSE,158,0.0,0.0,62,0.00,,,0.00,VWS V14.01,2013-02-09 06:31:00,
2013-02-09 01:32:00,8.8,-1.6,29.65,South,180,1.1,2.5,62,0.00,,,0.00,VWS V14.01,2013-02-09 06:32:00,
2013-02-09 01:33:00,8.8,-1.6,29.65,South,180,0.0,2.5,62,0.00,,,0.00,VWS V14.01,2013-02-09 06:33:00,
2013-02-09 01:34:00,8.8,-1.6,29.65,South,180,0.0,0.0,62,0.00,,,0.00,VWS V14.01,2013-02-09 06:34:00,
2013-02-09 01:35:00,8.8,-1.6,29.65,South,180,0.0,0.0,62,0.00,,,0.00,VWS V14.01,2013-02-09 06:35:00,
2013-02-09 01:36:00,8.8,-1.6,29.65,South,180,0.0,0.0,62,0.00,,,0.00,VWS V14.01,2013-02-09 06:36:00,
2013-02-09 01:37:00,9.1,-1.2,29.65,South,180,2.0,2.0,62,0.00,,,0.00,VWS V14.01,2013-02-09 06:37:00,
2013-02-09 01:38:00,9.1,-1.2,29.65,SSE,158,2.7,2.7,62,0.00,,,0.00,VWS V14.01,2013-02-09 06:38:00,
2013-02-09 01:39:00,9.3,-1.0,29.65,SSE,158,2.5,2.9,62,0.00,,,0.00,VWS V14.01,2013-02-09 06:39:00,
2013-02-09 01:40:00,9.3,-1.0,29.65,SSE,158,2.5,2.5,62,0.00,,,0.00,VWS V14.01,2013-02-09 06:40:00,
2013-02-09 01:42:00,9.3,-1.0,29.65,South,180,1.1,1.1,62,0.00,,,0.00,VWS V14.01,2013-02-09 06:42:00,
2013-02-09 01:43:00,9.3,-1.0,29.65,South,180,1.1,1.3,62,0.00,,,0.00,VWS V14.01,2013-02-09 06:43:00,
2013-02-09 01:44:00,9.3,-1.0,29.65,South,180,1.1,1.6,62,0.00,,,0.00,VWS V14.01,2013-02-09 06:44:00,
2013-02-09 01:45:00,9.3,-1.0,29.65,SSE,158,0.0,1.1,62,0.00,,,0.00,VWS V14.01,2013-02-09 06:45:00,
2013-02-09 01:46:00,9.3,-1.0,29.65,SSE,158,0.0,0.0,62,0.00,,,0.00,VWS V14.01,2013-02-09 06:46:00,
2013-02-09 01:47:00,9.3,-1.0,29.65,SSE,158,1.1,1.1,62,0.00,,,0.00,VWS V14.01,2013-02-09 06:47:00,
2013-02-09 01:48:00,9.3,-1.0,29.65,SSE,158,1.1,1.1,62,0.00,,,0.00,VWS V14.01,2013-02-09 06:48:00,
2013-02-09 01:49:00,9.3,-1.0,29.65,SSE,158,0.0,1.1,62,0.00,,,0.00,VWS V14.01,2013-02-09 06:49:00,
2013-02-09 01:50:00,9.3,-1.0,29.65,SSE,158,1.3,1.3,62,0.00,,,0.00,VWS V14.01,2013-02-09 06:50:00,
2013-02-09 01:51:00,9.3,-1.0,29.65,SE,135,0.0,1.3,62,0.00,,,0.00,VWS V14.01,2013-02-09 06:51:00,
2013-02-09 01:52:00,9.3,-1.0,29.68,East,90,0.0,0.0,62,0.00,,,0.00,VWS V14.01,2013-02-09 06:52:00,
2013-02-09 01:53:00,9.1,-1.2,29.68,East,90,2.0,2.0,62,0.00,,,0.00,VWS V14.01,2013-02-09 06:53:00,
2013-02-09 01:54:00,9.1,-1.2,29.68,ESE,112,1.1,2.0,62,0.00,,,0.00,VWS V14.01,2013-02-09 06:54:00,
2013-02-09 01:55:00,9.0,-1.4,29.68,ESE,112,1.3,1.3,62,0.00,,,0.00,VWS V14.01,2013-02-09 06:55:00,
2013-02-09 01:56:00,9.0,-1.4,29.68,ESE,112,1.6,1.6,62,0.00,,,0.00,VWS V14.01,2013-02-09 06:56:00,
2013-02-09 01:57:00,9.1,-1.2,29.68,ESE,112,0.0,0.0,62,0.00,,,0.00,VWS V14.01,2013-02-09 06:57:00,
2013-02-09 01:58:00,9.1,-1.2,29.68,ESE,112,0.0,0.0,62,0.00,,,0.00,VWS V14.01,2013-02-09 06:58:00,
2013-02-09 01:59:00,9.0,-1.4,29.68,ESE,112,0.0,0.0,62,0.00,,,0.00,VWS V14.01,2013-02-09 06:59:00,
2013-02-09 02:00:00,8.8,-1.6,29.68,ESE,112,0.9,2.5,62,0.00,,,0.00,VWS V14.01,2013-02-09 07:00:00,
2013-02-09 02:01:00,8.6,-1.7,29.68,ESE,112,0.0,0.9,62,0.00,,,0.00,VWS V14.01,2013-02-09 07:01:00,
2013-02-09 02:02:00,8.6,-1.7,29.68,SE,135,0.0,2.0,62,0.00,,,0.00,VWS V14.01,2013-02-09 07:02:00,
2013-02-09 02:03:00,8.6,-1.7,29.68,SE,135,0.0,2.0,62,0.00,,,0.00,VWS V14.01,2013-02-09 07:03:00,
2013-02-09 02:04:00,8.8,-1.6,29.68,SE,135,2.5,2.5,62,0.00,,,0.00,VWS V14.01,2013-02-09 07:04:00,
2013-02-09 02:05:00,8.8,-1.6,29.68,SE,135,1.6,2.5,62,0.00,,,0.00,VWS V14.01,2013-02-09 07:05:00,
2013-02-09 02:06:00,9.0,-1.4,29.68,ESE,112,2.2,2.2,62,0.00,,,0.00,VWS V14.01,2013-02-09 07:06:00,
2013-02-09 02:07:00,9.1,-1.2,29.68,SE,135,2.2,2.2,62,0.00,,,0.00,VWS V14.01,2013-02-09 07:07:00,
2013-02-09 02:08:00,9.1,-1.2,29.68,South,180,3.4,3.4,62,0.00,,,0.00,VWS V14.01,2013-02-09 07:08:00,
2013-02-09 02:09:00,9.1,-1.2,29.68,SSE,158,0.0,3.4,62,0.00,,,0.00,VWS V14.01,2013-02-09 07:09:00,
2013-02-09 02:10:00,9.1,-1.2,29.68,SSE,158,0.0,0.0,62,0.00,,,0.00,VWS V14.01,2013-02-09 07:10:00,
2013-02-09 02:11:00,9.1,-1.2,29.68,SSE,158,1.3,1.3,62,0.00,,,0.00,VWS V14.01,2013-02-09 07:11:00,
2013-02-09 02:12:00,9.1,-1.2,29.68,SSE,158,0.0,0.0,62,0.00,,,0.00,VWS V14.01,2013-02-09 07:12:00,
2013-02-09 02:13:00,9.1,-1.2,29.68,SE,135,0.0,0.0,62,0.00,,,0.00,VWS V14.01,2013-02-09 07:13:00,
2013-02-09 02:14:00,9.1,-1.2,29.68,SSE,158,0.0,0.9,62,0.00,,,0.00,VWS V14.01,2013-02-09 07:14:00,
2013-02-09 02:15:00,9.1,-1.2,29.68,SSE,158,0.9,0.9,62,0.00,,,0.00,VWS V14.01,2013-02-09 07:15:00,
2013-02-09 02:16:00,9.0,-1.4,29.68,SSE,158,0.0,1.6,62,0.00,,,0.00,VWS V14.01,2013-02-09 07:16:00,
2013-02-09 02:17:00,9.0,-1.4,29.68,SSW,202,0.9,1.1,62,0.00,,,0.00,VWS V14.01,2013-02-09 07:17:00,
2013-02-09 02:18:00,9.0,-1.4,29.68,SSW,202,0.9,1.1,62,0.00,,,0.00,VWS V14.01,2013-02-09 07:18:00,
2013-02-09 02:19:00,9.1,-1.2,29.68,SE,135,0.0,0.9,62,0.00,,,0.00,VWS V14.01,2013-02-09 07:19:00,
2013-02-09 02:20:00,9.1,-1.2,29.68,South,180,0.0,0.0,62,0.00,,,0.00,VWS V14.01,2013-02-09 07:20:00,
2013-02-09 02:21:00,9.1,-1.2,29.68,South,180,0.0,0.0,62,0.00,,,0.00,VWS V14.01,2013-02-09 07:21:00,
2013-02-09 02:22:00,9.1,-1.2,29.68,SSE,158,0.0,0.0,62,0.00,,,0.00,VWS V14.01,2013-02-09 07:22:00,
2013-02-09 02:23:00,9.1,-1.2,29.68,SSE,158,0.0,0.0,62,0.00,,,0.00,VWS V14.01,2013-02-09 07:23:00,
2013-02-09 02:25:00,9.3,-1.0,29.68,South,180,2.5,2.5,62,0.00,,,0.00,VWS V14.01,2013-02-09 07:25:00,
2013-02-09 02:26:00,9.3,-1.0,29.68,SSE,158,1.6,2.9,62,0.00,,,0.00,VWS V14.01,2013-02-09 07:26:00,
2013-02-09 02:27:00,9.3,-1.0,29.68,South,180,1.3,2.2,62,0.00,,,0.00,VWS V14.01,2013-02-09 07:27:00,
2013-02-09 02:28:00,9.3,-1.0,29.68,SSE,158,1.6,1.6,62,0.00,,,0.00,VWS V14.01,2013-02-09 07:28:00,
2013-02-09 02:29:00,9.3,-1.0,29.68,SSE,158,2.7,2.7,62,0.00,,,0.00,VWS V14.01,2013-02-09 07:29:00,
2013-02-09 02:30:00,9.3,-1.0,29.68,South,180,2.2,2.7,62,0.00,,,0.00,VWS V14.01,2013-02-09 07:30:00,
2013-02-09 02:32:00,9.3,-1.0,29.68,SSW,202,2.5,2.7,62,0.00,,,0.00,VWS V14.01,2013-02-09 07:32:00,
2013-02-09 02:33:00,9.3,-1.0,29.68,South,180,2.0,2.5,62,0.00,,,0.00,VWS V14.01,2013-02-09 07:33:00,
2013-02-09 02:35:00,9.5,-0.9,29.68,South,180,2.5,2.5,62,0.00,,,0.00,VWS V14.01,2013-02-09 07:35:00,
2013-02-09 02:36:00,9.3,-1.0,29.68,South,180,1.1,2.5,62,0.00,,,0.00,VWS V14.01,2013-02-09 07:36:00,
2013-02-09 02:37:00,9.3,-1.0,29.68,South,180,0.0,1.1,62,0.00,,,0.00,VWS V14.01,2013-02-09 07:37:00,
2013-02-09 02:38:00,9.1,-1.2,29.68,South,180,2.0,2.5,62,0.00,,,0.00,VWS V14.01,2013-02-09 07:38:00,
2013-02-09 02:39:00,9.1,-1.2,29.68,South,180,0.0,2.0,62,0.00,,,0.00,VWS V14.01,2013-02-09 07:39:00,
2013-02-09 02:40:00,9.0,-1.4,29.68,SSE,158,1.1,1.1,62,0.00,,,0.00,VWS V14.01,2013-02-09 07:40:00,
2013-02-09 02:41:00,9.0,-1.4,29.68,SE,135,0.0,2.2,62,0.00,,,0.00,VWS V14.01,2013-02-09 07:41:00,
2013-02-09 02:42:00,8.8,-1.6,29.68,SSE,158,2.7,3.1,62,0.00,,,0.00,VWS V14.01,2013-02-09 07:42:00,
2013-02-09 02:43:00,9.0,-1.4,29.68,SSE,158,2.7,2.7,62,0.00,,,0.00,VWS V14.01,2013-02-09 07:43:00,
2013-02-09 02:44:00,9.0,-1.4,29.68,SSE,158,2.7,2.7,62,0.00,,,0.00,VWS V14.01,2013-02-09 07:44:00,
2013-02-09 02:45:00,9.1,-1.2,29.68,South,180,2.7,3.8,62,0.00,,,0.00,VWS V14.01,2013-02-09 07:45:00,
2013-02-09 02:46:00,9.1,-1.2,29.68,SSE,158,1.6,2.7,62,0.00,,,0.00,VWS V14.01,2013-02-09 07:46:00,
2013-02-09 02:47:00,9.3,-1.0,29.68,SSE,158,2.7,3.1,62,0.00,,,0.00,VWS V14.01,2013-02-09 07:47:00,
2013-02-09 02:48:00,9.3,-1.0,29.68,SSE,158,3.8,3.8,62,0.00,,,0.00,VWS V14.01,2013-02-09 07:48:00,
2013-02-09 02:49:00,9.3,-1.0,29.68,SSE,158,3.8,3.8,62,0.00,,,0.00,VWS V14.01,2013-02-09 07:49:00,
2013-02-09 02:50:00,9.3,-1.0,29.68,SSE,158,2.5,3.8,62,0.00,,,0.00,VWS V14.01,2013-02-09 07:50:00,
2013-02-09 02:51:00,9.5,-0.9,29.68,SE,135,2.2,2.9,62,0.00,,,0.00,VWS V14.01,2013-02-09 07:51:00,
2013-02-09 02:53:00,9.5,-0.9,29.68,SSE,158,1.6,1.6,62,0.00,,,0.00,VWS V14.01,2013-02-09 07:53:00,
2013-02-09 02:54:00,9.5,-0.9,29.68,SSE,158,2.2,2.2,62,0.00,,,0.00,VWS V14.01,2013-02-09 07:54:00,
2013-02-09 02:55:00,9.5,-0.9,29.68,SSE,158,1.6,2.2,62,0.00,,,0.00,VWS V14.01,2013-02-09 07:55:00,
2013-02-09 02:56:00,9.5,-0.9,29.68,ESE,112,0.0,1.6,62,0.00,,,0.00,VWS V14.01,2013-02-09 07:56:00,
2013-02-09 02:58:00,9.3,-1.0,29.68,ESE,112,0.0,0.0,62,0.00,,,0.00,VWS V14.01,2013-02-09 07:58:00,
2013-02-09 02:59:00,9.1,-1.2,29.68,East,90,1.6,1.6,62,0.00,,,0.00,VWS V14.01,2013-02-09 07:59:00,
2013-02-09 03:00:00,9.1,-1.2,29.68,ESE,112,1.1,1.6,62,0.00,,,0.00,VWS V14.01,2013-02-09 08:00:00,
2013-02-09 03:02:00,9.0,-1.4,29.68,East,90,2.0,2.0,62,0.00,,,0.00,VWS V14.01,2013-02-09 08:02:00,
2013-02-09 03:03:00,8.8,-1.6,29.68,ESE,112,2.5,3.1,62,0.00,,,0.00,VWS V14.01,2013-02-09 08:03:00,
2013-02-09 03:04:00,8.8,-1.6,29.68,ESE,112,2.5,2.5,62,0.00,,,0.00,VWS V14.01,2013-02-09 08:04:00,
2013-02-09 03:05:00,8.6,-1.7,29.68,ESE,112,2.5,2.5,62,0.00,,,0.00,VWS V14.01,2013-02-09 08:05:00,
2013-02-09 03:06:00,8.4,-1.9,29.68,ESE,112,0.9,2.5,62,0.00,,,0.00,VWS V14.01,2013-02-09 08:06:00,
2013-02-09 03:07:00,8.4,-1.9,29.68,East,90,3.4,3.4,62,0.00,,,0.00,VWS V14.01,2013-02-09 08:07:00,
2013-02-09 03:08:00,8.4,-1.9,29.68,East,90,2.5,3.4,62,0.00,,,0.00,VWS V14.01,2013-02-09 08:08:00,
2013-02-09 03:09:00,8.4,-1.9,29.68,East,90,3.1,3.1,62,0.00,,,0.00,VWS V14.01,2013-02-09 08:09:00,
2013-02-09 03:10:00,8.2,-2.1,29.65,East,90,2.0,3.4,62,0.00,,,0.00,VWS V14.01,2013-02-09 08:10:00,
2013-02-09 03:11:00,8.2,-2.1,29.65,ENE,68,1.6,2.9,62,0.00,,,0.00,VWS V14.01,2013-02-09 08:11:00,
2013-02-09 03:12:00,8.2,-2.1,29.65,East,90,1.3,1.6,62,0.00,,,0.00,VWS V14.01,2013-02-09 08:12:00,
2013-02-09 03:13:00,8.2,-2.1,29.65,East,90,2.0,2.2,62,0.00,,,0.00,VWS V14.01,2013-02-09 08:13:00,
2013-02-09 03:14:00,7.9,-2.4,29.65,ESE,112,2.5,2.9,62,0.00,,,0.00,VWS V14.01,2013-02-09 08:14:00,
2013-02-09 03:15:00,7.7,-2.6,29.65,East,90,3.1,3.1,62,0.00,,,0.00,VWS V14.01,2013-02-09 08:15:00,
2013-02-09 03:16:00,7.7,-2.6,29.65,ESE,112,3.1,3.4,62,0.00,,,0.00,VWS V14.01,2013-02-09 08:16:00,
2013-02-09 03:17:00,7.5,-2.8,29.65,ESE,112,2.7,3.1,62,0.00,,,0.00,VWS V14.01,2013-02-09 08:17:00,
2013-02-09 03:18:00,7.5,-2.8,29.65,East,90,2.9,4.0,62,0.00,,,0.00,VWS V14.01,2013-02-09 08:18:00,
2013-02-09 03:19:00,7.5,-2.8,29.65,East,90,3.4,3.4,62,0.00,,,0.00,VWS V14.01,2013-02-09 08:19:00,
2013-02-09 03:20:00,7.3,-2.9,29.65,ESE,112,3.6,3.6,62,0.00,,,0.00,VWS V14.01,2013-02-09 08:20:00,
2013-02-09 03:21:00,7.5,-2.8,29.65,ESE,112,3.8,3.8,62,0.00,,,0.00,VWS V14.01,2013-02-09 08:21:00,
2013-02-09 03:22:00,7.5,-2.8,29.65,East,90,3.4,4.9,62,0.00,,,0.00,VWS V14.01,2013-02-09 08:22:00,
2013-02-09 03:23:00,7.7,-2.6,29.65,East,90,3.6,3.6,62,0.00,,,0.00,VWS V14.01,2013-02-09 08:23:00,
2013-02-09 03:24:00,7.7,-2.6,29.65,East,90,3.6,4.5,62,0.00,,,0.00,VWS V14.01,2013-02-09 08:24:00,
2013-02-09 03:25:00,7.7,-2.6,29.65,ESE,112,3.4,4.7,62,0.00,,,0.00,VWS V14.01,2013-02-09 08:25:00,
2013-02-09 03:26:00,7.7,-2.6,29.65,ESE,112,2.7,3.8,62,0.00,,,0.00,VWS V14.01,2013-02-09 08:26:00,
2013-02-09 03:27:00,7.9,-2.4,29.65,SSE,158,5.6,5.6,62,0.00,,,0.00,VWS V14.01,2013-02-09 08:27:00,
2013-02-09 03:28:00,8.1,-2.2,29.65,ESE,112,3.8,3.8,62,0.00,,,0.00,VWS V14.01,2013-02-09 08:28:00,
2013-02-09 03:29:00,8.1,-2.2,29.65,SE,135,2.0,3.8,62,0.00,,,0.00,VWS V14.01,2013-02-09 08:29:00,
2013-02-09 03:30:00,8.1,-2.2,29.65,SE,135,2.0,2.0,62,0.00,,,0.00,VWS V14.01,2013-02-09 08:30:00,
2013-02-09 03:33:00,8.6,-1.7,29.65,ESE,112,3.1,4.0,62,0.00,,,0.00,VWS V14.01,2013-02-09 08:33:00,
2013-02-09 03:34:00,8.8,-1.6,29.65,East,90,4.9,4.9,62,0.00,,,0.00,VWS V14.01,2013-02-09 08:34:00,
2013-02-09 03:35:00,8.8,-1.6,29.65,SE,135,2.5,4.9,62,0.00,,,0.00,VWS V14.01,2013-02-09 08:35:00,
2013-02-09 03:36:00,8.8,-1.6,29.65,ESE,112,2.7,3.1,62,0.00,,,0.00,VWS V14.01,2013-02-09 08:36:00,
2013-02-09 03:37:00,8.8,-1.6,29.65,East,90,2.7,4.9,62,0.00,,,0.00,VWS V14.01,2013-02-09 08:37:00,
2013-02-09 03:38:00,9.0,-1.4,29.65,South,180,1.3,3.6,62,0.00,,,0.00,VWS V14.01,2013-02-09 08:38:00,
2013-02-09 03:39:00,9.0,-1.4,29.65,ESE,112,2.0,3.6,62,0.00,,,0.00,VWS V14.01,2013-02-09 08:39:00,
2013-02-09 03:40:00,9.1,-1.2,29.65,SE,135,2.2,2.9,62,0.00,,,0.00,VWS V14.01,2013-02-09 08:40:00,
2013-02-09 03:41:00,9.1,-1.2,29.65,East,90,2.0,2.2,62,0.00,,,0.00,VWS V14.01,2013-02-09 08:41:00,
2013-02-09 03:42:00,9.1,-1.2,29.65,ESE,112,2.5,4.0,62,0.00,,,0.00,VWS V14.01,2013-02-09 08:42:00,
2013-02-09 03:43:00,9.1,-1.2,29.65,ESE,112,2.7,2.7,62,0.00,,,0.00,VWS V14.01,2013-02-09 08:43:00,
2013-02-09 03:44:00,9.1,-1.2,29.65,East,90,2.9,2.9,62,0.00,,,0.00,VWS V14.01,2013-02-09 08:44:00,
2013-02-09 03:45:00,9.1,-1.2,29.65,East,90,3.1,4.3,62,0.00,,,0.00,VWS V14.01,2013-02-09 08:45:00,
2013-02-09 03:46:00,9.1,-1.2,29.65,East,90,3.6,3.8,62,0.00,,,0.00,VWS V14.01,2013-02-09 08:46:00,
2013-02-09 03:48:00,9.1,-1.2,29.65,East,90,2.7,3.1,62,0.00,,,0.00,VWS V14.01,2013-02-09 08:48:00,
2013-02-09 03:49:00,9.1,-1.2,29.65,East,90,2.7,3.1,62,0.00,,,0.00,VWS V14.01,2013-02-09 08:49:00,
2013-02-09 03:50:00,9.1,-1.2,29.65,East,90,4.0,4.0,62,0.00,,,0.00,VWS V14.01,2013-02-09 08:50:00,
2013-02-09 03:51:00,8.8,-1.6,29.65,East,90,3.4,4.0,62,0.00,,,0.00,VWS V14.01,2013-02-09 08:51:00,
2013-02-09 03:52:00,8.8,-1.6,29.65,East,90,3.1,3.6,62,0.00,,,0.00,VWS V14.01,2013-02-09 08:52:00,
2013-02-09 03:53:00,8.8,-1.6,29.65,ESE,112,2.5,2.5,62,0.00,,,0.00,VWS V14.01,2013-02-09 08:53:00,
2013-02-09 03:54:00,8.8,-1.6,29.65,ESE,112,3.1,3.4,62,0.00,,,0.00,VWS V14.01,2013-02-09 08:54:00,
2013-02-09 03:55:00,8.8,-1.6,29.65,ESE,112,2.5,3.1,62,0.00,,,0.00,VWS V14.01,2013-02-09 08:55:00,
2013-02-09 03:56:00,8.8,-1.6,29.65,ESE,112,2.7,2.7,62,0.00,,,0.00,VWS V14.01,2013-02-09 08:56:00,
2013-02-09 03:57:00,8.8,-1.6,29.65,East,90,2.9,3.4,62,0.00,,,0.00,VWS V14.01,2013-02-09 08:57:00,
2013-02-09 03:58:00,8.8,-1.6,29.65,East,90,3.8,3.8,62,0.00,,,0.00,VWS V14.01,2013-02-09 08:58:00,
2013-02-09 03:59:00,8.8,-1.6,29.65,ESE,112,2.7,3.8,62,0.00,,,0.00,VWS V14.01,2013-02-09 08:59:00,
2013-02-09 04:00:00,8.6,-1.7,29.65,ESE,112,3.1,4.0,62,0.00,,,0.00,VWS V14.01,2013-02-09 09:00:00,
2013-02-09 04:01:00,8.6,-1.7,29.65,ESE,112,4.0,4.0,62,0.00,,,0.00,VWS V14.01,2013-02-09 09:01:00,
2013-02-09 04:02:00,8.8,-1.6,29.65,SSW,202,0.9,4.0,62,0.00,,,0.00,VWS V14.01,2013-02-09 09:02:00,
2013-02-09 04:03:00,8.8,-1.6,29.65,SE,135,1.3,1.3,62,0.00,,,0.00,VWS V14.01,2013-02-09 09:03:00,
2013-02-09 04:04:00,9.0,-1.4,29.65,East,90,2.5,3.8,62,0.00,,,0.00,VWS V14.01,2013-02-09 09:04:00,
2013-02-09 04:05:00,9.1,-1.2,29.65,ESE,112,2.2,6.3,62,0.00,,,0.00,VWS V14.01,2013-02-09 09:05:00,
2013-02-09 04:06:00,9.3,-1.0,29.65,East,90,1.3,4.3,62,0.00,,,0.00,VWS V14.01,2013-02-09 09:06:00,
2013-02-09 04:07:00,9.3,-1.0,29.65,ESE,112,3.8,4.3,62,0.00,,,0.00,VWS V14.01,2013-02-09 09:07:00,
2013-02-09 04:08:00,9.5,-0.9,29.65,East,90,2.0,2.9,62,0.00,,,0.00,VWS V14.01,2013-02-09 09:08:00,
2013-02-09 04:09:00,9.5,-0.9,29.65,SSE,158,2.9,2.9,62,0.00,,,0.00,VWS V14.01,2013-02-09 09:09:00,
2013-02-09 04:10:00,9.7,-0.7,29.65,East,90,2.0,2.9,62,0.00,,,0.00,VWS V14.01,2013-02-09 09:10:00,
2013-02-09 04:11:00,9.7,-0.7,29.65,ESE,112,2.5,2.5,62,0.00,,,0.00,VWS V14.01,2013-02-09 09:11:00,
2013-02-09 04:12:00,9.7,-0.7,29.65,SSE,158,0.0,2.5,62,0.00,,,0.00,VWS V14.01,2013-02-09 09:12:00,
2013-02-09 04:13:00,9.7,-0.7,29.65,East,90,0.0,1.1,62,0.00,,,0.00,VWS V14.01,2013-02-09 09:13:00,
2013-02-09 04:14:00,9.7,-0.7,29.65,East,90,0.0,1.1,62,0.00,,,0.00,VWS V14.01,2013-02-09 09:14:00,
2013-02-09 04:15:00,9.7,-0.7,29.65,ESE,112,0.0,1.6,62,0.00,,,0.00,VWS V14.01,2013-02-09 09:15:00,
2013-02-09 04:16:00,9.7,-0.7,29.65,ESE,112,0.0,0.0,62,0.00,,,0.00,VWS V14.01,2013-02-09 09:16:00,
2013-02-09 04:17:00,9.5,-0.9,29.65,SE,135,0.0,1.6,62,0.00,,,0.00,VWS V14.01,2013-02-09 09:17:00,
2013-02-09 04:18:00,9.5,-0.9,29.65,SE,135,0.0,0.0,62,0.00,,,0.00,VWS V14.01,2013-02-09 09:18:00,
2013-02-09 04:19:00,9.3,-1.0,29.65,SE,135,0.0,0.0,62,0.00,,,0.00,VWS V14.01,2013-02-09 09:19:00,
2013-02-09 04:20:00,9.3,-1.0,29.65,SSE,158,2.0,2.0,62,0.00,,,0.00,VWS V14.01,2013-02-09 09:20:00,
2013-02-09 04:21:00,9.1,-1.2,29.65,SE,135,0.9,2.2,62,0.00,,,0.00,VWS V14.01,2013-02-09 09:21:00,
2013-02-09 04:22:00,9.1,-1.2,29.68,SE,135,0.0,0.9,62,0.00,,,0.00,VWS V14.01,2013-02-09 09:22:00,
2013-02-09 04:23:00,9.0,-1.4,29.68,SE,135,0.0,1.1,62,0.00,,,0.00,VWS V14.01,2013-02-09 09:23:00,
2013-02-09 04:24:00,9.0,-1.4,29.68,SE,135,1.6,1.6,62,0.00,,,0.00,VWS V14.01,2013-02-09 09:24:00,
2013-02-09 04:25:00,9.1,-1.2,29.68,SSE,158,0.9,1.6,62,0.00,,,0.00,VWS V14.01,2013-02-09 09:25:00,
2013-02-09 04:26:00,9.1,-1.2,29.68,SE,135,0.9,0.9,62,0.00,,,0.00,VWS V14.01,2013-02-09 09:26:00,
2013-02-09 04:27:00,9.1,-1.2,29.68,SE,135,1.1,2.7,62,0.00,,,0.00,VWS V14.01,2013-02-09 09:27:00,
2013-02-09 04:28:00,9.1,-1.2,29.68,SE,135,2.0,2.5,62,0.00,,,0.00,VWS V14.01,2013-02-09 09:28:00,
2013-02-09 04:29:00,9.1,-1.2,29.68,SSE,158,0.9,2.5,62,0.00,,,0.00,VWS V14.01,2013-02-09 09:29:00,
2013-02-09 04:30:00,9.1,-1.2,29.68,SSE,158,2.2,2.2,62,0.00,,,0.00,VWS V14.01,2013-02-09 09:30:00,
2013-02-09 04:31:00,9.1,-1.2,29.68,South,180,2.5,2.5,62,0.00,,,0.00,VWS V14.01,2013-02-09 09:31:00,
2013-02-09 04:32:00,9.1,-1.2,29.68,SSE,158,1.3,3.1,62,0.00,,,0.00,VWS V14.01,2013-02-09 09:32:00,
2013-02-09 04:33:00,9.1,-1.2,29.68,SSE,158,0.9,1.3,62,0.00,,,0.00,VWS V14.01,2013-02-09 09:33:00,
2013-02-09 04:34:00,9.1,-1.2,29.68,SE,135,0.0,1.3,62,0.00,,,0.00,VWS V14.01,2013-02-09 09:34:00,
2013-02-09 04:35:00,9.1,-1.2,29.68,SE,135,0.0,0.0,62,0.00,,,0.00,VWS V14.01,2013-02-09 09:35:00,
2013-02-09 04:36:00,9.1,-1.2,29.68,South,180,0.0,0.0,62,0.00,,,0.00,VWS V14.01,2013-02-09 09:36:00,
2013-02-09 04:37:00,9.1,-1.2,29.68,South,180,0.0,0.0,62,0.00,,,0.00,VWS V14.01,2013-02-09 09:37:00,
2013-02-09 04:38:00,8.8,-1.6,29.68,South,180,0.0,0.0,62,0.00,,,0.00,VWS V14.01,2013-02-09 09:38:00,
2013-02-09 04:39:00,8.8,-1.6,29.68,South,180,0.0,0.0,62,0.00,,,0.00,VWS V14.01,2013-02-09 09:39:00,
2013-02-09 04:40:00,8.6,-1.7,29.68,South,180,0.0,0.0,62,0.00,,,0.00,VWS V14.01,2013-02-09 09:40:00,
2013-02-09 04:41:00,8.6,-1.7,29.68,South,180,0.0,0.0,62,0.00,,,0.00,VWS V14.01,2013-02-09 09:41:00,
2013-02-09 04:42:00,8.6,-1.7,29.68,SSE,158,0.0,0.0,62,0.00,,,0.00,VWS V14.01,2013-02-09 09:42:00,
2013-02-09 04:43:00,8.6,-1.7,29.68,SSE,158,0.0,0.0,62,0.00,,,0.00,VWS V14.01,2013-02-09 09:43:00,
2013-02-09 04:44:00,8.6,-1.7,29.68,SSE,158,0.0,0.0,62,0.00,,,0.00,VWS V14.01,2013-02-09 09:44:00,
2013-02-09 04:45:00,8.6,-1.7,29.68,SE,135,0.0,0.0,62,0.00,,,0.00,VWS V14.01,2013-02-09 09:45:00,
2013-02-09 04:46:00,8.6,-1.7,29.68,ESE,112,0.0,0.0,62,0.00,,,0.00,VWS V14.01,2013-02-09 09:46:00,
2013-02-09 04:47:00,8.6,-1.7,29.68,SE,135,2.7,3.4,62,0.00,,,0.00,VWS V14.01,2013-02-09 09:47:00,
2013-02-09 04:48:00,9.0,-1.4,29.68,SE,135,0.9,4.0,62,0.00,,,0.00,VWS V14.01,2013-02-09 09:48:00,
2013-02-09 04:49:00,9.0,-1.4,29.68,SE,135,0.9,4.0,62,0.00,,,0.00,VWS V14.01,2013-02-09 09:49:00,
2013-02-09 04:50:00,9.1,-1.2,29.68,SE,135,2.2,2.9,62,0.00,,,0.00,VWS V14.01,2013-02-09 09:50:00,
2013-02-09 04:51:00,9.1,-1.2,29.68,ESE,112,1.6,2.2,62,0.00,,,0.00,VWS V14.01,2013-02-09 09:51:00,
2013-02-09 04:52:00,9.0,-1.4,29.65,East,90,0.0,1.6,62,0.00,,,0.00,VWS V14.01,2013-02-09 09:52:00,
2013-02-09 04:53:00,8.8,-1.6,29.65,ESE,112,0.0,0.0,62,0.00,,,0.00,VWS V14.01,2013-02-09 09:53:00,
2013-02-09 04:54:00,8.8,-1.6,29.65,ESE,112,0.0,0.0,62,0.00,,,0.00,VWS V14.01,2013-02-09 09:54:00,
2013-02-09 04:55:00,8.8,-1.6,29.65,East,90,2.7,2.7,62,0.00,,,0.00,VWS V14.01,2013-02-09 09:55:00,
2013-02-09 04:56:00,8.6,-1.7,29.65,East,90,2.5,2.7,62,0.00,,,0.00,VWS V14.01,2013-02-09 09:56:00,
2013-02-09 04:57:00,8.6,-1.7,29.65,East,90,2.5,2.5,62,0.00,,,0.00,VWS V14.01,2013-02-09 09:57:00,
2013-02-09 04:58:00,8.6,-1.7,29.65,ESE,112,2.7,3.1,62,0.00,,,0.00,VWS V14.01,2013-02-09 09:58:00,
2013-02-09 04:59:00,8.6,-1.7,29.65,ESE,112,2.7,3.1,62,0.00,,,0.00,VWS V14.01,2013-02-09 09:59:00,
2013-02-09 05:00:00,8.6,-1.7,29.65,ESE,112,2.7,3.4,62,0.00,,,0.00,VWS V14.01,2013-02-09 10:00:00,
2013-02-09 05:01:00,8.6,-1.7,29.65,SSE,158,2.0,3.1,62,0.00,,,0.00,VWS V14.01,2013-02-09 10:01:00,
2013-02-09 05:02:00,8.8,-1.6,29.65,ESE,112,2.7,3.8,62,0.00,,,0.00,VWS V14.01,2013-02-09 10:02:00,
2013-02-09 05:03:00,8.8,-1.6,29.65,East,90,3.4,3.8,62,0.00,,,0.00,VWS V14.01,2013-02-09 10:03:00,
2013-02-09 05:04:00,8.8,-1.6,29.65,East,90,3.4,3.8,62,0.00,,,0.00,VWS V14.01,2013-02-09 10:04:00,
2013-02-09 05:05:00,8.8,-1.6,29.65,ESE,112,3.1,3.6,62,0.00,,,0.00,VWS V14.01,2013-02-09 10:05:00,
2013-02-09 05:06:00,8.8,-1.6,29.65,ESE,112,4.0,4.0,62,0.00,,,0.00,VWS V14.01,2013-02-09 10:06:00,
2013-02-09 05:07:00,8.8,-1.6,29.65,ESE,112,3.1,6.3,62,0.00,,,0.00,VWS V14.01,2013-02-09 10:07:00,
2013-02-09 05:08:00,9.0,-1.4,29.65,East,90,2.9,3.6,62,0.00,,,0.00,VWS V14.01,2013-02-09 10:08:00,
2013-02-09 05:09:00,8.8,-1.6,29.65,East,90,3.1,4.0,62,0.00,,,0.00,VWS V14.01,2013-02-09 10:09:00,
2013-02-09 05:10:00,8.6,-1.7,29.65,East,90,2.9,3.8,62,0.00,,,0.00,VWS V14.01,2013-02-09 10:10:00,
2013-02-09 05:11:00,8.4,-1.9,29.65,ENE,68,2.9,4.0,62,0.00,,,0.00,VWS V14.01,2013-02-09 10:11:00,
2013-02-09 05:12:00,8.2,-2.1,29.65,East,90,4.3,4.3,62,0.00,,,0.00,VWS V14.01,2013-02-09 10:12:00,
2013-02-09 05:13:00,8.1,-2.2,29.65,East,90,2.9,4.3,62,0.00,,,0.00,VWS V14.01,2013-02-09 10:13:00,
2013-02-09 05:14:00,7.9,-2.4,29.65,East,90,3.6,4.0,62,0.00,,,0.00,VWS V14.01,2013-02-09 10:14:00,
2013-02-09 05:15:00,7.9,-2.4,29.65,ESE,112,3.8,4.7,62,0.00,,,0.00,VWS V14.01,2013-02-09 10:15:00,
2013-02-09 05:16:00,7.7,-2.6,29.65,ESE,112,4.9,4.9,62,0.00,,,0.00,VWS V14.01,2013-02-09 10:16:00,
2013-02-09 05:17:00,7.7,-2.6,29.65,East,90,3.4,4.9,62,0.00,,,0.00,VWS V14.01,2013-02-09 10:17:00,
2013-02-09 05:18:00,7.7,-2.6,29.65,ESE,112,4.0,4.9,62,0.00,,,0.00,VWS V14.01,2013-02-09 10:18:00,
2013-02-09 05:19:00,7.7,-2.6,29.65,East,90,3.8,4.3,62,0.00,,,0.00,VWS V14.01,2013-02-09 10:19:00,
2013-02-09 05:20:00,7.7,-2.6,29.65,East,90,3.8,4.3,62,0.00,,,0.00,VWS V14.01,2013-02-09 10:20:00,
2013-02-09 05:21:00,7.7,-2.6,29.65,East,90,3.6,3.8,62,0.00,,,0.00,VWS V14.01,2013-02-09 10:21:00,
2013-02-09 05:22:00,7.5,-2.8,29.65,ENE,68,3.4,4.0,62,0.00,,,0.00,VWS V14.01,2013-02-09 10:22:00,
2013-02-09 05:23:00,7.5,-2.8,29.65,East,90,2.9,3.4,62,0.00,,,0.00,VWS V14.01,2013-02-09 10:23:00,
2013-02-09 05:24:00,7.5,-2.8,29.65,ESE,112,4.7,4.7,62,0.00,,,0.00,VWS V14.01,2013-02-09 10:24:00,
2013-02-09 05:25:00,7.3,-2.9,29.65,SSE,158,2.7,4.7,62,0.00,,,0.00,VWS V14.01,2013-02-09 10:25:00,
2013-02-09 05:26:00,7.3,-2.9,29.65,SE,135,5.6,5.6,62,0.00,,,0.00,VWS V14.01,2013-02-09 10:26:00,
2013-02-09 05:27:00,7.7,-2.6,29.65,SE,135,3.6,5.6,62,0.00,,,0.00,VWS V14.01,2013-02-09 10:27:00,
2013-02-09 05:28:00,7.7,-2.6,29.65,SE,135,3.4,3.6,62,0.00,,,0.00,VWS V14.01,2013-02-09 10:28:00,
2013-02-09 05:29:00,7.7,-2.6,29.65,ESE,112,2.9,4.0,62,0.00,,,0.00,VWS V14.01,2013-02-09 10:29:00,
2013-02-09 05:30:00,8.1,-2.2,29.65,ESE,112,1.3,3.6,62,0.00,,,0.00,VWS V14.01,2013-02-09 10:30:00,
2013-02-09 05:31:00,8.2,-2.1,29.65,SE,135,3.8,5.4,62,0.00,,,0.00,VWS V14.01,2013-02-09 10:31:00,
2013-02-09 05:32:00,8.2,-2.1,29.65,SSE,158,2.2,4.3,62,0.00,,,0.00,VWS V14.01,2013-02-09 10:32:00,
2013-02-09 05:33:00,8.6,-1.7,29.65,SE,135,5.4,5.4,62,0.00,,,0.00,VWS V14.01,2013-02-09 10:33:00,
2013-02-09 05:34:00,8.8,-1.6,29.65,South,180,2.9,5.4,62,0.00,,,0.00,VWS V14.01,2013-02-09 10:34:00,
2013-02-09 05:35:00,9.0,-1.4,29.65,South,180,1.3,3.1,62,0.00,,,0.00,VWS V14.01,2013-02-09 10:35:00,
2013-02-09 05:36:00,9.1,-1.2,29.65,South,180,1.6,3.1,62,0.00,,,0.00,VWS V14.01,2013-02-09 10:36:00,
2013-02-09 05:37:00,9.1,-1.2,29.65,SSE,158,3.6,3.6,62,0.00,,,0.00,VWS V14.01,2013-02-09 10:37:00,
2013-02-09 05:38:00,9.3,-1.0,29.65,SSE,158,1.3,3.6,62,0.00,,,0.00,VWS V14.01,2013-02-09 10:38:00,
2013-02-09 05:39:00,9.3,-1.0,29.65,SSE,158,2.7,2.7,62,0.00,,,0.00,VWS V14.01,2013-02-09 10:39:00,
2013-02-09 05:41:00,9.5,-0.9,29.65,SSE,158,2.5,2.9,62,0.00,,,0.00,VWS V14.01,2013-02-09 10:41:00,
2013-02-09 05:43:00,9.5,-0.9,29.65,SSE,158,2.0,3.6,62,0.00,,,0.00,VWS V14.01,2013-02-09 10:43:00,
2013-02-09 05:44:00,9.5,-0.9,29.65,South,180,2.7,3.8,62,0.00,,,0.00,VWS V14.01,2013-02-09 10:44:00,
2013-02-09 05:46:00,9.7,-0.7,29.65,SSW,202,1.1,1.6,62,0.00,,,0.00,VWS V14.01,2013-02-09 10:46:00,
2013-02-09 05:48:00,9.7,-0.7,29.65,SSW,202,0.0,1.1,62,0.00,,,0.00,VWS V14.01,2013-02-09 10:48:00,
2013-02-09 05:49:00,9.1,-1.2,29.65,SSW,202,0.9,2.5,62,0.00,,,0.00,VWS V14.01,2013-02-09 10:49:00,
2013-02-09 05:50:00,9.1,-1.2,29.65,SSW,202,2.0,2.5,62,0.00,,,0.00,VWS V14.01,2013-02-09 10:50:00,
2013-02-09 05:51:00,9.0,-1.4,29.65,SSW,202,0.0,2.0,62,0.00,,,0.00,VWS V14.01,2013-02-09 10:51:00,
2013-02-09 05:52:00,8.8,-1.6,29.68,SSW,202,0.0,0.0,62,0.00,,,0.00,VWS V14.01,2013-02-09 10:52:00,
2013-02-09 05:53:00,8.6,-1.7,29.68,SSE,158,1.1,1.1,62,0.00,,,0.00,VWS V14.01,2013-02-09 10:53:00,
2013-02-09 05:54:00,8.6,-1.7,29.68,SSE,158,2.0,3.4,62,0.00,,,0.00,VWS V14.01,2013-02-09 10:54:00,
2013-02-09 05:56:00,8.8,-1.6,29.68,SSE,158,2.5,2.5,62,0.00,,,0.00,VWS V14.01,2013-02-09 10:56:00,
2013-02-09 05:57:00,8.8,-1.6,29.68,SE,135,3.4,3.4,62,0.00,,,0.00,VWS V14.01,2013-02-09 10:57:00,
2013-02-09 05:58:00,8.8,-1.6,29.68,SSE,158,2.7,3.6,62,0.00,,,0.00,VWS V14.01,2013-02-09 10:58:00,
2013-02-09 05:59:00,9.0,-1.4,29.68,SSE,158,4.3,4.3,62,0.00,,,0.00,VWS V14.01,2013-02-09 10:59:00,
2013-02-09 06:00:00,9.0,-1.4,29.68,SSE,158,4.3,4.3,62,0.00,,,0.00,VWS V14.01,2013-02-09 11:00:00,
2013-02-09 06:01:00,9.1,-1.2,29.68,SSE,158,2.7,4.3,62,0.00,,,0.00,VWS V14.01,2013-02-09 11:01:00,
2013-02-09 06:02:00,9.1,-1.2,29.68,SSE,158,3.1,3.4,62,0.00,,,0.00,VWS V14.01,2013-02-09 11:02:00,
2013-02-09 06:03:00,9.3,-1.0,29.68,SSE,158,1.1,3.4,62,0.00,,,0.00,VWS V14.01,2013-02-09 11:03:00,
2013-02-09 06:04:00,9.3,-1.0,29.68,SE,135,1.6,2.5,62,0.00,,,0.00,VWS V14.01,2013-02-09 11:04:00,
2013-02-09 06:05:00,9.3,-1.0,29.68,ESE,112,2.7,3.4,62,0.00,,,0.00,VWS V14.01,2013-02-09 11:05:00,
2013-02-09 06:06:00,9.3,-1.0,29.68,East,90,3.8,3.8,62,0.00,,,0.00,VWS V14.01,2013-02-09 11:06:00,
2013-02-09 06:08:00,9.5,-0.9,29.68,East,90,2.2,2.7,62,0.00,,,0.00,VWS V14.01,2013-02-09 11:08:00,
2013-02-09 06:09:00,9.3,-1.0,29.68,East,90,1.6,2.5,62,0.00,,,0.00,VWS V14.01,2013-02-09 11:09:00,
2013-02-09 06:10:00,9.3,-1.0,29.68,ESE,112,2.5,2.5,62,0.00,,,0.00,VWS V14.01,2013-02-09 11:10:00,
2013-02-09 06:11:00,9.1,-1.2,29.68,East,90,2.7,2.7,62,0.00,,,0.00,VWS V14.01,2013-02-09 11:11:00,
2013-02-09 06:12:00,9.1,-1.2,29.68,East,90,2.7,2.7,62,0.00,,,0.00,VWS V14.01,2013-02-09 11:12:00,
2013-02-09 06:13:00,9.1,-1.2,29.68,East,90,2.7,2.7,62,0.00,,,0.00,VWS V14.01,2013-02-09 11:13:00,
2013-02-09 06:14:00,9.0,-1.4,29.68,ESE,112,2.5,2.5,62,0.00,,,0.00,VWS V14.01,2013-02-09 11:14:00,
2013-02-09 06:15:00,9.0,-1.4,29.68,ESE,112,2.5,2.5,62,0.00,,,0.00,VWS V14.01,2013-02-09 11:15:00,
2013-02-09 06:16:00,9.0,-1.4,29.68,East,90,3.4,3.4,62,0.00,,,0.00,VWS V14.01,2013-02-09 11:16:00,
2013-02-09 06:17:00,9.0,-1.4,29.68,East,90,3.6,4.3,62,0.00,,,0.00,VWS V14.01,2013-02-09 11:17:00,
2013-02-09 06:18:00,8.6,-1.7,29.68,East,90,4.3,4.3,62,0.00,,,0.00,VWS V14.01,2013-02-09 11:18:00,
2013-02-09 06:19:00,8.4,-1.9,29.68,East,90,3.8,3.8,62,0.00,,,0.00,VWS V14.01,2013-02-09 11:19:00,
2013-02-09 06:20:00,8.4,-1.9,29.68,ESE,112,4.3,4.3,62,0.00,,,0.00,VWS V14.01,2013-02-09 11:20:00,
2013-02-09 06:21:00,8.4,-1.9,29.68,ESE,112,4.7,4.9,62,0.00,,,0.00,VWS V14.01,2013-02-09 11:21:00,
2013-02-09 06:22:00,8.2,-2.1,29.68,East,90,5.4,5.4,62,0.00,,,0.00,VWS V14.01,2013-02-09 11:22:00,
2013-02-09 06:23:00,8.4,-1.9,29.68,ESE,112,4.9,5.6,62,0.00,,,0.00,VWS V14.01,2013-02-09 11:23:00,
2013-02-09 06:24:00,8.1,-2.2,29.68,ESE,112,4.9,4.9,62,0.00,,,0.00,VWS V14.01,2013-02-09 11:24:00,
2013-02-09 06:25:00,8.1,-2.2,29.68,East,90,3.6,4.9,62,0.00,,,0.00,VWS V14.01,2013-02-09 11:25:00,
2013-02-09 06:26:00,7.9,-2.4,29.68,East,90,4.9,4.9,62,0.00,,,0.00,VWS V14.01,2013-02-09 11:26:00,
2013-02-09 06:27:00,7.9,-2.4,29.68,East,90,4.3,4.9,62,0.00,,,0.00,VWS V14.01,2013-02-09 11:27:00,
2013-02-09 06:28:00,7.9,-2.4,29.68,ESE,112,5.4,5.4,62,0.00,,,0.00,VWS V14.01,2013-02-09 11:28:00,
2013-02-09 06:29:00,7.5,-2.8,29.68,ESE,112,4.0,5.4,62,0.00,,,0.00,VWS V14.01,2013-02-09 11:29:00,
2013-02-09 06:30:00,7.5,-2.8,29.68,ESE,112,4.0,4.0,62,0.00,,,0.00,VWS V14.01,2013-02-09 11:30:00,
2013-02-09 06:31:00,7.2,-3.1,29.68,ESE,112,4.9,4.9,62,0.00,,,0.00,VWS V14.01,2013-02-09 11:31:00,
2013-02-09 06:32:00,7.3,-2.9,29.68,ESE,112,4.0,4.9,62,0.00,,,0.00,VWS V14.01,2013-02-09 11:32:00,
2013-02-09 06:33:00,7.3,-2.9,29.68,SE,135,4.3,4.3,62,0.00,,,0.00,VWS V14.01,2013-02-09 11:33:00,
2013-02-09 06:34:00,7.5,-2.8,29.68,East,90,3.1,4.9,62,0.00,,,0.00,VWS V14.01,2013-02-09 11:34:00,
2013-02-09 06:35:00,7.7,-2.6,29.68,ESE,112,4.0,4.9,62,0.00,,,0.00,VWS V14.01,2013-02-09 11:35:00,
2013-02-09 06:36:00,7.7,-2.6,29.68,ESE,112,3.6,4.0,62,0.00,,,0.00,VWS V14.01,2013-02-09 11:36:00,
2013-02-09 06:37:00,7.7,-2.6,29.65,ESE,112,2.7,4.9,62,0.00,,,0.00,VWS V14.01,2013-02-09 11:37:00,
2013-02-09 06:38:00,7.7,-2.6,29.65,SSE,158,5.4,5.4,62,0.00,,,0.00,VWS V14.01,2013-02-09 11:38:00,
2013-02-09 06:39:00,8.1,-2.2,29.65,SE,135,3.6,5.4,62,0.00,,,0.00,VWS V14.01,2013-02-09 11:39:00,
2013-02-09 06:40:00,8.4,-1.9,29.65,NNE,22,6.5,6.5,62,0.00,,,0.00,VWS V14.01,2013-02-09 11:40:00,
2013-02-09 06:41:00,8.4,-1.9,29.65,SSE,158,2.7,6.5,62,0.00,,,0.00,VWS V14.01,2013-02-09 11:41:00,
2013-02-09 06:43:00,8.6,-1.7,29.65,SE,135,4.0,4.0,62,0.00,,,0.00,VWS V14.01,2013-02-09 11:43:00,
2013-02-09 06:44:00,9.0,-1.4,29.65,SSE,158,7.6,7.6,62,0.00,,,0.00,VWS V14.01,2013-02-09 11:44:00,
2013-02-09 06:45:00,9.0,-1.4,29.65,SSE,158,3.8,7.6,62,0.00,,,0.00,VWS V14.01,2013-02-09 11:45:00,
2013-02-09 06:46:00,9.0,-1.4,29.65,SSE,158,2.9,3.8,62,0.00,,,0.00,VWS V14.01,2013-02-09 11:46:00,
2013-02-09 06:47:00,9.1,-1.2,29.65,SSE,158,2.9,3.6,62,0.00,,,0.00,VWS V14.01,2013-02-09 11:47:00,
2013-02-09 06:48:00,9.1,-1.2,29.65,SSW,202,1.1,4.3,62,0.00,,,0.00,VWS V14.01,2013-02-09 11:48:00,
2013-02-09 06:49:00,9.3,-1.0,29.65,SSE,158,1.6,4.0,62,0.00,,,0.00,VWS V14.01,2013-02-09 11:49:00,
2013-02-09 06:51:00,9.3,-1.0,29.65,SE,135,1.6,4.0,62,0.00,,,0.00,VWS V14.01,2013-02-09 11:51:00,
2013-02-09 06:52:00,9.5,-0.9,29.68,South,180,2.7,4.7,62,0.00,,,0.00,VWS V14.01,2013-02-09 11:52:00,
2013-02-09 06:53:00,9.5,-0.9,29.68,SSE,158,1.6,2.7,62,0.00,,,0.00,VWS V14.01,2013-02-09 11:53:00,
2013-02-09 06:54:00,9.5,-0.9,29.68,SSW,202,1.1,4.0,62,0.00,,,0.00,VWS V14.01,2013-02-09 11:54:00,
2013-02-09 06:55:00,9.5,-0.9,29.68,SSW,202,2.0,4.0,62,0.00,,,0.00,VWS V14.01,2013-02-09 11:55:00,
2013-02-09 06:56:00,9.7,-0.7,29.68,SSW,202,0.0,2.7,62,0.00,,,0.00,VWS V14.01,2013-02-09 11:56:00,
2013-02-09 06:57:00,9.3,-1.0,29.68,SSW,202,1.1,1.3,62,0.00,,,0.00,VWS V14.01,2013-02-09 11:57:00,
2013-02-09 06:58:00,9.1,-1.2,29.68,SSE,158,2.9,2.9,62,0.00,,,0.00,VWS V14.01,2013-02-09 11:58:00,
2013-02-09 06:59:00,9.1,-1.2,29.68,SSE,158,4.3,4.3,62,0.00,,,0.00,VWS V14.01,2013-02-09 11:59:00,
2013-02-09 07:00:00,9.1,-1.2,29.68,SSW,202,2.5,4.3,62,0.00,,,0.00,VWS V14.01,2013-02-09 12:00:00,
2013-02-09 07:01:00,9.3,-1.0,29.68,SE,135,2.5,2.5,62,0.00,,,0.00,VWS V14.01,2013-02-09 12:01:00,
2013-02-09 07:02:00,9.3,-1.0,29.68,ESE,112,0.0,2.5,62,0.00,,,0.00,VWS V14.01,2013-02-09 12:02:00,
2013-02-09 07:03:00,9.3,-1.0,29.68,ESE,112,0.0,0.0,62,0.00,,,0.00,VWS V14.01,2013-02-09 12:03:00,
2013-02-09 07:04:00,9.3,-1.0,29.68,SSE,158,1.1,3.1,62,0.00,,,0.00,VWS V14.01,2013-02-09 12:04:00,
2013-02-09 07:05:00,9.3,-1.0,29.68,SE,135,1.3,3.1,62,0.00,,,0.00,VWS V14.01,2013-02-09 12:05:00,
2013-02-09 07:06:00,9.3,-1.0,29.68,SSE,158,1.1,2.2,62,0.00,,,0.00,VWS V14.01,2013-02-09 12:06:00,
2013-02-09 07:07:00,9.3,-1.0,29.68,SSE,158,0.0,2.5,62,0.00,,,0.00,VWS V14.01,2013-02-09 12:07:00,
2013-02-09 07:08:00,9.3,-1.0,29.68,East,90,0.0,1.6,62,0.00,,,0.00,VWS V14.01,2013-02-09 12:08:00,
2013-02-09 07:09:00,9.3,-1.0,29.68,East,90,0.0,0.0,62,0.00,,,31.48,VWS V14.01,2013-02-09 12:09:00,
2013-02-09 07:10:00,9.3,-1.0,29.68,East,90,0.0,0.0,62,0.00,,,0.00,VWS V14.01,2013-02-09 12:10:00,
2013-02-09 07:11:00,9.0,-1.4,29.68,East,90,0.0,1.3,62,0.00,,,0.00,VWS V14.01,2013-02-09 12:11:00,
2013-02-09 07:12:00,9.0,-1.4,29.68,ESE,112,2.0,2.7,62,0.00,,,0.00,VWS V14.01,2013-02-09 12:12:00,
2013-02-09 07:13:00,9.0,-1.4,29.68,ESE,112,2.9,2.9,62,0.00,,,0.00,VWS V14.01,2013-02-09 12:13:00,
2013-02-09 07:14:00,9.0,-1.4,29.68,East,90,3.1,3.1,62,0.00,,,0.00,VWS V14.01,2013-02-09 12:14:00,
2013-02-09 07:15:00,9.0,-1.4,29.68,ESE,112,2.9,3.1,62,0.00,,,0.00,VWS V14.01,2013-02-09 12:15:00,
2013-02-09 07:16:00,9.0,-1.4,29.68,ESE,112,2.9,3.1,62,0.00,,,0.00,VWS V14.01,2013-02-09 12:16:00,
2013-02-09 07:17:00,9.0,-1.4,29.68,SE,135,2.5,2.9,62,0.00,,,0.00,VWS V14.01,2013-02-09 12:17:00,
2013-02-09 07:18:00,9.0,-1.4,29.68,ESE,112,2.5,2.7,62,0.00,,,0.00,VWS V14.01,2013-02-09 12:18:00,
2013-02-09 07:19:00,8.8,-1.6,29.68,ESE,112,2.5,2.9,62,0.00,,,0.00,VWS V14.01,2013-02-09 12:19:00,
2013-02-09 07:20:00,8.8,-1.6,29.68,ESE,112,1.6,2.9,62,0.00,,,0.00,VWS V14.01,2013-02-09 12:20:00,
2013-02-09 07:21:00,8.8,-1.6,29.68,ESE,112,2.7,2.7,62,0.00,,,0.00,VWS V14.01,2013-02-09 12:21:00,
2013-02-09 07:22:00,9.0,-1.4,29.65,East,90,2.7,2.9,62,0.00,,,0.00,VWS V14.01,2013-02-09 12:22:00,
2013-02-09 07:23:00,9.0,-1.4,29.65,ESE,112,2.7,3.8,62,0.00,,,0.00,VWS V14.01,2013-02-09 12:23:00,
2013-02-09 07:24:00,9.1,-1.2,29.65,ESE,112,2.0,3.1,62,0.00,,,0.00,VWS V14.01,2013-02-09 12:24:00,
2013-02-09 07:25:00,9.1,-1.2,29.65,ESE,112,2.0,3.1,62,0.00,,,0.00,VWS V14.01,2013-02-09 12:25:00,
2013-02-09 07:26:00,9.1,-1.2,29.65,ESE,112,2.5,2.5,62,0.00,,,0.00,VWS V14.01,2013-02-09 12:26:00,
2013-02-09 07:27:00,9.1,-1.2,29.65,ESE,112,3.8,3.8,62,0.00,,,0.00,VWS V14.01,2013-02-09 12:27:00,
2013-02-09 07:29:00,9.1,-1.2,29.65,SE,135,3.4,3.8,62,0.00,,,0.00,VWS V14.01,2013-02-09 12:29:00,
2013-02-09 07:30:00,9.1,-1.2,29.65,SE,135,3.4,3.8,62,0.00,,,0.00,VWS V14.01,2013-02-09 12:30:00,
2013-02-09 07:31:00,9.1,-1.2,29.65,ESE,112,2.9,3.4,62,0.00,,,0.00,VWS V14.01,2013-02-09 12:31:00,
2013-02-09 07:32:00,9.1,-1.2,29.65,South,180,2.9,2.9,62,0.00,,,0.00,VWS V14.01,2013-02-09 12:32:00,
2013-02-09 07:33:00,9.1,-1.2,29.65,South,180,2.5,2.9,62,0.00,,,0.00,VWS V14.01,2013-02-09 12:33:00,
2013-02-09 07:34:00,9.3,-1.0,29.65,SE,135,1.3,1.6,62,0.00,,,0.00,VWS V14.01,2013-02-09 12:34:00,
2013-02-09 07:35:00,9.3,-1.0,29.65,SE,135,2.0,2.0,62,0.00,,,0.00,VWS V14.01,2013-02-09 12:35:00,
2013-02-09 07:36:00,9.3,-1.0,29.65,SSE,158,2.7,3.4,62,0.00,,,0.00,VWS V14.01,2013-02-09 12:36:00,
2013-02-09 07:37:00,9.3,-1.0,29.65,SSE,158,2.7,2.7,62,0.00,,,0.00,VWS V14.01,2013-02-09 12:37:00,
2013-02-09 07:38:00,9.7,-0.7,29.65,ESE,112,3.1,3.8,62,0.00,,,0.00,VWS V14.01,2013-02-09 12:38:00,
2013-02-09 07:39:00,9.7,-0.7,29.65,SE,135,3.4,3.4,62,0.00,,,0.00,VWS V14.01,2013-02-09 12:39:00,
2013-02-09 07:40:00,9.7,-0.7,29.65,SE,135,3.4,3.4,62,0.00,,,0.00,VWS V14.01,2013-02-09 12:40:00,
2013-02-09 07:41:00,9.7,-0.7,29.65,SE,135,3.6,3.6,62,0.00,,,0.00,VWS V14.01,2013-02-09 12:41:00,
2013-02-09 07:42:00,9.9,-0.5,29.65,ESE,112,3.4,4.9,62,0.00,,,0.00,VWS V14.01,2013-02-09 12:42:00,
2013-02-09 07:43:00,10.0,-0.4,29.65,ESE,112,4.0,4.0,62,0.00,,,0.00,VWS V14.01,2013-02-09 12:43:00,
2013-02-09 07:44:00,9.9,-0.5,29.65,ESE,112,2.9,2.9,62,0.00,,,0.00,VWS V14.01,2013-02-09 12:44:00,
2013-02-09 07:45:00,9.9,-0.5,29.65,ESE,112,2.9,2.9,62,0.00,,,0.00,VWS V14.01,2013-02-09 12:45:00,
2013-02-09 07:46:00,9.9,-0.5,29.65,ESE,112,3.1,3.1,62,0.00,,,0.00,VWS V14.01,2013-02-09 12:46:00,
2013-02-09 07:47:00,9.9,-0.5,29.65,SSE,158,2.7,3.8,62,0.00,,,0.00,VWS V14.01,2013-02-09 12:47:00,
2013-02-09 07:48:00,9.7,-0.7,29.65,ESE,112,2.5,3.8,62,0.00,,,0.00,VWS V14.01,2013-02-09 12:48:00,
2013-02-09 07:49:00,9.9,-0.5,29.65,SE,135,4.3,4.9,62,0.00,,,0.00,VWS V14.01,2013-02-09 12:49:00,
2013-02-09 07:50:00,9.9,-0.5,29.65,SE,135,4.3,4.9,62,0.00,,,0.00,VWS V14.01,2013-02-09 12:50:00,
2013-02-09 07:51:00,10.0,-0.4,29.65,SSE,158,2.7,4.3,62,0.00,,,0.00,VWS V14.01,2013-02-09 12:51:00,
2013-02-09 07:52:00,10.0,-0.4,29.68,ESE,112,1.1,2.7,62,0.00,,,0.00,VWS V14.01,2013-02-09 12:52:00,
2013-02-09 07:53:00,10.0,-0.4,29.68,ESE,112,1.1,1.1,62,0.00,,,0.00,VWS V14.01,2013-02-09 12:53:00,
2013-02-09 07:54:00,10.0,-0.4,29.68,SSE,158,4.3,4.3,62,0.00,,,0.00,VWS V14.01,2013-02-09 12:54:00,
2013-02-09 07:55:00,10.0,-0.4,29.68,SE,135,3.1,4.3,62,0.00,,,0.00,VWS V14.01,2013-02-09 12:55:00,
2013-02-09 07:57:00,10.0,-0.4,29.68,ESE,112,1.3,3.4,62,0.00,,,0.00,VWS V14.01,2013-02-09 12:57:00,
2013-02-09 07:58:00,10.0,-0.4,29.68,SE,135,4.3,4.7,62,0.00,,,0.00,VWS V14.01,2013-02-09 12:58:00,
2013-02-09 07:59:00,10.2,-0.2,29.68,SSE,158,0.9,4.3,62,0.00,,,0.00,VWS V14.01,2013-02-09 12:59:00,
2013-02-09 08:00:00,10.2,-0.2,29.68,ESE,112,3.1,3.4,62,0.00,,,0.00,VWS V14.01,2013-02-09 13:00:00,
2013-02-09 08:01:00,10.2,-0.2,29.68,ESE,112,3.1,3.4,62,0.00,,,0.00,VWS V14.01,2013-02-09 13:01:00,
2013-02-09 08:02:00,10.2,-0.2,29.68,SSE,158,2.9,4.7,62,0.00,,,0.00,VWS V14.01,2013-02-09 13:02:00,
2013-02-09 08:03:00,10.2,-0.2,29.68,SE,135,2.9,3.4,62,0.00,,,0.00,VWS V14.01,2013-02-09 13:03:00,
2013-02-09 08:04:00,10.4,0.0,29.68,East,90,2.7,4.9,62,0.00,,,0.00,VWS V14.01,2013-02-09 13:04:00,
2013-02-09 08:05:00,10.6,0.2,29.68,South,180,2.9,3.4,62,0.00,,,0.00,VWS V14.01,2013-02-09 13:05:00,
2013-02-09 08:06:00,10.8,0.3,29.68,SSE,158,2.5,3.8,62,0.00,,,0.00,VWS V14.01,2013-02-09 13:06:00,
2013-02-09 08:07:00,10.8,0.3,29.68,SSE,158,2.9,2.9,62,0.00,,,0.00,VWS V14.01,2013-02-09 13:07:00,
2013-02-09 08:08:00,10.8,0.3,29.68,ESE,112,5.6,5.6,62,0.00,,,0.00,VWS V14.01,2013-02-09 13:08:00,
2013-02-09 08:09:00,10.8,0.3,29.68,ESE,112,2.5,5.6,62,0.00,,,0.00,VWS V14.01,2013-02-09 13:09:00,
2013-02-09 08:10:00,10.9,0.5,29.68,SSE,158,2.9,3.1,62,0.00,,,0.00,VWS V14.01,2013-02-09 13:10:00,
2013-02-09 08:11:00,10.9,0.5,29.68,ESE,112,2.9,3.6,62,0.00,,,0.00,VWS V14.01,2013-02-09 13:11:00,
2013-02-09 08:12:00,11.1,0.7,29.68,SE,135,4.7,4.7,62,0.00,,,0.00,VWS V14.01,2013-02-09 13:12:00,
2013-02-09 08:13:00,11.1,0.7,29.68,SE,135,2.2,4.7,62,0.00,,,0.00,VWS V14.01,2013-02-09 13:13:00,
2013-02-09 08:14:00,11.1,0.7,29.68,ESE,112,2.9,3.1,62,0.00,,,0.00,VWS V14.01,2013-02-09 13:14:00,
2013-02-09 08:15:00,11.1,0.7,29.68,SE,135,3.4,4.3,62,0.00,,,0.00,VWS V14.01,2013-02-09 13:15:00,
2013-02-09 08:16:00,11.3,0.8,29.68,SE,135,2.5,3.6,62,0.00,,,0.00,VWS V14.01,2013-02-09 13:16:00,
2013-02-09 08:17:00,11.3,0.8,29.68,ESE,112,3.4,4.3,62,0.00,,,0.00,VWS V14.01,2013-02-09 13:17:00,
2013-02-09 08:18:00,11.5,1.0,29.68,ESE,112,3.1,4.3,62,0.00,,,0.00,VWS V14.01,2013-02-09 13:18:00,
2013-02-09 08:20:00,11.8,1.3,29.68,ESE,112,4.0,4.0,62,0.00,,,0.00,VWS V14.01,2013-02-09 13:20:00,
2013-02-09 08:21:00,11.8,1.3,29.65,East,90,3.4,4.0,62,0.00,,,0.00,VWS V14.01,2013-02-09 13:21:00,
2013-02-09 08:22:00,11.8,1.3,29.65,ESE,112,3.1,3.4,62,0.00,,,0.00,VWS V14.01,2013-02-09 13:22:00,
2013-02-09 08:23:00,11.8,1.3,29.65,ESE,112,3.1,3.1,62,0.00,,,0.00,VWS V14.01,2013-02-09 13:23:00,
2013-02-09 08:24:00,11.8,1.3,29.65,ESE,112,3.4,3.4,62,0.00,,,0.00,VWS V14.01,2013-02-09 13:24:00,
2013-02-09 08:25:00,11.8,1.3,29.65,ENE,68,2.7,2.7,62,0.00,,,0.00,VWS V14.01,2013-02-09 13:25:00,
2013-02-09 08:26:00,11.7,1.2,29.65,East,90,4.3,4.3,62,0.00,,,0.00,VWS V14.01,2013-02-09 13:26:00,
2013-02-09 08:27:00,11.7,1.2,29.65,East,90,4.3,4.3,62,0.00,,,0.00,VWS V14.01,2013-02-09 13:27:00,
2013-02-09 08:30:00,11.8,1.3,29.65,East,90,4.0,4.0,62,0.00,,,0.00,VWS V14.01,2013-02-09 13:30:00,
2013-02-09 08:31:00,11.8,1.3,29.65,ESE,112,2.5,4.0,62,0.00,,,0.00,VWS V14.01,2013-02-09 13:31:00,
2013-02-09 08:33:00,12.0,1.5,29.65,ESE,112,2.7,2.7,62,0.00,,,0.00,VWS V14.01,2013-02-09 13:33:00,
2013-02-09 08:35:00,12.0,1.5,29.65,SE,135,2.2,2.2,62,0.00,,,0.00,VWS V14.01,2013-02-09 13:35:00,
2013-02-09 08:37:00,12.2,1.7,29.65,ESE,112,3.4,4.0,62,0.00,,,0.00,VWS V14.01,2013-02-09 13:37:00,
2013-02-09 08:38:00,12.2,1.7,29.68,East,90,2.5,3.4,62,0.00,,,0.00,VWS V14.01,2013-02-09 13:38:00,
2013-02-09 08:40:00,12.9,2.4,29.68,East,90,2.5,3.8,62,0.00,,,0.00,VWS V14.01,2013-02-09 13:40:00,
2013-02-09 08:41:00,12.9,2.4,29.68,SE,135,2.0,4.3,62,0.00,,,0.00,VWS V14.01,2013-02-09 13:41:00,
2013-02-09 08:42:00,13.3,2.7,29.68,ESE,112,2.0,2.5,62,0.00,,,0.00,VWS V14.01,2013-02-09 13:42:00,
2013-02-09 08:43:00,13.5,2.9,29.68,East,90,2.7,2.7,62,0.00,,,0.00,VWS V14.01,2013-02-09 13:43:00,
2013-02-09 08:44:00,13.6,3.0,29.68,ESE,112,2.9,3.1,62,0.00,,,0.00,VWS V14.01,2013-02-09 13:44:00,
2013-02-09 08:45:00,13.6,3.0,29.68,ESE,112,2.9,2.9,62,0.00,,,0.00,VWS V14.01,2013-02-09 13:45:00,
2013-02-09 08:47:00,13.8,3.2,29.68,ESE,112,2.0,4.3,62,0.00,,,0.00,VWS V14.01,2013-02-09 13:47:00,
2013-02-09 08:48:00,13.8,3.2,29.68,East,90,1.6,2.5,62,0.00,,,0.00,VWS V14.01,2013-02-09 13:48:00,
2013-02-09 08:49:00,14.0,7.8,29.68,ESE,112,2.5,2.5,76,0.00,,,0.00,VWS V14.01,2013-02-09 13:49:00,
2013-02-09 08:50:00,14.0,7.6,29.68,ESE,112,4.0,4.0,75,0.00,,,0.00,VWS V14.01,2013-02-09 13:50:00,
2013-02-09 08:51:00,14.0,7.3,29.68,SE,135,1.3,4.0,74,0.00,,,0.00,VWS V14.01,2013-02-09 13:51:00,
2013-02-09 08:52:00,14.0,7.3,29.68,SSE,158,2.0,2.9,74,0.00,,,0.00,VWS V14.01,2013-02-09 13:52:00,
2013-02-09 08:53:00,14.0,7.3,29.68,SSE,158,3.1,3.1,74,0.00,,,0.00,VWS V14.01,2013-02-09 13:53:00,
2013-02-09 08:54:00,14.5,7.8,29.68,ESE,112,2.2,5.6,74,0.00,,,0.00,VWS V14.01,2013-02-09 13:54:00,
2013-02-09 08:55:00,14.5,7.8,29.68,SE,135,0.0,1.6,74,0.00,,,0.00,VWS V14.01,2013-02-09 13:55:00,
2013-02-09 08:56:00,14.5,7.8,29.68,South,180,2.0,2.0,74,0.00,,,0.00,VWS V14.01,2013-02-09 13:56:00,
2013-02-09 08:57:00,15.1,8.3,29.68,South,180,3.1,3.1,74,0.00,,,0.00,VWS V14.01,2013-02-09 13:57:00,
2013-02-09 08:59:00,15.3,8.5,29.68,ESE,112,2.0,2.0,74,0.00,,,0.00,VWS V14.01,2013-02-09 13:59:00,
2013-02-09 09:00:00,15.8,9.0,29.68,ESE,112,3.6,6.3,74,0.00,,,0.00,VWS V14.01,2013-02-09 14:00:00,
2013-02-09 09:01:00,15.8,8.4,29.68,ESE,112,2.5,6.3,72,0.00,,,0.00,VWS V14.01,2013-02-09 14:01:00,
2013-02-09 09:02:00,15.8,8.4,29.68,SE,135,3.4,3.8,72,0.00,,,0.00,VWS V14.01,2013-02-09 14:02:00,
2013-02-09 09:03:00,15.8,8.4,29.68,ENE,68,2.9,4.3,72,0.00,,,0.00,VWS V14.01,2013-02-09 14:03:00,
2013-02-09 09:04:00,15.8,8.1,29.68,ESE,112,3.4,3.8,71,0.00,,,0.00,VWS V14.01,2013-02-09 14:04:00,
2013-02-09 09:05:00,15.8,7.8,29.68,East,90,3.4,3.6,70,0.00,,,0.00,VWS V14.01,2013-02-09 14:05:00,
2013-02-09 09:06:00,16.0,7.6,29.68,ESE,112,4.9,4.9,69,0.00,,,0.00,VWS V14.01,2013-02-09 14:06:00,
2013-02-09 09:07:00,16.0,7.3,29.68,ESE,112,3.6,4.9,68,0.00,,,0.00,VWS V14.01,2013-02-09 14:07:00,
2013-02-09 09:08:00,16.2,7.5,29.68,ESE,112,3.4,3.8,68,0.00,,,0.00,VWS V14.01,2013-02-09 14:08:00,
2013-02-09 09:09:00,16.2,7.2,29.68,East,90,3.4,4.0,67,0.00,,,0.00,VWS V14.01,2013-02-09 14:09:00,
2013-02-09 09:10:00,16.5,7.2,29.68,ESE,112,3.8,3.8,66,0.00,,,0.00,VWS V14.01,2013-02-09 14:10:00,
2013-02-09 09:11:00,16.5,7.2,29.68,ESE,112,2.7,3.8,66,0.00,,,0.00,VWS V14.01,2013-02-09 14:11:00,
2013-02-09 09:12:00,16.5,7.2,29.68,SE,135,3.6,4.3,66,0.00,,,0.00,VWS V14.01,2013-02-09 14:12:00,
2013-02-09 09:13:00,17.2,7.8,29.68,East,90,2.9,3.6,66,0.00,,,0.00,VWS V14.01,2013-02-09 14:13:00,
2013-02-09 09:14:00,17.1,7.3,29.68,ESE,112,3.1,3.1,65,0.00,,,0.00,VWS V14.01,2013-02-09 14:14:00,
2013-02-09 09:15:00,17.1,7.3,29.68,ESE,112,3.1,3.4,65,0.00,,,0.00,VWS V14.01,2013-02-09 14:15:00,
2013-02-09 09:16:00,17.1,7.0,29.68,East,90,2.9,3.8,64,0.00,,,0.00,VWS V14.01,2013-02-09 14:16:00,
2013-02-09 09:17:00,16.9,6.5,29.68,East,90,3.6,4.0,63,0.00,,,0.00,VWS V14.01,2013-02-09 14:17:00,
2013-02-09 09:18:00,16.5,5.8,29.68,East,90,2.7,3.6,62,0.00,,,0.00,VWS V14.01,2013-02-09 14:18:00,
2013-02-09 09:19:00,16.5,5.8,29.68,East,90,3.8,3.8,62,0.00,,,0.00,VWS V14.01,2013-02-09 14:19:00,
2013-02-09 09:20:00,16.5,5.8,29.68,ESE,112,3.8,3.8,62,0.00,,,0.00,VWS V14.01,2013-02-09 14:20:00,
2013-02-09 09:21:00,16.0,5.3,29.68,East,90,3.4,3.8,62,0.00,,,0.00,VWS V14.01,2013-02-09 14:21:00,
2013-02-09 09:22:00,16.0,5.3,29.65,East,90,4.0,4.3,62,0.00,,,0.00,VWS V14.01,2013-02-09 14:22:00,
2013-02-09 09:23:00,15.8,5.1,29.65,ESE,112,2.7,4.0,62,0.00,,,0.00,VWS V14.01,2013-02-09 14:23:00,
2013-02-09 09:24:00,15.8,5.1,29.65,ESE,112,3.4,3.8,62,0.00,,,0.00,VWS V14.01,2013-02-09 14:24:00,
2013-02-09 09:25:00,15.6,4.9,29.65,East,90,3.1,3.1,62,0.00,,,0.00,VWS V14.01,2013-02-09 14:25:00,
2013-02-09 09:26:00,15.6,4.9,29.65,ESE,112,3.4,4.0,62,0.00,,,0.00,VWS V14.01,2013-02-09 14:26:00,
2013-02-09 09:27:00,15.6,4.9,29.65,ESE,112,3.1,3.4,62,0.00,,,0.00,VWS V14.01,2013-02-09 14:27:00,
2013-02-09 09:28:00,16.0,5.6,29.65,South,180,2.5,3.4,63,0.00,,,0.00,VWS V14.01,2013-02-09 14:28:00,
2013-02-09 09:29:00,16.0,5.6,29.65,SSE,158,2.2,3.1,63,0.00,,,0.00,VWS V14.01,2013-02-09 14:29:00,
2013-02-09 09:30:00,16.0,5.3,29.65,ESE,112,2.0,2.9,62,0.00,,,0.00,VWS V14.01,2013-02-09 14:30:00,
2013-02-09 09:31:00,16.0,5.3,29.65,ESE,112,2.5,2.9,62,0.00,,,0.00,VWS V14.01,2013-02-09 14:31:00,
2013-02-09 09:33:00,16.0,5.3,29.65,SSE,158,2.9,2.9,62,0.00,,,0.00,VWS V14.01,2013-02-09 14:33:00,
2013-02-09 09:35:00,15.4,5.1,29.65,ESE,112,3.1,3.1,63,0.00,,,0.00,VWS V14.01,2013-02-09 14:35:00,
2013-02-09 09:36:00,15.3,4.6,29.65,East,90,3.6,3.6,62,0.00,,,0.00,VWS V14.01,2013-02-09 14:36:00,
2013-02-09 09:37:00,15.1,4.4,29.65,ESE,112,2.9,3.6,62,0.00,,,0.00,VWS V14.01,2013-02-09 14:37:00,
2013-02-09 09:38:00,15.3,4.6,29.65,ESE,112,2.9,3.6,62,0.00,,,0.00,VWS V14.01,2013-02-09 14:38:00,
2013-02-09 09:39:00,15.3,4.6,29.65,South,180,4.3,4.3,62,0.00,,,0.00,VWS V14.01,2013-02-09 14:39:00,
2013-02-09 09:40:00,16.3,6.3,29.65,SSE,158,2.0,3.4,64,0.00,,,0.00,VWS V14.01,2013-02-09 14:40:00,
2013-02-09 09:41:00,16.3,6.3,29.65,SSE,158,2.7,3.4,64,0.00,,,0.00,VWS V14.01,2013-02-09 14:41:00,
2013-02-09 09:42:00,16.3,6.3,29.65,ESE,112,0.0,3.6,64,0.00,,,0.00,VWS V14.01,2013-02-09 14:42:00,
2013-02-09 09:43:00,17.6,7.8,29.65,SSW,202,1.1,1.6,65,0.00,,,0.00,VWS V14.01,2013-02-09 14:43:00,
2013-02-09 09:44:00,17.6,7.8,29.65,SSE,158,2.7,4.3,65,0.00,,,0.00,VWS V14.01,2013-02-09 14:44:00,
2013-02-09 09:45:00,17.6,7.8,29.65,SE,135,2.7,2.7,65,0.00,,,0.00,VWS V14.01,2013-02-09 14:45:00,
2013-02-09 09:46:00,17.6,7.8,29.65,SE,135,1.6,2.7,65,0.00,,,0.00,VWS V14.01,2013-02-09 14:46:00,
2013-02-09 09:47:00,17.6,7.8,29.65,SSE,158,1.3,1.6,65,0.00,,,0.00,VWS V14.01,2013-02-09 14:47:00,
2013-02-09 09:49:00,17.6,7.8,29.65,South,180,2.5,5.8,65,0.00,,,32.47,VWS V14.01,2013-02-09 14:49:00,
2013-02-09 09:50:00,17.6,7.8,29.65,SSE,158,3.1,3.1,65,0.00,,,32.47,VWS V14.01,2013-02-09 14:50:00,
2013-02-09 09:51:00,17.6,7.8,29.65,SSE,158,3.1,3.1,65,0.00,,,32.47,VWS V14.01,2013-02-09 14:51:00,
2013-02-09 09:52:00,17.4,7.3,29.65,NNE,22,1.3,3.1,64,0.00,,,32.47,VWS V14.01,2013-02-09 14:52:00,
2013-02-09 09:53:00,17.8,7.3,29.65,SSE,158,4.0,4.0,63,0.00,,,32.47,VWS V14.01,2013-02-09 14:53:00,
2013-02-09 09:55:00,18.1,7.7,29.65,ESE,112,2.5,2.5,63,0.00,,,32.47,VWS V14.01,2013-02-09 14:55:00,
2013-02-09 09:56:00,18.1,7.7,29.65,ESE,112,2.5,2.5,63,0.00,,,32.47,VWS V14.01,2013-02-09 14:56:00,
2013-02-09 09:57:00,18.1,7.7,29.65,ESE,112,2.5,3.4,63,0.00,,,32.47,VWS V14.01,2013-02-09 14:57:00,
2013-02-09 09:58:00,19.8,8.9,29.65,ESE,112,2.7,3.4,62,0.00,,,32.47,VWS V14.01,2013-02-09 14:58:00,
2013-02-09 09:59:00,20.1,9.2,29.65,SSE,158,1.3,2.7,62,0.00,,,32.47,VWS V14.01,2013-02-09 14:59:00,
2013-02-09 10:00:00,20.3,8.6,29.65,SE,135,2.2,2.7,60,0.00,,,32.47,VWS V14.01,2013-02-09 15:00:00,
2013-02-09 10:01:00,20.3,8.6,29.65,SE,135,0.0,2.7,60,0.00,,,32.47,VWS V14.01,2013-02-09 15:01:00,
2013-02-09 10:02:00,20.8,9.5,29.65,South,180,2.7,2.7,61,0.00,,,32.47,VWS V14.01,2013-02-09 15:02:00,
2013-02-09 10:05:00,20.8,9.5,29.65,South,180,0.0,2.9,61,0.00,,,32.47,VWS V14.01,2013-02-09 15:05:00,
2013-02-09 10:06:00,21.2,10.2,29.65,South,180,0.0,2.9,62,0.00,,,32.47,VWS V14.01,2013-02-09 15:06:00,
2013-02-09 10:07:00,21.2,10.2,29.65,South,180,0.0,0.0,62,0.00,,,32.47,VWS V14.01,2013-02-09 15:07:00,
2013-02-09 10:08:00,21.2,9.9,29.65,WSW,248,2.2,2.9,61,0.00,,,32.47,VWS V14.01,2013-02-09 15:08:00,
2013-02-09 10:09:00,21.2,9.9,29.65,SE,135,0.0,2.5,61,0.00,,,32.47,VWS V14.01,2013-02-09 15:09:00,
2013-02-09 10:10:00,21.6,9.8,29.65,SSW,202,2.9,2.9,60,0.00,,,32.47,VWS V14.01,2013-02-09 15:10:00,
2013-02-09 10:11:00,21.6,9.8,29.65,SSW,202,2.9,2.9,60,0.00,,,32.47,VWS V14.01,2013-02-09 15:11:00,
2013-02-09 10:13:00,21.9,9.0,29.65,South,180,4.0,4.0,57,0.00,,,32.47,VWS V14.01,2013-02-09 15:13:00,
2013-02-09 10:14:00,21.7,8.1,29.65,SSE,158,3.4,4.3,55,0.00,,,32.47,VWS V14.01,2013-02-09 15:14:00,
2013-02-09 10:15:00,21.2,7.2,29.65,SSW,202,5.8,10.3,54,0.00,,,32.47,VWS V14.01,2013-02-09 15:15:00,
2013-02-09 10:16:00,21.2,7.2,29.65,SSW,202,4.7,10.3,54,0.00,,,32.47,VWS V14.01,2013-02-09 15:16:00,
2013-02-09 10:17:00,21.2,7.2,29.65,South,180,5.6,5.6,54,0.00,,,32.47,VWS V14.01,2013-02-09 15:17:00,
2013-02-09 10:18:00,21.2,7.6,29.65,SSW,202,2.5,5.6,55,0.00,,,32.47,VWS V14.01,2013-02-09 15:18:00,
2013-02-09 10:19:00,21.2,7.6,29.65,South,180,2.7,2.7,55,0.00,,,32.47,VWS V14.01,2013-02-09 15:19:00,
2013-02-09 10:20:00,21.4,7.3,29.65,SSW,202,4.9,6.7,54,0.00,,,32.47,VWS V14.01,2013-02-09 15:20:00,
2013-02-09 10:21:00,21.4,7.3,29.65,SSW,202,4.9,6.7,54,0.00,,,32.47,VWS V14.01,2013-02-09 15:21:00,
2013-02-09 10:22:00,21.4,6.9,29.65,South,180,4.0,4.9,53,0.00,,,32.47,VWS V14.01,2013-02-09 15:22:00,
2013-02-09 10:23:00,21.4,6.9,29.65,WSW,248,1.6,5.8,53,0.00,,,32.47,VWS V14.01,2013-02-09 15:23:00,
2013-02-09 10:24:00,21.9,7.8,29.65,South,180,6.3,6.3,54,0.00,,,32.47,VWS V14.01,2013-02-09 15:24:00,
2013-02-09 10:25:00,21.7,7.3,29.65,WSW,248,3.8,8.5,53,0.00,,,32.47,VWS V14.01,2013-02-09 15:25:00,
2013-02-09 10:26:00,21.7,7.3,29.65,South,180,3.8,3.8,53,0.00,,,32.47,VWS V14.01,2013-02-09 15:26:00,
2013-02-09 10:27:00,21.7,7.3,29.65,WSW,248,2.0,2.0,53,0.00,,,32.47,VWS V14.01,2013-02-09 15:27:00,
2013-02-09 10:28:00,21.6,7.1,29.65,WSW,248,2.0,4.3,53,0.00,,,32.47,VWS V14.01,2013-02-09 15:28:00,
2013-02-09 10:29:00,21.7,7.3,29.65,South,180,5.8,6.3,53,0.00,,,32.47,VWS V14.01,2013-02-09 15:29:00,
2013-02-09 10:30:00,21.9,7.4,29.65,SSW,202,2.0,6.0,53,0.00,,,32.47,VWS V14.01,2013-02-09 15:30:00,
2013-02-09 10:31:00,22.3,7.8,29.65,South,180,2.9,2.9,53,0.00,,,32.47,VWS V14.01,2013-02-09 15:31:00,
2013-02-09 10:32:00,22.3,7.8,29.65,South,180,2.9,2.9,53,0.00,,,32.47,VWS V14.01,2013-02-09 15:32:00,
2013-02-09 10:33:00,22.3,7.8,29.65,SSW,202,11.0,11.0,53,0.00,,,32.47,VWS V14.01,2013-02-09 15:33:00,
2013-02-09 10:34:00,22.3,7.8,29.65,SSW,202,5.6,11.0,53,0.00,,,32.47,VWS V14.01,2013-02-09 15:34:00,
2013-02-09 10:35:00,22.5,7.5,29.65,ESE,112,4.3,5.6,52,0.00,,,32.47,VWS V14.01,2013-02-09 15:35:00,
2013-02-09 10:36:00,22.3,7.3,29.65,South,180,4.3,6.0,52,0.00,,,32.47,VWS V14.01,2013-02-09 15:36:00,
2013-02-09 10:37:00,22.1,7.2,29.62,SSW,202,8.7,10.5,52,0.00,,,32.47,VWS V14.01,2013-02-09 15:37:00,
2013-02-09 10:38:00,22.1,7.2,29.62,SSW,202,5.6,8.7,52,0.00,,,32.47,VWS V14.01,2013-02-09 15:38:00,
2013-02-09 10:39:00,21.9,7.0,29.62,SSE,158,3.4,5.6,52,0.00,,,32.47,VWS V14.01,2013-02-09 15:39:00,
2013-02-09 10:40:00,22.5,7.5,29.62,SSE,158,3.4,6.7,52,0.00,,,32.47,VWS V14.01,2013-02-09 15:40:00,
2013-02-09 10:41:00,22.5,7.5,29.62,SSE,158,3.4,6.7,52,0.00,,,32.47,VWS V14.01,2013-02-09 15:41:00,
2013-02-09 10:42:00,22.5,7.5,29.62,WSW,248,2.5,3.4,52,0.00,,,32.47,VWS V14.01,2013-02-09 15:42:00,
2013-02-09 10:43:00,23.4,8.4,29.62,SSE,158,4.0,6.5,52,0.00,,,32.47,VWS V14.01,2013-02-09 15:43:00,
2013-02-09 10:45:00,23.0,7.6,29.62,SW,225,1.3,6.0,51,0.00,,,32.47,VWS V14.01,2013-02-09 15:45:00,
2013-02-09 10:46:00,23.5,8.5,29.62,West,270,2.5,2.5,52,0.00,,,32.47,VWS V14.01,2013-02-09 15:46:00,
2013-02-09 10:47:00,23.7,8.7,29.62,SSW,202,3.6,3.6,52,0.00,,,32.47,VWS V14.01,2013-02-09 15:47:00,
2013-02-09 10:48:00,23.4,7.9,29.62,WSW,248,2.9,4.7,51,0.00,,,32.47,VWS V14.01,2013-02-09 15:48:00,
2013-02-09 10:49:00,23.5,8.1,29.62,South,180,0.0,2.9,51,0.00,,,32.47,VWS V14.01,2013-02-09 15:49:00,
2013-02-09 10:50:00,24.1,9.0,29.62,SSW,202,7.4,7.4,52,0.00,,,32.47,VWS V14.01,2013-02-09 15:50:00,
2013-02-09 10:51:00,23.7,7.8,29.62,SSW,202,3.1,3.1,50,0.00,,,32.47,VWS V14.01,2013-02-09 15:51:00,
2013-02-09 10:52:00,23.7,7.4,29.62,South,180,2.7,5.4,49,0.00,,,32.47,VWS V14.01,2013-02-09 15:52:00,
2013-02-09 10:53:00,23.7,7.4,29.62,SE,135,3.6,5.4,49,0.00,,,32.47,VWS V14.01,2013-02-09 15:53:00,
2013-02-09 10:54:00,23.9,7.5,29.62,SSE,158,1.3,4.3,49,0.00,,,32.47,VWS V14.01,2013-02-09 15:54:00,
2013-02-09 10:55:00,24.1,7.7,29.62,SSW,202,6.3,6.3,49,0.00,,,32.47,VWS V14.01,2013-02-09 15:55:00,
2013-02-09 10:56:00,24.3,7.9,29.62,SSW,202,4.0,4.3,49,0.00,,,32.47,VWS V14.01,2013-02-09 15:56:00,
2013-02-09 10:57:00,24.3,7.9,29.62,SSE,158,5.6,6.5,49,0.00,,,32.47,VWS V14.01,2013-02-09 15:57:00,
2013-02-09 10:58:00,24.1,7.2,29.62,SW,225,3.1,5.6,48,0.00,,,32.47,VWS V14.01,2013-02-09 15:58:00,
2013-02-09 10:59:00,24.1,7.2,29.62,SSW,202,4.0,4.3,48,0.00,,,32.47,VWS V14.01,2013-02-09 15:59:00,
2013-02-09 11:00:00,24.1,7.2,29.62,SSW,202,4.9,7.6,48,0.00,,,32.47,VWS V14.01,2013-02-09 16:00:00,
2013-02-09 11:01:00,23.9,7.1,29.62,SSE,158,4.7,7.4,48,0.00,,,32.47,VWS V14.01,2013-02-09 16:01:00,
2013-02-09 11:02:00,23.9,7.1,29.62,South,180,3.1,4.7,48,0.00,,,32.47,VWS V14.01,2013-02-09 16:02:00,
2013-02-09 11:03:00,23.7,6.9,29.62,SE,135,8.1,8.1,48,0.00,,,32.47,VWS V14.01,2013-02-09 16:03:00,
2013-02-09 11:04:00,23.9,7.1,29.62,SSE,158,3.8,8.1,48,0.00,,,32.47,VWS V14.01,2013-02-09 16:04:00,
2013-02-09 11:05:00,23.7,6.9,29.62,SW,225,5.8,7.8,48,0.00,,,32.47,VWS V14.01,2013-02-09 16:05:00,
2013-02-09 11:06:00,23.5,6.8,29.62,SSE,158,4.0,4.0,48,0.00,,,32.47,VWS V14.01,2013-02-09 16:06:00,
2013-02-09 11:07:00,23.7,6.9,29.62,SSW,202,5.6,5.6,48,0.00,,,32.47,VWS V14.01,2013-02-09 16:07:00,
2013-02-09 11:08:00,23.7,6.9,29.62,WSW,248,1.6,5.6,48,0.00,,,32.47,VWS V14.01,2013-02-09 16:08:00,
2013-02-09 11:09:00,23.7,6.9,29.62,SSE,158,10.1,10.1,48,0.00,,,32.47,VWS V14.01,2013-02-09 16:09:00,
2013-02-09 11:10:00,23.7,6.9,29.62,SSW,202,4.0,10.1,48,0.00,,,32.47,VWS V14.01,2013-02-09 16:10:00,
2013-02-09 11:11:00,24.4,7.6,29.62,SSE,158,1.6,4.9,48,0.00,,,32.47,VWS V14.01,2013-02-09 16:11:00,
2013-02-09 11:12:00,24.4,7.6,29.62,WNW,292,2.7,4.9,48,0.00,,,32.47,VWS V14.01,2013-02-09 16:12:00,
2013-02-09 11:13:00,25.0,8.1,29.62,SE,135,3.8,3.8,48,0.00,,,32.47,VWS V14.01,2013-02-09 16:13:00,
2013-02-09 11:14:00,25.0,7.6,29.62,SSW,202,6.0,6.0,47,0.00,,,32.47,VWS V14.01,2013-02-09 16:14:00,
2013-02-09 11:15:00,24.3,6.9,29.62,SSE,158,2.9,12.1,47,0.00,,,32.47,VWS V14.01,2013-02-09 16:15:00,
2013-02-09 11:16:00,24.3,6.9,29.62,SSE,158,4.0,8.7,47,0.00,,,32.47,VWS V14.01,2013-02-09 16:16:00,
2013-02-09 11:17:00,24.3,6.9,29.62,SSE,158,4.0,8.7,47,0.00,,,32.47,VWS V14.01,2013-02-09 16:17:00,
2013-02-09 11:18:00,24.3,6.9,29.62,South,180,5.6,5.8,47,0.00,,,32.47,VWS V14.01,2013-02-09 16:18:00,
2013-02-09 11:19:00,24.3,6.9,29.62,SSE,158,5.6,8.7,47,0.00,,,32.47,VWS V14.01,2013-02-09 16:19:00,
2013-02-09 11:20:00,24.3,6.9,29.62,SW,225,2.9,7.6,47,0.00,,,32.47,VWS V14.01,2013-02-09 16:20:00,
2013-02-09 11:21:00,24.4,7.1,29.62,SSE,158,10.3,10.3,47,0.00,,,32.47,VWS V14.01,2013-02-09 16:21:00,
2013-02-09 11:22:00,24.4,7.1,29.62,SSW,202,6.3,10.3,47,0.00,,,32.47,VWS V14.01,2013-02-09 16:22:00,
2013-02-09 11:23:00,24.4,7.1,29.62,South,180,3.1,6.3,47,0.00,,,32.47,VWS V14.01,2013-02-09 16:23:00,
2013-02-09 11:24:00,24.4,7.1,29.62,SSW,202,5.4,5.6,47,0.00,,,32.47,VWS V14.01,2013-02-09 16:24:00,
2013-02-09 11:25:00,24.4,7.1,29.62,South,180,3.8,5.8,47,0.00,,,32.47,VWS V14.01,2013-02-09 16:25:00,
2013-02-09 11:26:00,24.3,6.9,29.62,South,180,10.3,10.3,47,0.00,,,32.47,VWS V14.01,2013-02-09 16:26:00,
2013-02-09 11:27:00,24.3,6.9,29.62,SSE,158,3.4,10.3,47,0.00,,,32.47,VWS V14.01,2013-02-09 16:27:00,
2013-02-09 11:28:00,25.2,7.8,29.62,SSE,158,2.2,7.2,47,0.00,,,32.47,VWS V14.01,2013-02-09 16:28:00,
2013-02-09 11:29:00,25.2,7.8,29.62,SSW,202,4.9,4.9,47,0.00,,,32.47,VWS V14.01,2013-02-09 16:29:00,
2013-02-09 11:30:00,25.7,8.3,29.62,SSE,158,2.0,4.9,47,0.00,,,32.47,VWS V14.01,2013-02-09 16:30:00,
2013-02-09 11:31:00,25.5,8.1,29.62,South,180,6.0,6.0,47,0.00,,,32.47,VWS V14.01,2013-02-09 16:31:00,
2013-02-09 11:32:00,25.3,7.5,29.62,SSE,158,2.9,8.5,46,0.00,,,32.47,VWS V14.01,2013-02-09 16:32:00,
2013-02-09 11:33:00,25.3,7.5,29.62,SSW,202,5.8,5.8,46,0.00,,,32.47,VWS V14.01,2013-02-09 16:33:00,
2013-02-09 11:34:00,25.0,7.1,29.62,South,180,8.5,8.5,46,0.00,,,32.47,VWS V14.01,2013-02-09 16:34:00,
2013-02-09 11:35:00,24.4,6.6,29.62,SSE,158,10.7,11.0,46,0.00,,,32.47,VWS V14.01,2013-02-09 16:35:00,
2013-02-09 11:36:00,24.4,7.1,29.62,South,180,2.9,10.7,47,0.00,,,32.47,VWS V14.01,2013-02-09 16:36:00,
2013-02-09 11:37:00,25.3,7.9,29.59,South,180,4.3,4.3,47,0.00,,,32.47,VWS V14.01,2013-02-09 16:37:00,
2013-02-09 11:40:00,25.9,8.4,29.59,SSE,158,5.6,5.6,47,0.00,,,32.47,VWS V14.01,2013-02-09 16:40:00,
2013-02-09 11:41:00,25.5,7.6,29.59,SSE,158,4.5,8.5,46,0.00,,,32.47,VWS V14.01,2013-02-09 16:41:00,
2013-02-09 11:42:00,26.1,8.1,29.59,SSW,202,2.5,2.9,46,0.00,,,32.47,VWS V14.01,2013-02-09 16:42:00,
2013-02-09 11:43:00,26.6,8.6,29.59,South,180,5.6,5.6,46,0.00,,,32.47,VWS V14.01,2013-02-09 16:43:00,
2013-02-09 11:45:00,26.8,8.3,29.59,SW,225,4.0,4.3,45,0.00,,,32.47,VWS V14.01,2013-02-09 16:45:00,
2013-02-09 11:46:00,26.4,8.0,29.59,SSE,158,3.6,10.5,45,0.00,,,32.47,VWS V14.01,2013-02-09 16:46:00,
2013-02-09 11:47:00,26.4,8.0,29.59,SSW,202,3.1,5.4,45,0.00,,,32.47,VWS V14.01,2013-02-09 16:47:00,
2013-02-09 11:48:00,25.7,7.3,29.59,SSW,202,6.3,8.1,45,0.00,,,32.47,VWS V14.01,2013-02-09 16:48:00,
2013-02-09 11:49:00,25.7,7.3,29.59,SSE,158,2.0,9.2,45,0.00,,,32.47,VWS V14.01,2013-02-09 16:49:00,
2013-02-09 11:50:00,25.7,7.3,29.59,SW,225,0.0,2.0,45,0.00,,,32.47,VWS V14.01,2013-02-09 16:50:00,
2013-02-09 11:51:00,25.7,7.3,29.59,SW,225,4.9,4.9,45,0.00,,,32.47,VWS V14.01,2013-02-09 16:51:00,
2013-02-09 11:52:00,26.6,8.1,29.59,SSE,158,3.4,4.9,45,0.00,,,32.47,VWS V14.01,2013-02-09 16:52:00,
2013-02-09 11:53:00,26.2,7.8,29.62,SSW,202,4.5,8.5,45,0.00,,,32.47,VWS V14.01,2013-02-09 16:53:00,
2013-02-09 11:54:00,26.1,7.6,29.62,South,180,9.6,9.6,45,0.00,,,32.47,VWS V14.01,2013-02-09 16:54:00,
2013-02-09 11:55:00,26.1,7.6,29.62,SSW,202,4.3,9.6,45,0.00,,,32.47,VWS V14.01,2013-02-09 16:55:00,
2013-02-09 11:56:00,26.2,7.8,29.62,SSE,158,4.9,5.4,45,0.00,,,32.47,VWS V14.01,2013-02-09 16:56:00,
2013-02-09 11:57:00,26.2,7.8,29.62,SW,225,3.4,6.5,45,0.00,,,32.47,VWS V14.01,2013-02-09 16:57:00,
2013-02-09 11:58:00,26.4,8.0,29.62,SSW,202,1.3,4.9,45,0.00,,,32.47,VWS V14.01,2013-02-09 16:58:00,
2013-02-09 11:59:00,26.2,7.8,29.62,SSW,202,5.4,5.4,45,0.00,,,32.47,VWS V14.01,2013-02-09 16:59:00,
2013-02-09 12:00:00,26.6,8.1,29.62,SSE,158,3.4,5.6,45,0.00,,,32.47,VWS V14.01,2013-02-09 17:00:00,
2013-02-09 12:01:00,26.8,8.3,29.62,SSW,202,3.8,7.4,45,0.00,,,32.47,VWS V14.01,2013-02-09 17:01:00,
2013-02-09 12:02:00,26.8,8.3,29.62,SSW,202,3.8,3.8,45,0.00,,,32.47,VWS V14.01,2013-02-09 17:02:00,
2013-02-09 12:03:00,26.1,7.6,29.62,SSE,158,10.7,10.7,45,0.00,,,32.47,VWS V14.01,2013-02-09 17:03:00,
2013-02-09 12:04:00,25.9,7.5,29.62,SW,225,6.5,10.7,45,0.00,,,32.47,VWS V14.01,2013-02-09 17:04:00,
2013-02-09 12:05:00,25.9,7.5,29.62,SSW,202,5.4,6.5,45,0.00,,,32.47,VWS V14.01,2013-02-09 17:05:00,
2013-02-09 12:06:00,25.9,7.5,29.62,SSW,202,4.0,6.5,45,0.00,,,32.47,VWS V14.01,2013-02-09 17:06:00,
2013-02-09 12:07:00,25.3,7.0,29.62,SSW,202,6.5,11.0,45,0.00,,,32.47,VWS V14.01,2013-02-09 17:07:00,
2013-02-09 12:08:00,25.3,7.0,29.62,SSW,202,7.6,7.6,45,0.00,,,32.47,VWS V14.01,2013-02-09 17:08:00,
2013-02-09 12:09:00,25.3,7.0,29.62,SSW,202,6.5,7.6,45,0.00,,,32.47,VWS V14.01,2013-02-09 17:09:00,
2013-02-09 12:10:00,25.5,7.2,29.62,SSW,202,4.7,6.5,45,0.00,,,32.47,VWS V14.01,2013-02-09 17:10:00,
2013-02-09 12:11:00,26.1,7.6,29.62,SSW,202,4.0,4.7,45,0.00,,,32.47,VWS V14.01,2013-02-09 17:11:00,
2013-02-09 12:12:00,26.1,7.6,29.62,SW,225,3.8,4.0,45,0.00,,,32.47,VWS V14.01,2013-02-09 17:12:00,
2013-02-09 12:13:00,26.1,7.6,29.62,SE,135,3.8,4.9,45,0.00,,,32.47,VWS V14.01,2013-02-09 17:13:00,
2013-02-09 12:14:00,26.2,7.8,29.62,SSW,202,3.6,8.7,45,0.00,,,32.47,VWS V14.01,2013-02-09 17:14:00,
2013-02-09 12:15:00,26.2,7.8,29.62,SSW,202,4.9,4.9,45,0.00,,,32.47,VWS V14.01,2013-02-09 17:15:00,
2013-02-09 12:16:00,26.8,7.8,29.62,SSE,158,5.6,7.8,44,0.00,,,32.47,VWS V14.01,2013-02-09 17:16:00,
2013-02-09 12:17:00,27.3,8.8,29.62,SSW,202,5.4,5.4,45,0.00,,,32.47,VWS V14.01,2013-02-09 17:17:00,
2013-02-09 12:18:00,27.1,8.1,29.62,SSW,202,8.7,8.7,44,0.00,,,32.47,VWS V14.01,2013-02-09 17:18:00,
2013-02-09 12:19:00,26.8,7.8,29.62,SSW,202,10.5,10.5,44,0.00,,,32.47,VWS V14.01,2013-02-09 17:19:00,
2013-02-09 12:20:00,26.4,7.5,29.62,South,180,7.2,10.5,44,0.00,,,32.47,VWS V14.01,2013-02-09 17:20:00,
2013-02-09 12:21:00,26.4,7.5,29.62,SSE,158,6.0,8.7,44,0.00,,,32.47,VWS V14.01,2013-02-09 17:21:00,
2013-02-09 12:22:00,25.9,7.0,29.62,SSW,202,6.0,6.0,44,0.00,,,32.47,VWS V14.01,2013-02-09 17:22:00,
2013-02-09 12:23:00,26.2,7.8,29.62,South,180,3.1,6.0,45,0.00,,,32.47,VWS V14.01,2013-02-09 17:23:00,
2013-02-09 12:24:00,26.1,7.6,29.62,SSW,202,12.3,12.3,45,0.00,,,32.47,VWS V14.01,2013-02-09 17:24:00,
2013-02-09 12:25:00,26.1,7.6,29.62,SSW,202,2.7,12.3,45,0.00,,,32.47,VWS V14.01,2013-02-09 17:25:00,
2013-02-09 12:26:00,26.2,7.8,29.62,SW,225,12.1,12.1,45,0.00,,,32.47,VWS V14.01,2013-02-09 17:26:00,
2013-02-09 12:27:00,26.6,8.1,29.62,SW,225,6.5,7.2,45,0.00,,,32.47,VWS V14.01,2013-02-09 17:27:00,
2013-02-09 12:28:00,26.6,8.1,29.62,SW,225,6.5,7.2,45,0.00,,,32.47,VWS V14.01,2013-02-09 17:28:00,
2013-02-09 12:29:00,26.8,7.8,29.62,SSW,202,6.3,6.5,44,0.00,,,32.47,VWS V14.01,2013-02-09 17:29:00,
2013-02-09 12:30:00,27.0,8.0,29.62,SSW,202,5.6,6.3,44,0.00,,,32.47,VWS V14.01,2013-02-09 17:30:00,
2013-02-09 12:32:00,27.7,8.6,29.62,SSW,202,5.6,5.6,44,0.00,,,32.47,VWS V14.01,2013-02-09 17:32:00,
2013-02-09 12:33:00,27.1,8.1,29.62,SSW,202,6.3,7.6,44,0.00,,,32.47,VWS V14.01,2013-02-09 17:33:00,
2013-02-09 12:34:00,27.3,8.3,29.62,South,180,4.0,6.5,44,0.00,,,32.47,VWS V14.01,2013-02-09 17:34:00,
2013-02-09 12:35:00,27.0,8.0,29.62,SW,225,2.2,12.1,44,0.00,,,32.47,VWS V14.01,2013-02-09 17:35:00,
2013-02-09 12:36:00,27.5,8.5,29.62,SE,135,5.4,9.4,44,0.00,,,32.47,VWS V14.01,2013-02-09 17:36:00,
2013-02-09 12:37:00,27.5,8.5,29.59,SSW,202,5.4,5.8,44,0.00,,,32.47,VWS V14.01,2013-02-09 17:37:00,
2013-02-09 12:38:00,27.3,8.3,29.59,SSW,202,3.4,5.8,44,0.00,,,32.47,VWS V14.01,2013-02-09 17:38:00,
2013-02-09 12:39:00,27.3,8.3,29.59,SSE,158,6.0,6.0,44,0.00,,,32.47,VWS V14.01,2013-02-09 17:39:00,
2013-02-09 12:41:00,27.9,8.8,29.59,South,180,3.8,6.5,44,0.00,,,32.47,VWS V14.01,2013-02-09 17:41:00,
2013-02-09 12:42:00,28.4,9.3,29.59,SSE,158,2.0,2.9,44,0.00,,,32.47,VWS V14.01,2013-02-09 17:42:00,
2013-02-09 12:43:00,28.4,9.3,29.59,SSE,158,4.0,4.3,44,0.00,,,32.47,VWS V14.01,2013-02-09 17:43:00,
2013-02-09 12:44:00,28.4,9.3,29.59,South,180,3.1,4.0,44,0.00,,,32.47,VWS V14.01,2013-02-09 17:44:00,
2013-02-09 12:45:00,29.1,9.4,29.59,SSW,202,3.8,7.6,43,0.00,,,32.47,VWS V14.01,2013-02-09 17:45:00,
2013-02-09 12:46:00,28.2,8.6,29.59,South,180,9.6,9.6,43,0.00,,,32.47,VWS V14.01,2013-02-09 17:46:00,
2013-02-09 12:47:00,28.2,8.6,29.59,South,180,6.3,6.3,43,0.00,,,32.47,VWS V14.01,2013-02-09 17:47:00,
2013-02-09 12:48:00,27.9,8.3,29.59,SSW,202,5.8,6.5,43,0.00,,,32.47,VWS V14.01,2013-02-09 17:48:00,
2013-02-09 12:49:00,27.9,8.3,29.59,SW,225,2.7,5.8,43,0.00,,,32.47,VWS V14.01,2013-02-09 17:49:00,
2013-02-09 12:50:00,27.9,8.3,29.59,SSW,202,2.0,3.8,43,0.00,,,32.47,VWS V14.01,2013-02-09 17:50:00,
2013-02-09 12:51:00,27.9,8.3,29.59,South,180,5.6,5.6,43,0.00,,,32.47,VWS V14.01,2013-02-09 17:51:00,
2013-02-09 12:52:00,27.9,8.3,29.59,East,90,2.2,3.8,43,0.00,,,32.47,VWS V14.01,2013-02-09 17:52:00,
2013-02-09 12:55:00,27.9,8.3,29.59,SSE,158,5.6,5.6,43,0.00,,,32.47,VWS V14.01,2013-02-09 17:55:00,
2013-02-09 12:56:00,27.9,8.3,29.59,SE,135,8.5,8.5,43,0.00,,,32.47,VWS V14.01,2013-02-09 17:56:00,
2013-02-09 12:57:00,29.8,9.6,29.59,South,180,8.1,8.1,42,0.00,,,32.47,VWS V14.01,2013-02-09 17:57:00,
2013-02-09 12:58:00,29.8,9.6,29.59,South,180,8.1,8.1,42,0.00,,,32.47,VWS V14.01,2013-02-09 17:58:00,
2013-02-09 13:00:00,29.1,8.9,29.59,SSW,202,4.0,9.6,42,0.00,,,32.47,VWS V14.01,2013-02-09 18:00:00,
2013-02-09 13:01:00,28.9,8.7,29.59,South,180,6.5,6.5,42,0.00,,,32.47,VWS V14.01,2013-02-09 18:01:00,
2013-02-09 13:02:00,28.9,8.7,29.59,South,180,8.7,8.7,42,0.00,,,32.47,VWS V14.01,2013-02-09 18:02:00,
2013-02-09 13:03:00,28.6,8.4,29.59,South,180,4.0,8.7,42,0.00,,,32.47,VWS V14.01,2013-02-09 18:03:00,
2013-02-09 13:04:00,28.2,8.1,29.59,SSW,202,3.1,7.4,42,0.00,,,32.47,VWS V14.01,2013-02-09 18:04:00,
2013-02-09 13:05:00,28.4,8.2,29.59,South,180,3.6,7.4,42,0.00,,,32.47,VWS V14.01,2013-02-09 18:05:00,
2013-02-09 13:06:00,28.6,8.4,29.59,WSW,248,4.3,4.3,42,0.00,,,32.47,VWS V14.01,2013-02-09 18:06:00,
2013-02-09 13:07:00,28.2,8.1,29.59,South,180,3.4,6.3,42,0.00,,,32.47,VWS V14.01,2013-02-09 18:07:00,
2013-02-09 13:08:00,28.2,8.1,29.59,SSW,202,3.6,6.3,42,0.00,,,32.47,VWS V14.01,2013-02-09 18:08:00,
2013-02-09 13:09:00,28.2,8.1,29.59,WSW,248,6.3,6.3,42,0.00,,,32.47,VWS V14.01,2013-02-09 18:09:00,
2013-02-09 13:11:00,28.2,8.1,29.59,SW,225,4.7,6.3,42,0.00,,,32.47,VWS V14.01,2013-02-09 18:11:00,
2013-02-09 13:12:00,28.8,8.6,29.59,SSW,202,3.8,4.0,42,0.00,,,32.47,VWS V14.01,2013-02-09 18:12:00,
2013-02-09 13:13:00,28.8,8.6,29.59,SSW,202,1.6,4.0,42,0.00,,,32.47,VWS V14.01,2013-02-09 18:13:00,
2013-02-09 13:14:00,28.9,8.7,29.59,WSW,248,5.8,5.8,42,0.00,,,32.47,VWS V14.01,2013-02-09 18:14:00,
2013-02-09 13:15:00,29.3,9.1,29.59,SSW,202,4.9,5.8,42,0.00,,,32.47,VWS V14.01,2013-02-09 18:15:00,
2013-02-09 13:16:00,29.5,9.2,29.59,WSW,248,3.1,4.9,42,0.00,,,32.47,VWS V14.01,2013-02-09 18:16:00,
2013-02-09 13:17:00,29.5,9.2,29.59,SW,225,5.4,5.4,42,0.00,,,32.47,VWS V14.01,2013-02-09 18:17:00,
2013-02-09 13:18:00,29.5,9.2,29.59,SW,225,2.2,5.4,42,0.00,,,32.47,VWS V14.01,2013-02-09 18:18:00,
2013-02-09 13:19:00,30.0,9.7,29.59,SW,225,6.5,6.5,42,0.00,,,32.47,VWS V14.01,2013-02-09 18:19:00,
2013-02-09 13:20:00,30.2,9.9,29.59,WSW,248,2.0,6.5,42,0.00,,,32.47,VWS V14.01,2013-02-09 18:20:00,
2013-02-09 13:21:00,30.0,9.2,29.59,SSW,202,4.7,4.9,41,0.00,,,32.47,VWS V14.01,2013-02-09 18:21:00,
2013-02-09 13:22:00,30.4,9.5,29.56,SSW,202,2.7,2.7,41,0.00,,,32.47,VWS V14.01,2013-02-09 18:22:00,
2013-02-09 13:23:00,30.7,9.8,29.56,SSE,158,3.4,3.4,41,0.00,,,32.47,VWS V14.01,2013-02-09 18:23:00,
2013-02-09 13:24:00,30.7,9.8,29.56,SSW,202,2.5,3.4,41,0.00,,,32.47,VWS V14.01,2013-02-09 18:24:00,
2013-02-09 13:25:00,31.6,10.6,29.56,WNW,292,2.2,3.6,41,0.00,,,32.47,VWS V14.01,2013-02-09 18:25:00,
2013-02-09 13:26:00,32.4,11.3,29.56,SW,225,3.1,3.6,41,0.00,,,32.47,VWS V14.01,2013-02-09 18:26:00,
2013-02-09 13:27:00,32.9,11.8,29.56,South,180,3.6,3.6,41,0.00,,,32.47,VWS V14.01,2013-02-09 18:27:00,
2013-02-09 13:28:00,32.9,11.8,29.56,South,180,2.7,3.6,41,0.00,,,32.47,VWS V14.01,2013-02-09 18:28:00,
2013-02-09 13:29:00,32.9,11.8,29.56,SSE,158,2.7,2.7,41,0.00,,,32.47,VWS V14.01,2013-02-09 18:29:00,
2013-02-09 13:31:00,34.2,12.9,29.56,SW,225,1.6,2.7,41,0.00,,,32.47,VWS V14.01,2013-02-09 18:31:00,
2013-02-09 13:32:00,34.2,12.4,29.56,WSW,248,3.6,4.7,40,0.00,,,32.47,VWS V14.01,2013-02-09 18:32:00,
2013-02-09 13:34:00,34.3,12.5,29.56,SW,225,1.6,4.9,40,0.00,,,32.47,VWS V14.01,2013-02-09 18:34:00,
2013-02-09 13:35:00,34.5,12.7,29.56,SW,225,2.7,2.7,40,0.00,,,32.47,VWS V14.01,2013-02-09 18:35:00,
2013-02-09 13:36:00,34.5,12.7,29.56,WSW,248,3.4,3.4,40,0.00,,,32.47,VWS V14.01,2013-02-09 18:36:00,
2013-02-09 13:37:00,34.2,12.4,29.56,WSW,248,2.0,3.8,40,0.00,,,32.47,VWS V14.01,2013-02-09 18:37:00,
2013-02-09 13:38:00,34.3,12.5,29.56,WSW,248,2.9,3.8,40,0.00,,,32.47,VWS V14.01,2013-02-09 18:38:00,
2013-02-09 13:39:00,34.3,12.5,29.56,SW,225,4.3,4.3,40,0.00,,,32.47,VWS V14.01,2013-02-09 18:39:00,
2013-02-09 13:40:00,34.2,11.8,29.56,WSW,248,3.8,4.3,39,0.00,,,32.47,VWS V14.01,2013-02-09 18:40:00,
2013-02-09 13:41:00,34.0,11.6,29.56,SW,225,5.4,5.4,39,0.00,,,32.47,VWS V14.01,2013-02-09 18:41:00,
2013-02-09 13:42:00,34.0,10.5,29.56,SW,225,4.0,5.6,37,0.00,,,32.47,VWS V14.01,2013-02-09 18:42:00,
2013-02-09 13:43:00,34.0,10.5,29.56,SW,225,3.8,5.6,37,0.00,,,32.47,VWS V14.01,2013-02-09 18:43:00,
2013-02-09 13:44:00,34.0,11.1,29.56,SSW,202,2.2,3.8,38,0.00,,,32.47,VWS V14.01,2013-02-09 18:44:00,
2013-02-09 13:45:00,34.0,11.1,29.56,WSW,248,5.4,5.4,38,0.00,,,32.47,VWS V14.01,2013-02-09 18:45:00,
2013-02-09 13:46:00,33.6,10.7,29.56,West,270,4.0,5.4,38,0.00,,,32.47,VWS V14.01,2013-02-09 18:46:00,
2013-02-09 13:47:00,33.6,10.7,29.56,WSW,248,4.0,4.9,38,0.00,,,32.47,VWS V14.01,2013-02-09 18:47:00,
2013-02-09 13:48:00,33.6,10.7,29.56,WSW,248,4.3,4.9,38,0.00,,,32.47,VWS V14.01,2013-02-09 18:48:00,
2013-02-09 13:49:00,33.6,10.7,29.56,SW,225,3.8,4.7,38,0.00,,,32.47,VWS V14.01,2013-02-09 18:49:00,
2013-02-09 13:51:00,33.3,11.0,29.56,South,180,0.9,2.7,39,0.00,,,32.47,VWS V14.01,2013-02-09 18:51:00,
2013-02-09 13:52:00,33.3,11.0,29.53,WSW,248,0.0,0.0,39,0.00,,,32.47,VWS V14.01,2013-02-09 18:52:00,
2013-02-09 13:54:00,33.1,11.4,29.53,West,270,3.6,3.6,40,0.00,,,32.47,VWS V14.01,2013-02-09 18:54:00,
2013-02-09 13:55:00,32.7,10.5,29.53,SW,225,3.1,3.6,39,0.00,,,32.47,VWS V14.01,2013-02-09 18:55:00,
2013-02-09 13:56:00,32.4,10.2,29.53,WNW,292,2.0,3.1,39,0.00,,,32.47,VWS V14.01,2013-02-09 18:56:00,
2013-02-09 13:57:00,32.4,10.2,29.53,SSW,202,2.0,4.3,39,0.00,,,32.47,VWS V14.01,2013-02-09 18:57:00,
2013-02-09 13:58:00,32.4,10.2,29.53,SSW,202,2.0,4.3,39,0.00,,,32.47,VWS V14.01,2013-02-09 18:58:00,
2013-02-09 13:59:00,31.3,9.2,29.53,SSW,202,3.1,3.1,39,0.00,,,32.47,VWS V14.01,2013-02-09 18:59:00,
2013-02-09 14:00:00,30.4,8.4,29.53,South,180,1.6,3.4,39,0.00,,,32.47,VWS V14.01,2013-02-09 19:00:00,
2013-02-09 14:01:00,30.4,8.4,29.53,SSE,158,2.5,2.9,39,0.00,,,32.47,VWS V14.01,2013-02-09 19:01:00,
2013-02-09 14:02:00,30.0,8.6,29.53,SSW,202,2.5,4.9,40,0.00,,,32.47,VWS V14.01,2013-02-09 19:02:00,
2013-02-09 14:03:00,30.0,8.6,29.53,SSW,202,2.2,4.9,40,0.00,,,32.47,VWS V14.01,2013-02-09 19:03:00,
2013-02-09 14:04:00,30.0,8.6,29.53,SSW,202,2.5,2.5,40,0.00,,,32.47,VWS V14.01,2013-02-09 19:04:00,
2013-02-09 14:05:00,30.2,8.8,29.53,SSE,158,0.9,2.5,40,0.00,,,32.47,VWS V14.01,2013-02-09 19:05:00,
2013-02-09 14:06:00,30.6,9.1,29.53,SSW,202,3.1,3.1,40,0.00,,,32.47,VWS V14.01,2013-02-09 19:06:00,
2013-02-09 14:07:00,31.5,9.9,29.56,SW,225,1.1,1.1,40,0.00,,,32.47,VWS V14.01,2013-02-09 19:07:00,
2013-02-09 14:08:00,32.0,10.4,29.56,SSW,202,0.0,1.1,40,0.00,,,32.47,VWS V14.01,2013-02-09 19:08:00,
2013-02-09 14:09:00,32.0,10.4,29.56,WSW,248,0.0,0.0,40,0.00,,,32.47,VWS V14.01,2013-02-09 19:09:00,
2013-02-09 14:10:00,32.0,10.4,29.56,SSW,202,0.0,0.0,40,0.00,,,32.47,VWS V14.01,2013-02-09 19:10:00,
2013-02-09 14:11:00,32.2,10.6,29.56,SSW,202,1.1,2.2,40,0.00,,,32.47,VWS V14.01,2013-02-09 19:11:00,
2013-02-09 14:12:00,32.5,10.9,29.56,SSW,202,0.0,0.9,40,0.00,,,32.47,VWS V14.01,2013-02-09 19:12:00,
2013-02-09 14:13:00,32.5,10.9,29.56,SSW,202,0.0,0.9,40,0.00,,,32.47,VWS V14.01,2013-02-09 19:13:00,
2013-02-09 14:15:00,32.9,11.2,29.56,SSW,202,0.0,0.0,40,0.00,,,32.47,VWS V14.01,2013-02-09 19:15:00,
2013-02-09 14:17:00,33.8,12.1,29.56,ENE,68,0.9,2.0,40,0.00,,,32.47,VWS V14.01,2013-02-09 19:17:00,
2013-02-09 14:18:00,33.8,12.1,29.56,ENE,68,0.9,2.0,40,0.00,,,32.47,VWS V14.01,2013-02-09 19:18:00,
2013-02-09 14:19:00,33.8,12.1,29.56,ENE,68,0.9,0.9,40,0.00,,,32.47,VWS V14.01,2013-02-09 19:19:00,
2013-02-09 14:20:00,33.8,12.1,29.56,ENE,68,3.1,3.1,40,0.00,,,32.47,VWS V14.01,2013-02-09 19:20:00,
2013-02-09 14:21:00,34.0,12.2,29.56,NE,45,1.1,3.1,40,0.00,,,32.47,VWS V14.01,2013-02-09 19:21:00,
2013-02-09 14:22:00,34.5,12.7,29.56,NE,45,1.6,2.5,40,0.00,,,32.47,VWS V14.01,2013-02-09 19:22:00,
2013-02-09 14:23:00,34.9,13.0,29.56,NE,45,0.0,1.6,40,0.00,,,32.47,VWS V14.01,2013-02-09 19:23:00,
2013-02-09 14:24:00,35.8,13.8,29.56,North,0,0.0,0.0,40,0.00,,,32.47,VWS V14.01,2013-02-09 19:24:00,
2013-02-09 14:25:00,36.3,14.3,29.56,WNW,292,1.6,1.6,40,0.00,,,32.47,VWS V14.01,2013-02-09 19:25:00,
2013-02-09 14:26:00,36.7,14.6,29.56,WNW,292,0.0,1.6,40,0.00,,,32.47,VWS V14.01,2013-02-09 19:26:00,
2013-02-09 14:27:00,36.3,14.3,29.56,West,270,0.0,2.9,40,0.00,,,32.47,VWS V14.01,2013-02-09 19:27:00,
2013-02-09 14:28:00,35.8,13.8,29.56,West,270,0.0,0.0,40,0.00,,,32.47,VWS V14.01,2013-02-09 19:28:00,
2013-02-09 14:29:00,35.1,13.2,29.56,ESE,112,1.3,1.3,40,0.00,,,32.47,VWS V14.01,2013-02-09 19:29:00,
2013-02-09 14:30:00,34.5,12.7,29.56,ESE,112,0.0,1.3,40,0.00,,,32.47,VWS V14.01,2013-02-09 19:30:00,
2013-02-09 14:31:00,33.4,11.7,29.56,West,270,2.7,2.7,40,0.00,,,32.47,VWS V14.01,2013-02-09 19:31:00,
2013-02-09 14:33:00,33.3,11.6,29.56,West,270,0.9,2.7,40,0.00,,,32.47,VWS V14.01,2013-02-09 19:33:00,
2013-02-09 14:34:00,32.7,11.1,29.56,South,180,0.0,2.5,40,0.00,,,32.47,VWS V14.01,2013-02-09 19:34:00,
2013-02-09 14:35:00,32.7,11.1,29.56,SE,135,0.0,0.0,40,0.00,,,32.47,VWS V14.01,2013-02-09 19:35:00,
2013-02-09 14:36:00,32.7,11.1,29.56,ESE,112,0.0,0.0,40,0.00,,,32.47,VWS V14.01,2013-02-09 19:36:00,
2013-02-09 14:37:00,32.7,11.1,29.56,ENE,68,2.0,2.0,40,0.00,,,32.47,VWS V14.01,2013-02-09 19:37:00,
2013-02-09 14:38:00,32.9,11.2,29.56,ENE,68,1.6,2.0,40,0.00,,,32.47,VWS V14.01,2013-02-09 19:38:00,
2013-02-09 14:39:00,32.9,11.2,29.56,ESE,112,2.0,2.7,40,0.00,,,32.47,VWS V14.01,2013-02-09 19:39:00,
2013-02-09 14:40:00,33.4,11.7,29.56,East,90,0.0,2.7,40,0.00,,,32.47,VWS V14.01,2013-02-09 19:40:00,
2013-02-09 14:41:00,34.0,12.2,29.56,East,90,0.0,0.0,40,0.00,,,32.47,VWS V14.01,2013-02-09 19:41:00,
2013-02-09 14:42:00,34.9,13.0,29.56,NNE,22,0.0,0.0,40,0.00,,,32.47,VWS V14.01,2013-02-09 19:42:00,
2013-02-09 14:43:00,35.4,13.5,29.56,SSW,202,0.0,0.0,40,0.00,,,32.47,VWS V14.01,2013-02-09 19:43:00,
2013-02-09 14:44:00,35.6,13.7,29.56,NNE,22,1.3,2.2,40,0.00,,,32.47,VWS V14.01,2013-02-09 19:44:00,
2013-02-09 14:45:00,36.3,13.8,29.56,NNE,22,0.0,1.3,39,0.00,,,32.47,VWS V14.01,2013-02-09 19:45:00,
2013-02-09 14:46:00,38.1,15.4,29.56,WSW,248,1.1,1.1,39,0.00,,,32.47,VWS V14.01,2013-02-09 19:46:00,
2013-02-09 14:47:00,37.9,15.2,29.56,WSW,248,2.5,2.5,39,0.00,,,32.47,VWS V14.01,2013-02-09 19:47:00,
2013-02-09 14:48:00,37.4,13.5,29.56,WSW,248,1.3,3.8,37,0.00,,,32.47,VWS V14.01,2013-02-09 19:48:00,
2013-02-09 14:49:00,36.3,11.9,29.56,WSW,248,2.9,4.3,36,0.00,,,32.47,VWS V14.01,2013-02-09 19:49:00,
2013-02-09 14:50:00,36.3,11.9,29.56,WNW,292,3.1,3.1,36,0.00,,,32.47,VWS V14.01,2013-02-09 19:50:00,
2013-02-09 14:51:00,34.9,10.6,29.56,East,90,1.6,4.0,36,0.00,,,32.47,VWS V14.01,2013-02-09 19:51:00,
2013-02-09 14:52:00,34.5,10.9,29.56,SE,135,1.1,3.4,37,0.00,,,32.47,VWS V14.01,2013-02-09 19:52:00,
2013-02-09 14:53:00,35.1,11.4,29.56,NE,45,1.1,1.3,37,0.00,,,32.47,VWS V14.01,2013-02-09 19:53:00,
2013-02-09 14:55:00,36.3,13.2,29.56,WNW,292,0.0,0.0,38,0.00,,,32.47,VWS V14.01,2013-02-09 19:55:00,
2013-02-09 14:56:00,36.3,13.2,29.56,SSW,202,0.9,1.1,38,0.00,,,32.47,VWS V14.01,2013-02-09 19:56:00,
2013-02-09 14:57:00,35.6,11.9,29.56,SW,225,4.3,4.3,37,0.00,,,32.47,VWS V14.01,2013-02-09 19:57:00,
2013-02-09 14:58:00,35.1,10.8,29.56,SSW,202,4.0,4.3,36,0.00,,,32.47,VWS V14.01,2013-02-09 19:58:00,
2013-02-09 14:59:00,34.3,10.2,29.56,SSW,202,0.9,4.0,36,0.00,,,32.47,VWS V14.01,2013-02-09 19:59:00,
2013-02-09 15:00:00,33.8,9.7,29.56,WSW,248,3.1,3.1,36,0.00,,,32.47,VWS V14.01,2013-02-09 20:00:00,
2013-02-09 15:01:00,33.4,9.4,29.56,SSW,202,2.7,3.6,36,0.00,,,32.47,VWS V14.01,2013-02-09 20:01:00,
2013-02-09 15:02:00,34.0,9.9,29.56,SSW,202,2.7,2.9,36,0.00,,,32.47,VWS V14.01,2013-02-09 20:02:00,
2013-02-09 15:03:00,35.1,11.4,29.56,SW,225,1.3,2.7,37,0.00,,,32.47,VWS V14.01,2013-02-09 20:03:00,
2013-02-09 15:04:00,35.1,11.4,29.56,South,180,4.3,4.3,37,0.00,,,32.47,VWS V14.01,2013-02-09 20:04:00,
2013-02-09 15:05:00,35.2,11.0,29.56,SSW,202,2.5,4.3,36,0.00,,,32.47,VWS V14.01,2013-02-09 20:05:00,
2013-02-09 15:06:00,35.4,11.1,29.56,SW,225,0.0,3.1,36,0.00,,,32.47,VWS V14.01,2013-02-09 20:06:00,
2013-02-09 15:07:00,35.8,11.4,29.53,SSW,202,3.8,4.0,36,0.00,,,32.47,VWS V14.01,2013-02-09 20:07:00,
2013-02-09 15:08:00,35.4,10.5,29.53,SSW,202,4.0,4.0,35,0.00,,,32.47,VWS V14.01,2013-02-09 20:08:00,
2013-02-09 15:09:00,35.4,10.5,29.53,SSW,202,3.8,4.0,35,0.00,,,32.47,VWS V14.01,2013-02-09 20:09:00,
2013-02-09 15:10:00,34.9,10.0,29.53,SSW,202,3.8,4.3,35,0.00,,,32.47,VWS V14.01,2013-02-09 20:10:00,
2013-02-09 15:11:00,34.9,10.0,29.53,South,180,6.0,6.0,35,0.00,,,32.47,VWS V14.01,2013-02-09 20:11:00,
2013-02-09 15:12:00,34.7,9.9,29.53,SSE,158,3.4,6.0,35,0.00,,,32.47,VWS V14.01,2013-02-09 20:12:00,
2013-02-09 15:13:00,34.7,9.9,29.53,South,180,3.8,3.8,35,0.00,,,32.47,VWS V14.01,2013-02-09 20:13:00,
2013-02-09 15:14:00,35.1,10.2,29.53,South,180,0.0,3.8,35,0.00,,,32.47,VWS V14.01,2013-02-09 20:14:00,
2013-02-09 15:15:00,35.1,10.2,29.53,South,180,0.0,0.0,35,0.00,,,32.47,VWS V14.01,2013-02-09 20:15:00,
2013-02-09 15:16:00,35.1,10.2,29.53,West,270,0.9,0.9,35,0.00,,,32.47,VWS V14.01,2013-02-09 20:16:00,
2013-02-09 15:17:00,33.8,9.1,29.53,SSW,202,4.0,5.8,35,0.00,,,32.47,VWS V14.01,2013-02-09 20:17:00,
2013-02-09 15:18:00,33.8,9.1,29.53,WSW,248,1.3,3.8,35,0.00,,,32.47,VWS V14.01,2013-02-09 20:18:00,
2013-02-09 15:19:00,34.2,9.4,29.53,SW,225,1.6,3.8,35,0.00,,,32.47,VWS V14.01,2013-02-09 20:19:00,
2013-02-09 15:20:00,33.8,9.1,29.53,SE,135,2.7,4.3,35,0.00,,,32.47,VWS V14.01,2013-02-09 20:20:00,
2013-02-09 15:22:00,33.6,8.9,29.50,WSW,248,2.5,4.3,35,0.00,,,32.47,VWS V14.01,2013-02-09 20:22:00,
2013-02-09 15:23:00,33.3,9.2,29.50,WSW,248,3.6,4.0,36,0.00,,,32.47,VWS V14.01,2013-02-09 20:23:00,
2013-02-09 15:24:00,33.3,9.2,29.50,WSW,248,2.9,4.0,36,0.00,,,32.47,VWS V14.01,2013-02-09 20:24:00,
2013-02-09 15:25:00,33.3,9.2,29.50,ESE,112,3.1,3.1,36,0.00,,,32.47,VWS V14.01,2013-02-09 20:25:00,
2013-02-09 15:26:00,32.9,8.3,29.50,SSE,158,4.3,4.3,35,0.00,,,32.47,VWS V14.01,2013-02-09 20:26:00,
2013-02-09 15:27:00,32.7,8.1,29.50,West,270,3.8,5.6,35,0.00,,,32.47,VWS V14.01,2013-02-09 20:27:00,
2013-02-09 15:28:00,33.1,9.1,29.50,SW,225,2.9,6.0,36,0.00,,,32.47,VWS V14.01,2013-02-09 20:28:00,
2013-02-09 15:29:00,33.1,8.4,29.50,SSW,202,5.6,6.0,35,0.00,,,32.47,VWS V14.01,2013-02-09 20:29:00,
2013-02-09 15:31:00,33.1,8.4,29.50,SSW,202,4.0,4.0,35,0.00,,,32.47,VWS V14.01,2013-02-09 20:31:00,
2013-02-09 15:33:00,32.5,7.9,29.50,SSE,158,5.4,5.6,35,0.00,,,32.47,VWS V14.01,2013-02-09 20:33:00,
2013-02-09 15:34:00,32.5,7.9,29.50,SSW,202,1.3,3.6,35,0.00,,,32.47,VWS V14.01,2013-02-09 20:34:00,
2013-02-09 15:35:00,31.8,7.3,29.50,SSW,202,2.9,6.5,35,0.00,,,32.47,VWS V14.01,2013-02-09 20:35:00,
2013-02-09 15:36:00,31.8,7.9,29.50,WSW,248,2.9,3.8,36,0.00,,,32.47,VWS V14.01,2013-02-09 20:36:00,
2013-02-09 15:38:00,31.8,7.9,29.53,SSW,202,3.6,6.0,36,0.00,,,32.47,VWS V14.01,2013-02-09 20:38:00,
2013-02-09 15:39:00,31.6,7.8,29.53,South,180,3.8,6.0,36,0.00,,,32.47,VWS V14.01,2013-02-09 20:39:00,
2013-02-09 15:41:00,31.6,7.8,29.53,SSW,202,3.8,4.0,36,0.00,,,32.47,VWS V14.01,2013-02-09 20:41:00,
2013-02-09 15:43:00,31.8,7.9,29.53,South,180,3.6,3.6,36,0.00,,,32.47,VWS V14.01,2013-02-09 20:43:00,
2013-02-09 15:45:00,32.0,8.1,29.53,SE,135,2.9,2.9,36,0.00,,,32.47,VWS V14.01,2013-02-09 20:45:00,
2013-02-09 15:46:00,32.7,8.7,29.53,SSW,202,0.9,2.9,36,0.00,,,32.47,VWS V14.01,2013-02-09 20:46:00,
2013-02-09 15:47:00,32.7,8.7,29.53,SSW,202,1.3,1.6,36,0.00,,,32.47,VWS V14.01,2013-02-09 20:47:00,
2013-02-09 15:48:00,32.5,8.6,29.53,SSW,202,0.0,2.5,36,0.00,,,32.47,VWS V14.01,2013-02-09 20:48:00,
2013-02-09 15:49:00,32.7,8.7,29.53,SSW,202,0.0,2.5,36,0.00,,,32.47,VWS V14.01,2013-02-09 20:49:00,
2013-02-09 15:50:00,32.9,8.9,29.53,SSE,158,3.4,3.4,36,0.00,,,32.47,VWS V14.01,2013-02-09 20:50:00,
2013-02-09 15:51:00,32.7,8.7,29.53,South,180,4.3,4.3,36,0.00,,,32.47,VWS V14.01,2013-02-09 20:51:00,
2013-02-09 15:52:00,32.4,8.4,29.53,East,90,2.2,4.3,36,0.00,,,32.47,VWS V14.01,2013-02-09 20:52:00,
2013-02-09 15:53:00,32.5,8.6,29.53,ENE,68,2.2,2.2,36,0.00,,,32.47,VWS V14.01,2013-02-09 20:53:00,
2013-02-09 15:55:00,32.5,9.2,29.53,SSW,202,0.0,1.6,37,0.00,,,32.47,VWS V14.01,2013-02-09 20:55:00,
2013-02-09 15:56:00,32.4,8.4,29.53,SSW,202,3.1,4.9,36,0.00,,,32.47,VWS V14.01,2013-02-09 20:56:00,
2013-02-09 15:57:00,32.4,8.4,29.53,SSW,202,3.1,5.4,36,0.00,,,32.47,VWS V14.01,2013-02-09 20:57:00,
2013-02-09 15:58:00,32.2,8.2,29.53,SSW,202,4.3,4.3,36,0.00,,,32.47,VWS V14.01,2013-02-09 20:58:00,
2013-02-09 15:59:00,32.2,8.2,29.53,SSW,202,4.3,4.3,36,0.00,,,32.47,VWS V14.01,2013-02-09 20:59:00,
2013-02-09 16:00:00,32.2,8.2,29.53,SSE,158,3.8,4.3,36,0.00,,,32.47,VWS V14.01,2013-02-09 21:00:00,
2013-02-09 16:01:00,31.8,7.9,29.53,South,180,1.3,5.6,36,0.00,,,32.47,VWS V14.01,2013-02-09 21:01:00,
2013-02-09 16:02:00,31.6,7.8,29.53,SW,225,3.8,4.0,36,0.00,,,32.47,VWS V14.01,2013-02-09 21:02:00,
2013-02-09 16:03:00,31.6,7.8,29.53,SW,225,3.6,3.6,36,0.00,,,32.47,VWS V14.01,2013-02-09 21:03:00,
2013-02-09 16:04:00,31.6,7.8,29.53,SW,225,3.6,3.6,36,0.00,,,32.47,VWS V14.01,2013-02-09 21:04:00,
2013-02-09 16:05:00,31.8,7.9,29.53,WSW,248,1.6,3.8,36,0.00,,,32.47,VWS V14.01,2013-02-09 21:05:00,
2013-02-09 16:06:00,32.0,8.1,29.53,SW,225,2.9,2.9,36,0.00,,,32.47,VWS V14.01,2013-02-09 21:06:00,
2013-02-09 16:07:00,32.0,8.1,29.50,WSW,248,2.7,2.9,36,0.00,,,32.47,VWS V14.01,2013-02-09 21:07:00,
2013-02-09 16:08:00,32.0,8.1,29.50,South,180,2.0,2.7,36,0.00,,,32.47,VWS V14.01,2013-02-09 21:08:00,
2013-02-09 16:09:00,32.0,8.1,29.50,SSW,202,3.1,3.1,36,0.00,,,32.47,VWS V14.01,2013-02-09 21:09:00,
2013-02-09 16:10:00,32.0,8.1,29.50,SSE,158,2.5,3.1,36,0.00,,,32.47,VWS V14.01,2013-02-09 21:10:00,
2013-02-09 16:11:00,32.0,8.1,29.50,South,180,2.5,3.6,36,0.00,,,32.47,VWS V14.01,2013-02-09 21:11:00,
2013-02-09 16:12:00,32.0,8.1,29.50,ESE,112,2.0,2.5,36,0.00,,,32.47,VWS V14.01,2013-02-09 21:12:00,
2013-02-09 16:13:00,32.4,8.4,29.50,East,90,2.0,2.9,36,0.00,,,32.47,VWS V14.01,2013-02-09 21:13:00,
2013-02-09 16:14:00,32.4,8.4,29.50,East,90,0.9,2.9,36,0.00,,,32.47,VWS V14.01,2013-02-09 21:14:00,
2013-02-09 16:15:00,32.7,9.3,29.50,East,90,0.0,0.9,37,0.00,,,32.47,VWS V14.01,2013-02-09 21:15:00,
2013-02-09 16:16:00,32.9,9.5,29.50,East,90,0.0,0.0,37,0.00,,,32.47,VWS V14.01,2013-02-09 21:16:00,
2013-02-09 16:17:00,33.1,9.7,29.50,East,90,0.0,0.0,37,0.00,,,32.47,VWS V14.01,2013-02-09 21:17:00,
2013-02-09 16:18:00,33.3,10.4,29.50,SSW,202,0.9,0.9,38,0.00,,,32.47,VWS V14.01,2013-02-09 21:18:00,
2013-02-09 16:19:00,33.3,10.4,29.50,South,180,0.0,0.9,38,0.00,,,32.47,VWS V14.01,2013-02-09 21:19:00,
2013-02-09 16:20:00,33.3,10.4,29.50,SSW,202,2.2,2.2,38,0.00,,,32.47,VWS V14.01,2013-02-09 21:20:00,
2013-02-09 16:21:00,33.3,10.4,29.50,SW,225,2.2,2.2,38,0.00,,,32.47,VWS V14.01,2013-02-09 21:21:00,
2013-02-09 16:22:00,33.3,10.4,29.50,SSW,202,0.0,2.2,38,0.00,,,32.47,VWS V14.01,2013-02-09 21:22:00,
2013-02-09 16:23:00,32.5,9.2,29.50,SSW,202,3.1,3.1,37,0.00,,,32.47,VWS V14.01,2013-02-09 21:23:00,
2013-02-09 16:25:00,32.5,9.2,29.50,SSW,202,2.5,3.1,37,0.00,,,32.47,VWS V14.01,2013-02-09 21:25:00,
2013-02-09 16:26:00,32.2,8.2,29.50,SW,225,0.9,2.7,36,0.00,,,32.47,VWS V14.01,2013-02-09 21:26:00,
2013-02-09 16:27:00,32.0,8.1,29.50,WSW,248,3.6,3.6,36,0.00,,,32.47,VWS V14.01,2013-02-09 21:27:00,
2013-02-09 16:28:00,32.0,8.1,29.50,SSW,202,2.0,3.6,36,0.00,,,32.47,VWS V14.01,2013-02-09 21:28:00,
2013-02-09 16:29:00,32.0,8.1,29.50,SSW,202,3.4,3.6,36,0.00,,,32.47,VWS V14.01,2013-02-09 21:29:00,
2013-02-09 16:30:00,31.8,7.9,29.50,SSW,202,3.1,3.4,36,0.00,,,32.47,VWS V14.01,2013-02-09 21:30:00,
2013-02-09 16:31:00,31.6,7.8,29.50,SSW,202,1.3,3.6,36,0.00,,,32.47,VWS V14.01,2013-02-09 21:31:00,
2013-02-09 16:33:00,32.0,8.1,29.50,South,180,0.0,0.0,36,0.00,,,32.47,VWS V14.01,2013-02-09 21:33:00,
2013-02-09 16:34:00,32.0,8.1,29.50,South,180,0.0,0.0,36,0.00,,,32.47,VWS V14.01,2013-02-09 21:34:00,
2013-02-09 16:35:00,32.0,8.7,29.50,SSW,202,1.1,1.1,37,0.00,,,32.47,VWS V14.01,2013-02-09 21:35:00,
2013-02-09 16:36:00,32.2,8.9,29.50,SSE,158,0.0,1.3,37,0.00,,,32.47,VWS V14.01,2013-02-09 21:36:00,
2013-02-09 16:37:00,32.4,9.0,29.50,SSE,158,0.0,0.0,37,0.00,,,32.47,VWS V14.01,2013-02-09 21:37:00,
2013-02-09 16:38:00,32.7,9.3,29.50,SSE,158,0.0,0.0,37,0.00,,,32.47,VWS V14.01,2013-02-09 21:38:00,
2013-02-09 16:39:00,32.7,9.3,29.50,SSE,158,0.0,0.0,37,0.00,,,32.47,VWS V14.01,2013-02-09 21:39:00,
2013-02-09 16:40:00,33.4,10.6,29.50,SSE,158,1.1,1.1,38,0.00,,,32.47,VWS V14.01,2013-02-09 21:40:00,
2013-02-09 16:41:00,33.4,10.0,29.50,South,180,4.9,4.9,37,0.00,,,32.47,VWS V14.01,2013-02-09 21:41:00,
2013-02-09 16:42:00,33.4,9.4,29.50,WSW,248,1.6,5.6,36,0.00,,,32.47,VWS V14.01,2013-02-09 21:42:00,
2013-02-09 16:43:00,33.1,9.1,29.50,SSE,158,4.5,5.4,36,0.00,,,32.47,VWS V14.01,2013-02-09 21:43:00,
2013-02-09 16:44:00,33.1,9.1,29.50,SSE,158,6.3,6.3,36,0.00,,,32.47,VWS V14.01,2013-02-09 21:44:00,
2013-02-09 16:45:00,33.1,8.4,29.50,SW,225,1.1,6.3,35,0.00,,,32.47,VWS V14.01,2013-02-09 21:45:00,
2013-02-09 16:46:00,33.3,9.2,29.50,ESE,112,4.3,4.3,36,0.00,,,32.47,VWS V14.01,2013-02-09 21:46:00,
2013-02-09 16:47:00,33.3,8.6,29.50,SSW,202,4.3,6.0,35,0.00,,,32.47,VWS V14.01,2013-02-09 21:47:00,
2013-02-09 16:48:00,33.6,9.5,29.50,SE,135,4.3,4.3,36,0.00,,,32.47,VWS V14.01,2013-02-09 21:48:00,
2013-02-09 16:49:00,33.6,9.5,29.50,SSW,202,3.4,4.3,36,0.00,,,32.47,VWS V14.01,2013-02-09 21:49:00,
2013-02-09 16:50:00,33.6,9.5,29.50,SSW,202,1.1,3.6,36,0.00,,,32.47,VWS V14.01,2013-02-09 21:50:00,
2013-02-09 16:51:00,33.8,9.1,29.50,SSW,202,1.1,2.2,35,0.00,,,32.47,VWS V14.01,2013-02-09 21:51:00,
2013-02-09 16:52:00,33.8,9.7,29.53,West,270,2.9,2.9,36,0.00,,,32.47,VWS V14.01,2013-02-09 21:52:00,
2013-02-09 16:53:00,33.8,9.1,29.53,WNW,292,0.0,1.6,35,0.00,,,32.47,VWS V14.01,2013-02-09 21:53:00,
2013-02-09 16:54:00,33.8,9.1,29.53,WNW,292,0.9,1.6,35,0.00,,,32.47,VWS V14.01,2013-02-09 21:54:00,
2013-02-09 16:55:00,34.5,10.3,29.53,SW,225,1.1,1.6,36,0.00,,,32.47,VWS V14.01,2013-02-09 21:55:00,
2013-02-09 16:56:00,34.3,9.5,29.53,SSW,202,2.0,3.1,35,0.00,,,32.47,VWS V14.01,2013-02-09 21:56:00,
2013-02-09 16:57:00,34.2,9.4,29.53,SE,135,1.1,2.5,35,0.00,,,32.47,VWS V14.01,2013-02-09 21:57:00,
2013-02-09 16:58:00,34.0,9.2,29.53,SSE,158,2.5,3.6,35,0.00,,,32.47,VWS V14.01,2013-02-09 21:58:00,
2013-02-09 16:59:00,34.3,9.5,29.53,SSW,202,2.7,2.7,35,0.00,,,32.47,VWS V14.01,2013-02-09 21:59:00,
2013-02-09 17:01:00,34.2,9.4,29.53,SSE,158,2.9,2.9,35,0.00,,,32.47,VWS V14.01,2013-02-09 22:01:00,
2013-02-09 17:02:00,34.3,9.5,29.53,SSW,202,1.1,2.9,35,0.00,,,32.47,VWS V14.01,2013-02-09 22:02:00,
2013-02-09 17:06:00,34.3,9.5,29.53,SSW,202,1.1,1.1,35,0.00,,,32.47,VWS V14.01,2013-02-09 22:06:00,
2013-02-09 17:07:00,34.3,9.5,29.53,SSE,158,5.8,5.8,35,0.00,,,32.47,VWS V14.01,2013-02-09 22:07:00,
2013-02-09 17:08:00,33.8,9.1,29.50,SSE,158,5.4,5.8,35,0.00,,,32.47,VWS V14.01,2013-02-09 22:08:00,
2013-02-09 17:09:00,33.8,8.4,29.50,SE,135,2.2,5.4,34,0.00,,,32.47,VWS V14.01,2013-02-09 22:09:00,
2013-02-09 17:10:00,33.8,8.4,29.50,SSE,158,3.4,5.8,34,0.00,,,32.47,VWS V14.01,2013-02-09 22:10:00,
2013-02-09 17:11:00,34.0,8.6,29.50,South,180,3.6,3.6,34,0.00,,,32.47,VWS V14.01,2013-02-09 22:11:00,
2013-02-09 17:12:00,34.0,8.6,29.50,South,180,3.1,3.6,34,0.00,,,32.47,VWS V14.01,2013-02-09 22:12:00,
2013-02-09 17:13:00,34.0,8.6,29.50,SSE,158,1.1,3.1,34,0.00,,,32.47,VWS V14.01,2013-02-09 22:13:00,
2013-02-09 17:14:00,34.2,9.4,29.50,SSW,202,0.9,2.7,35,0.00,,,32.47,VWS V14.01,2013-02-09 22:14:00,
2013-02-09 17:15:00,34.0,8.6,29.50,SSW,202,3.4,4.9,34,0.00,,,32.47,VWS V14.01,2013-02-09 22:15:00,
2013-02-09 17:16:00,33.8,8.4,29.50,SSE,158,3.1,5.4,34,0.00,,,32.47,VWS V14.01,2013-02-09 22:16:00,
2013-02-09 17:17:00,33.6,8.3,29.50,SSE,158,3.1,5.4,34,0.00,,,32.47,VWS V14.01,2013-02-09 22:17:00,
2013-02-09 17:18:00,33.6,8.3,29.50,SSW,202,2.0,4.0,34,0.00,,,32.47,VWS V14.01,2013-02-09 22:18:00,
2013-02-09 17:19:00,33.4,8.1,29.50,WNW,292,2.0,3.1,34,0.00,,,32.47,VWS V14.01,2013-02-09 22:19:00,
2013-02-09 17:21:00,34.0,8.6,29.50,WNW,292,1.1,1.6,34,0.00,,,32.47,VWS V14.01,2013-02-09 22:21:00,
2013-02-09 17:22:00,33.8,8.4,29.50,SW,225,1.6,4.3,34,0.00,,,32.47,VWS V14.01,2013-02-09 22:22:00,
2013-02-09 17:23:00,34.0,8.6,29.50,SSW,202,0.0,2.5,34,0.00,,,32.47,VWS V14.01,2013-02-09 22:23:00,
2013-02-09 17:24:00,34.0,8.6,29.50,SSE,158,1.3,1.3,34,0.00,,,32.47,VWS V14.01,2013-02-09 22:24:00,
2013-02-09 17:25:00,33.6,8.9,29.50,SSW,202,3.4,4.0,35,0.00,,,32.47,VWS V14.01,2013-02-09 22:25:00,
2013-02-09 17:26:00,33.3,7.9,29.50,SSE,158,3.4,6.5,34,0.00,,,32.47,VWS V14.01,2013-02-09 22:26:00,
2013-02-09 17:27:00,33.3,7.9,29.50,SSE,158,3.6,3.6,34,0.00,,,32.47,VWS V14.01,2013-02-09 22:27:00,
2013-02-09 17:28:00,32.9,7.6,29.50,SE,135,2.7,5.4,34,0.00,,,32.47,VWS V14.01,2013-02-09 22:28:00,
2013-02-09 17:29:00,32.9,7.6,29.50,South,180,4.9,4.9,34,0.00,,,32.47,VWS V14.01,2013-02-09 22:29:00,
2013-02-09 17:30:00,32.7,7.5,29.50,SSE,158,4.3,6.3,34,0.00,,,32.47,VWS V14.01,2013-02-09 22:30:00,
2013-02-09 17:31:00,32.5,7.3,29.50,SSW,202,2.9,4.7,34,0.00,,,32.47,VWS V14.01,2013-02-09 22:31:00,
2013-02-09 17:32:00,32.7,7.5,29.50,South,180,2.5,4.0,34,0.00,,,32.47,VWS V14.01,2013-02-09 22:32:00,
2013-02-09 17:33:00,32.7,8.1,29.50,South,180,2.5,2.5,35,0.00,,,32.47,VWS V14.01,2013-02-09 22:33:00,
2013-02-09 17:34:00,32.7,8.1,29.50,South,180,2.5,2.5,35,0.00,,,32.47,VWS V14.01,2013-02-09 22:34:00,
2013-02-09 17:35:00,32.5,7.9,29.50,SE,135,2.9,4.0,35,0.00,,,32.47,VWS V14.01,2013-02-09 22:35:00,
2013-02-09 17:36:00,32.5,7.9,29.50,SSE,158,1.3,2.9,35,0.00,,,32.47,VWS V14.01,2013-02-09 22:36:00,
2013-02-09 17:37:00,32.5,7.9,29.50,SSW,202,0.0,2.2,35,0.00,,,32.47,VWS V14.01,2013-02-09 22:37:00,
2013-02-09 17:38:00,32.5,7.9,29.50,SSW,202,0.0,1.3,35,0.00,,,32.47,VWS V14.01,2013-02-09 22:38:00,
2013-02-09 17:39:00,32.2,7.6,29.50,SSW,202,5.4,5.4,35,0.00,,,32.47,VWS V14.01,2013-02-09 22:39:00,
2013-02-09 17:40:00,31.8,7.3,29.50,SSW,202,3.1,5.4,35,0.00,,,32.47,VWS V14.01,2013-02-09 22:40:00,
2013-02-09 17:41:00,31.6,7.1,29.50,SSE,158,3.1,3.1,35,0.00,,,32.47,VWS V14.01,2013-02-09 22:41:00,
2013-02-09 17:42:00,31.6,7.1,29.50,SSW,202,2.2,4.3,35,0.00,,,32.47,VWS V14.01,2013-02-09 22:42:00,
2013-02-09 17:43:00,31.5,7.0,29.50,South,180,3.6,5.8,35,0.00,,,32.47,VWS V14.01,2013-02-09 22:43:00,
2013-02-09 17:45:00,31.3,6.8,29.50,SSW,202,2.7,3.8,35,0.00,,,32.47,VWS V14.01,2013-02-09 22:45:00,
2013-02-09 17:46:00,30.7,6.3,29.50,South,180,3.1,3.4,35,0.00,,,32.47,VWS V14.01,2013-02-09 22:46:00,
2013-02-09 17:47:00,30.4,6.0,29.50,SSW,202,4.3,4.3,35,0.00,,,32.47,VWS V14.01,2013-02-09 22:47:00,
2013-02-09 17:48:00,29.8,6.2,29.50,SW,225,2.9,4.3,36,0.00,,,32.47,VWS V14.01,2013-02-09 22:48:00,
2013-02-09 17:49:00,29.7,6.0,29.50,SSE,158,2.9,2.9,36,0.00,,,32.47,VWS V14.01,2013-02-09 22:49:00,
2013-02-09 17:50:00,29.5,5.8,29.50,WSW,248,2.5,5.4,36,0.00,,,32.47,VWS V14.01,2013-02-09 22:50:00,
2013-02-09 17:51:00,29.3,5.7,29.50,SSE,158,2.5,2.5,36,0.00,,,32.47,VWS V14.01,2013-02-09 22:51:00,
2013-02-09 17:52:00,29.3,5.7,29.47,SSW,202,4.7,4.7,36,0.00,,,32.47,VWS V14.01,2013-02-09 22:52:00,
2013-02-09 17:53:00,29.1,5.5,29.47,South,180,2.9,4.7,36,0.00,,,32.47,VWS V14.01,2013-02-09 22:53:00,
2013-02-09 17:54:00,29.1,6.1,29.47,SW,225,2.5,2.9,37,0.00,,,32.47,VWS V14.01,2013-02-09 22:54:00,
2013-02-09 17:55:00,28.8,5.8,29.47,SSE,158,1.6,2.5,37,0.00,,,32.47,VWS V14.01,2013-02-09 22:55:00,
2013-02-09 17:57:00,28.8,5.8,29.47,SSW,202,2.0,2.5,37,0.00,,,32.47,VWS V14.01,2013-02-09 22:57:00,
2013-02-09 17:58:00,28.8,5.8,29.47,SSE,158,1.3,2.0,37,0.00,,,32.47,VWS V14.01,2013-02-09 22:58:00,
2013-02-09 17:59:00,28.4,6.1,29.47,South,180,2.9,3.6,38,0.00,,,32.47,VWS V14.01,2013-02-09 22:59:00,
2013-02-09 18:00:00,28.4,6.1,29.47,SSW,202,2.2,3.6,38,0.00,,,32.47,VWS V14.01,2013-02-09 23:00:00,
2013-02-09 18:01:00,28.4,6.1,29.47,South,180,0.0,2.7,38,0.00,,,32.47,VWS V14.01,2013-02-09 23:01:00,
2013-02-09 18:02:00,28.4,6.1,29.47,SSE,158,0.0,0.0,38,0.00,,,32.47,VWS V14.01,2013-02-09 23:02:00,
2013-02-09 18:03:00,27.9,5.6,29.47,SSW,202,2.5,2.5,38,0.00,,,32.47,VWS V14.01,2013-02-09 23:03:00,
2013-02-09 18:04:00,27.9,5.6,29.47,SSW,202,1.6,2.7,38,0.00,,,32.47,VWS V14.01,2013-02-09 23:04:00,
2013-02-09 18:05:00,27.9,5.6,29.47,SSE,158,3.6,3.6,38,0.00,,,32.47,VWS V14.01,2013-02-09 23:05:00,
2013-02-09 18:06:00,27.9,5.6,29.47,SSW,202,2.7,3.6,38,0.00,,,32.47,VWS V14.01,2013-02-09 23:06:00,
2013-02-09 18:07:00,27.9,5.6,29.50,SSW,202,1.3,3.8,38,0.00,,,32.47,VWS V14.01,2013-02-09 23:07:00,
2013-02-09 18:08:00,27.9,5.6,29.50,SSE,158,3.8,3.8,38,0.00,,,32.47,VWS V14.01,2013-02-09 23:08:00,
2013-02-09 18:09:00,27.9,5.6,29.50,SSW,202,2.0,3.8,38,0.00,,,32.47,VWS V14.01,2013-02-09 23:09:00,
2013-02-09 18:10:00,27.9,5.6,29.50,SSE,158,1.1,2.2,38,0.00,,,32.47,VWS V14.01,2013-02-09 23:10:00,
2013-02-09 18:11:00,27.3,6.2,29.50,South,180,1.1,1.3,40,0.00,,,32.47,VWS V14.01,2013-02-09 23:11:00,
2013-02-09 18:12:00,27.1,6.0,29.50,South,180,1.6,1.6,40,0.00,,,32.47,VWS V14.01,2013-02-09 23:12:00,
2013-02-09 18:13:00,27.1,6.0,29.50,SSE,158,2.0,3.1,40,0.00,,,32.47,VWS V14.01,2013-02-09 23:13:00,
2013-02-09 18:14:00,27.0,5.9,29.50,South,180,2.2,3.6,40,0.00,,,32.47,VWS V14.01,2013-02-09 23:14:00,
2013-02-09 18:15:00,27.0,5.9,29.50,SSE,158,1.3,2.2,40,0.00,,,32.47,VWS V14.01,2013-02-09 23:15:00,
2013-02-09 18:16:00,27.0,5.9,29.50,SE,135,1.6,1.6,40,0.00,,,32.47,VWS V14.01,2013-02-09 23:16:00,
2013-02-09 18:17:00,26.8,6.2,29.50,SSE,158,2.0,3.8,41,0.00,,,32.47,VWS V14.01,2013-02-09 23:17:00,
2013-02-09 18:18:00,26.8,6.2,29.50,SSE,158,1.1,2.7,41,0.00,,,32.47,VWS V14.01,2013-02-09 23:18:00,
2013-02-09 18:19:00,26.8,6.2,29.50,SSE,158,3.1,3.8,41,0.00,,,32.47,VWS V14.01,2013-02-09 23:19:00,
2013-02-09 18:20:00,26.6,6.1,29.50,South,180,1.6,3.6,41,0.00,,,32.47,VWS V14.01,2013-02-09 23:20:00,
2013-02-09 18:21:00,26.6,6.1,29.50,SSW,202,2.0,2.9,41,0.00,,,32.47,VWS V14.01,2013-02-09 23:21:00,
2013-02-09 18:22:00,26.6,6.6,29.50,East,90,1.3,2.9,42,0.00,,,32.47,VWS V14.01,2013-02-09 23:22:00,
2013-02-09 18:23:00,26.6,6.6,29.50,SSW,202,4.3,4.3,42,0.00,,,32.47,VWS V14.01,2013-02-09 23:23:00,
2013-02-09 18:24:00,26.6,6.6,29.50,South,180,3.8,4.3,42,0.00,,,32.47,VWS V14.01,2013-02-09 23:24:00,
2013-02-09 18:25:00,26.6,6.6,29.50,East,90,2.9,3.8,42,0.00,,,32.47,VWS V14.01,2013-02-09 23:25:00,
2013-02-09 18:26:00,26.4,6.4,29.50,SSE,158,0.0,2.9,42,0.00,,,32.47,VWS V14.01,2013-02-09 23:26:00,
2013-02-09 18:27:00,26.4,6.4,29.50,SE,135,2.5,2.5,42,0.00,,,32.47,VWS V14.01,2013-02-09 23:27:00,
2013-02-09 18:28:00,26.2,6.3,29.50,SSE,158,0.0,3.4,42,0.00,,,32.47,VWS V14.01,2013-02-09 23:28:00,
2013-02-09 18:29:00,26.2,6.3,29.50,East,90,1.1,1.1,42,0.00,,,32.47,VWS V14.01,2013-02-09 23:29:00,
2013-02-09 18:30:00,26.2,6.3,29.50,SSE,158,0.0,1.1,42,0.00,,,32.47,VWS V14.01,2013-02-09 23:30:00,
2013-02-09 18:31:00,26.2,6.3,29.50,South,180,2.2,2.2,42,0.00,,,32.47,VWS V14.01,2013-02-09 23:31:00,
2013-02-09 18:32:00,26.2,6.3,29.50,ESE,112,2.0,2.5,42,0.00,,,32.47,VWS V14.01,2013-02-09 23:32:00,
2013-02-09 18:33:00,26.1,6.1,29.50,South,180,2.0,2.9,42,0.00,,,32.47,VWS V14.01,2013-02-09 23:33:00,
2013-02-09 18:34:00,26.1,6.1,29.50,South,180,0.9,2.9,42,0.00,,,32.47,VWS V14.01,2013-02-09 23:34:00,
2013-02-09 18:35:00,26.1,6.1,29.50,SE,135,1.1,1.6,42,0.00,,,32.47,VWS V14.01,2013-02-09 23:35:00,
2013-02-09 18:36:00,26.1,6.1,29.50,SSE,158,2.7,3.4,42,0.00,,,32.47,VWS V14.01,2013-02-09 23:36:00,
2013-02-09 18:37:00,26.1,6.1,29.50,SSE,158,2.9,3.8,42,0.00,,,32.47,VWS V14.01,2013-02-09 23:37:00,
2013-02-09 18:38:00,26.2,6.8,29.50,SE,135,2.9,3.4,43,0.00,,,32.47,VWS V14.01,2013-02-09 23:38:00,
2013-02-09 18:39:00,26.2,6.8,29.50,SSE,158,3.6,5.4,43,0.00,,,32.47,VWS V14.01,2013-02-09 23:39:00,
2013-02-09 18:40:00,26.2,6.8,29.50,South,180,3.6,3.6,43,0.00,,,32.47,VWS V14.01,2013-02-09 23:40:00,
2013-02-09 18:41:00,26.2,6.8,29.50,ESE,112,1.3,3.6,43,0.00,,,32.47,VWS V14.01,2013-02-09 23:41:00,
2013-02-09 18:42:00,26.2,6.8,29.50,SW,225,4.9,4.9,43,0.00,,,32.47,VWS V14.01,2013-02-09 23:42:00,
2013-02-09 18:43:00,26.2,6.8,29.50,SE,135,1.3,3.8,43,0.00,,,32.47,VWS V14.01,2013-02-09 23:43:00,
2013-02-09 18:44:00,26.2,6.8,29.50,SSE,158,2.5,3.8,43,0.00,,,32.47,VWS V14.01,2013-02-09 23:44:00,
2013-02-09 18:45:00,26.2,6.8,29.50,SE,135,1.3,2.5,43,0.00,,,32.47,VWS V14.01,2013-02-09 23:45:00,
2013-02-09 18:46:00,26.2,6.8,29.50,SSE,158,2.9,2.9,43,0.00,,,32.47,VWS V14.01,2013-02-09 23:46:00,
2013-02-09 18:47:00,26.2,6.8,29.50,ESE,112,2.9,2.9,43,0.00,,,32.47,VWS V14.01,2013-02-09 23:47:00,
2013-02-09 18:48:00,26.1,6.6,29.50,SSE,158,2.0,3.1,43,0.00,,,32.47,VWS V14.01,2013-02-09 23:48:00,
2013-02-09 18:50:00,25.9,6.5,29.50,SE,135,2.9,3.1,43,0.00,,,32.47,VWS V14.01,2013-02-09 23:50:00,
2013-02-09 18:51:00,25.9,6.5,29.50,SSW,202,5.6,5.6,43,0.00,,,32.47,VWS V14.01,2013-02-09 23:51:00,
2013-02-09 18:52:00,26.1,6.6,29.50,South,180,2.5,5.6,43,0.00,,,32.47,VWS V14.01,2013-02-09 23:52:00,
2013-02-09 18:53:00,26.1,6.6,29.50,SSW,202,0.0,0.0,43,0.00,,,32.47,VWS V14.01,2013-02-09 23:53:00,
2013-02-09 18:54:00,26.1,6.6,29.50,SSE,158,2.2,2.2,43,0.00,,,32.47,VWS V14.01,2013-02-09 23:54:00,
2013-02-09 18:55:00,26.1,6.6,29.50,ESE,112,2.2,2.7,43,0.00,,,32.47,VWS V14.01,2013-02-09 23:55:00,
2013-02-09 18:56:00,26.1,6.6,29.50,SSE,158,4.9,4.9,43,0.00,,,32.47,VWS V14.01,2013-02-09 23:56:00,
2013-02-09 18:57:00,26.1,6.6,29.50,South,180,0.0,4.9,43,0.00,,,32.47,VWS V14.01,2013-02-09 23:57:00,
2013-02-09 18:58:00,25.9,6.5,29.50,SE,135,0.9,2.2,43,0.00,,,32.47,VWS V14.01,2013-02-09 23:58:00,
2013-02-09 18:59:00,25.9,6.5,29.50,SSE,158,0.0,2.2,43,0.00,,,32.47,VWS V14.01,2013-02-09 23:59:00,
2013-02-09 19:00:00,25.9,6.5,29.50,SSE,158,1.6,3.4,43,0.00,,,32.47,VWS V14.01,2013-02-10 00:00:00,
2013-02-09 19:01:00,25.9,6.5,29.50,SSE,158,2.0,3.8,43,0.00,,,32.47,VWS V14.01,2013-02-10 00:01:00,
2013-02-09 19:02:00,25.9,6.5,29.50,SE,135,3.6,4.5,43,0.00,,,32.47,VWS V14.01,2013-02-10 00:02:00,
2013-02-09 19:03:00,26.1,6.6,29.50,SSW,202,3.4,3.4,43,0.00,,,32.47,VWS V14.01,2013-02-10 00:03:00,
2013-02-09 19:04:00,25.9,6.5,29.50,SSW,202,3.6,3.6,43,0.00,,,32.47,VWS V14.01,2013-02-10 00:04:00,
2013-02-09 19:05:00,25.9,6.5,29.50,South,180,1.3,3.6,43,0.00,,,32.47,VWS V14.01,2013-02-10 00:05:00,
2013-02-09 19:06:00,25.9,6.5,29.50,ESE,112,2.2,3.6,43,0.00,,,32.47,VWS V14.01,2013-02-10 00:06:00,
2013-02-09 19:07:00,25.9,6.5,29.47,South,180,1.6,2.5,43,0.00,,,32.47,VWS V14.01,2013-02-10 00:07:00,
2013-02-09 19:08:00,25.9,6.5,29.47,East,90,2.0,2.0,43,0.00,,,32.47,VWS V14.01,2013-02-10 00:08:00,
2013-02-09 19:09:00,25.9,6.5,29.47,East,90,2.0,2.0,43,0.00,,,32.47,VWS V14.01,2013-02-10 00:09:00,
2013-02-09 19:10:00,25.9,6.5,29.47,SSE,158,2.2,2.7,43,0.00,,,32.47,VWS V14.01,2013-02-10 00:10:00,
2013-02-09 19:11:00,25.9,7.0,29.47,SE,135,1.6,3.4,44,0.00,,,32.47,VWS V14.01,2013-02-10 00:11:00,
2013-02-09 19:12:00,25.9,7.0,29.47,SE,135,1.3,2.7,44,0.00,,,32.47,VWS V14.01,2013-02-10 00:12:00,
2013-02-09 19:13:00,25.9,7.0,29.47,SSE,158,2.0,2.2,44,0.00,,,32.47,VWS V14.01,2013-02-10 00:13:00,
2013-02-09 19:14:00,25.7,6.8,29.47,East,90,1.3,1.3,44,0.00,,,32.47,VWS V14.01,2013-02-10 00:14:00,
2013-02-09 19:15:00,25.7,6.8,29.47,ESE,112,1.6,1.6,44,0.00,,,32.47,VWS V14.01,2013-02-10 00:15:00,
2013-02-09 19:16:00,25.7,6.8,29.47,East,90,1.1,1.6,44,0.00,,,32.47,VWS V14.01,2013-02-10 00:16:00,
2013-02-09 19:17:00,25.7,6.8,29.47,SE,135,2.7,4.3,44,0.00,,,32.47,VWS V14.01,2013-02-10 00:17:00,
2013-02-09 19:18:00,25.7,6.8,29.47,SE,135,0.0,3.4,44,0.00,,,32.47,VWS V14.01,2013-02-10 00:18:00,
2013-02-09 19:19:00,25.5,6.7,29.47,East,90,2.0,2.0,44,0.00,,,32.47,VWS V14.01,2013-02-10 00:19:00,
2013-02-09 19:20:00,25.5,6.7,29.47,East,90,0.0,2.0,44,0.00,,,32.47,VWS V14.01,2013-02-10 00:20:00,
2013-02-09 19:21:00,25.3,6.5,29.47,ESE,112,2.0,2.5,44,0.00,,,32.47,VWS V14.01,2013-02-10 00:21:00,
2013-02-09 19:22:00,25.3,6.5,29.47,ESE,112,0.9,2.0,44,0.00,,,32.47,VWS V14.01,2013-02-10 00:22:00,
2013-02-09 19:23:00,25.3,6.5,29.47,SE,135,2.7,3.1,44,0.00,,,32.47,VWS V14.01,2013-02-10 00:23:00,
2013-02-09 19:24:00,25.3,7.0,29.47,SSE,158,2.9,4.9,45,0.00,,,32.47,VWS V14.01,2013-02-10 00:24:00,
2013-02-09 19:25:00,25.3,7.0,29.47,SSE,158,1.6,4.0,45,0.00,,,32.47,VWS V14.01,2013-02-10 00:25:00,
2013-02-09 19:26:00,25.5,7.6,29.47,SSW,202,6.0,6.0,46,0.00,,,32.47,VWS V14.01,2013-02-10 00:26:00,
2013-02-09 19:27:00,25.5,7.6,29.47,ESE,112,3.1,6.0,46,0.00,,,32.47,VWS V14.01,2013-02-10 00:27:00,
2013-02-09 19:28:00,25.5,7.6,29.47,ESE,112,4.0,4.0,46,0.00,,,32.47,VWS V14.01,2013-02-10 00:28:00,
2013-02-09 19:29:00,25.5,7.6,29.47,SSE,158,3.4,4.0,46,0.00,,,32.47,VWS V14.01,2013-02-10 00:29:00,
2013-02-09 19:30:00,25.5,7.6,29.47,SE,135,2.0,3.6,46,0.00,,,32.47,VWS V14.01,2013-02-10 00:30:00,
2013-02-09 19:31:00,25.3,7.5,29.47,ESE,112,1.1,2.2,46,0.00,,,32.47,VWS V14.01,2013-02-10 00:31:00,
2013-02-09 19:32:00,25.3,7.5,29.47,SSW,202,3.6,3.6,46,0.00,,,32.47,VWS V14.01,2013-02-10 00:32:00,
2013-02-09 19:33:00,25.3,7.5,29.47,SSE,158,3.6,3.6,46,0.00,,,32.47,VWS V14.01,2013-02-10 00:33:00,
2013-02-09 19:34:00,25.5,8.1,29.47,SSE,158,3.4,5.6,47,0.00,,,32.47,VWS V14.01,2013-02-10 00:34:00,
2013-02-09 19:35:00,25.5,8.6,29.47,South,180,7.6,7.6,48,0.00,,,32.47,VWS V14.01,2013-02-10 00:35:00,
2013-02-09 19:36:00,25.5,8.6,29.47,South,180,2.9,7.6,48,0.00,,,32.47,VWS V14.01,2013-02-10 00:36:00,
2013-02-09 19:37:00,25.5,8.6,29.47,SSE,158,3.4,4.0,48,0.00,,,32.47,VWS V14.01,2013-02-10 00:37:00,
2013-02-09 19:38:00,25.5,8.6,29.47,SSW,202,2.9,3.4,48,0.00,,,32.47,VWS V14.01,2013-02-10 00:38:00,
2013-02-09 19:39:00,25.5,8.6,29.47,SE,135,3.8,3.8,48,0.00,,,32.47,VWS V14.01,2013-02-10 00:39:00,
2013-02-09 19:40:00,25.5,8.6,29.47,East,90,2.9,3.8,48,0.00,,,32.47,VWS V14.01,2013-02-10 00:40:00,
2013-02-09 19:41:00,25.5,8.6,29.47,ESE,112,2.0,5.6,48,0.00,,,32.47,VWS V14.01,2013-02-10 00:41:00,
2013-02-09 19:42:00,25.3,8.4,29.47,ESE,112,2.0,2.0,48,0.00,,,32.47,VWS V14.01,2013-02-10 00:42:00,
2013-02-09 19:43:00,25.3,8.4,29.47,SE,135,3.6,6.0,48,0.00,,,32.47,VWS V14.01,2013-02-10 00:43:00,
2013-02-09 19:44:00,25.3,8.4,29.47,SSE,158,2.9,4.0,48,0.00,,,32.47,VWS V14.01,2013-02-10 00:44:00,
2013-02-09 19:45:00,25.3,8.4,29.47,SSE,158,2.2,4.0,48,0.00,,,32.47,VWS V14.01,2013-02-10 00:45:00,
2013-02-09 19:46:00,25.3,8.4,29.47,ESE,112,3.4,3.4,48,0.00,,,32.47,VWS V14.01,2013-02-10 00:46:00,
2013-02-09 19:47:00,25.3,8.4,29.47,SSW,202,2.9,4.9,48,0.00,,,32.47,VWS V14.01,2013-02-10 00:47:00,
2013-02-09 19:48:00,25.3,8.9,29.47,SE,135,2.0,2.9,49,0.00,,,32.47,VWS V14.01,2013-02-10 00:48:00,
2013-02-09 19:49:00,25.2,8.7,29.47,SSE,158,4.7,4.7,49,0.00,,,32.47,VWS V14.01,2013-02-10 00:49:00,
2013-02-09 19:50:00,25.2,8.7,29.47,ESE,112,2.7,4.7,49,0.00,,,32.47,VWS V14.01,2013-02-10 00:50:00,
2013-02-09 19:51:00,25.2,8.7,29.47,SSE,158,2.9,3.1,49,0.00,,,32.47,VWS V14.01,2013-02-10 00:51:00,
2013-02-09 19:52:00,25.2,8.7,29.47,SSE,158,2.9,2.9,49,0.00,,,32.47,VWS V14.01,2013-02-10 00:52:00,
2013-02-09 19:53:00,25.2,8.7,29.47,SE,135,2.9,6.3,49,0.00,,,32.47,VWS V14.01,2013-02-10 00:53:00,
2013-02-09 19:54:00,25.2,8.7,29.47,SE,135,3.1,3.6,49,0.00,,,32.47,VWS V14.01,2013-02-10 00:54:00,
2013-02-09 19:55:00,25.2,8.7,29.47,SE,135,7.4,7.4,49,0.00,,,32.47,VWS V14.01,2013-02-10 00:55:00,
2013-02-09 19:56:00,25.2,8.7,29.47,SSE,158,5.4,7.4,49,0.00,,,32.47,VWS V14.01,2013-02-10 00:56:00,
2013-02-09 19:57:00,25.2,8.7,29.47,SE,135,5.6,7.6,49,0.00,,,32.47,VWS V14.01,2013-02-10 00:57:00,
2013-02-09 19:58:00,25.2,8.7,29.47,SSE,158,3.4,5.6,49,0.00,,,32.47,VWS V14.01,2013-02-10 00:58:00,
2013-02-09 19:59:00,25.2,8.7,29.47,SSE,158,3.6,3.6,49,0.00,,,32.47,VWS V14.01,2013-02-10 00:59:00,
2013-02-09 20:00:00,25.2,8.7,29.47,East,90,9.4,9.4,49,0.00,,,32.47,VWS V14.01,2013-02-10 01:00:00,
2013-02-09 20:01:00,25.0,8.5,29.47,ESE,112,6.5,9.4,49,0.00,,,32.47,VWS V14.01,2013-02-10 01:01:00,
2013-02-09 20:02:00,25.0,8.5,29.47,South,180,2.7,6.5,49,0.00,,,32.47,VWS V14.01,2013-02-10 01:02:00,
2013-02-09 20:03:00,25.0,8.5,29.47,ESE,112,2.0,4.0,49,0.00,,,32.47,VWS V14.01,2013-02-10 01:03:00,
2013-02-09 20:04:00,24.8,8.8,29.47,SSW,202,4.7,4.7,50,0.00,,,32.47,VWS V14.01,2013-02-10 01:04:00,
2013-02-09 20:05:00,24.8,8.8,29.47,SSE,158,2.7,4.9,50,0.00,,,32.47,VWS V14.01,2013-02-10 01:05:00,
2013-02-09 20:06:00,24.8,8.8,29.47,SE,135,4.9,5.4,50,0.00,,,32.47,VWS V14.01,2013-02-10 01:06:00,
2013-02-09 20:07:00,24.8,8.8,29.47,SSW,202,7.4,9.6,50,0.00,,,32.47,VWS V14.01,2013-02-10 01:07:00,
2013-02-09 20:08:00,24.8,8.8,29.47,SSE,158,7.6,7.6,50,0.00,,,32.47,VWS V14.01,2013-02-10 01:08:00,
2013-02-09 20:09:00,24.6,8.6,29.47,East,90,3.4,4.3,50,0.00,,,32.47,VWS V14.01,2013-02-10 01:09:00,
2013-02-09 20:10:00,24.6,8.6,29.47,SSE,158,1.6,4.3,50,0.00,,,32.47,VWS V14.01,2013-02-10 01:10:00,
2013-02-09 20:12:00,24.6,8.6,29.47,SSE,158,4.9,4.9,50,0.00,,,32.47,VWS V14.01,2013-02-10 01:12:00,
2013-02-09 20:13:00,24.4,8.5,29.47,SSE,158,2.5,4.9,50,0.00,,,32.47,VWS V14.01,2013-02-10 01:13:00,
2013-02-09 20:14:00,24.4,8.5,29.47,ESE,112,2.9,4.9,50,0.00,,,32.47,VWS V14.01,2013-02-10 01:14:00,
2013-02-09 20:15:00,24.4,8.5,29.47,SE,135,3.6,4.9,50,0.00,,,32.47,VWS V14.01,2013-02-10 01:15:00,
2013-02-09 20:16:00,24.3,8.3,29.47,East,90,3.4,3.6,50,0.00,,,32.47,VWS V14.01,2013-02-10 01:16:00,
2013-02-09 20:17:00,24.3,8.3,29.47,East,90,2.5,4.0,50,0.00,,,32.47,VWS V14.01,2013-02-10 01:17:00,
2013-02-09 20:19:00,24.3,8.3,29.47,ESE,112,0.0,4.0,50,0.00,,,32.47,VWS V14.01,2013-02-10 01:19:00,
2013-02-09 20:20:00,24.1,8.1,29.47,SSE,158,4.3,4.3,50,0.00,,,32.47,VWS V14.01,2013-02-10 01:20:00,
2013-02-09 20:22:00,24.1,8.6,29.47,ESE,112,4.9,4.9,51,0.00,,,32.47,VWS V14.01,2013-02-10 01:22:00,
2013-02-09 20:23:00,24.1,8.6,29.47,South,180,4.9,7.8,51,0.00,,,32.47,VWS V14.01,2013-02-10 01:23:00,
2013-02-09 20:24:00,24.1,8.6,29.47,SSE,158,3.1,4.9,51,0.00,,,32.47,VWS V14.01,2013-02-10 01:24:00,
2013-02-09 20:27:00,23.9,8.4,29.47,SSE,158,3.1,5.6,51,0.00,,,32.47,VWS V14.01,2013-02-10 01:27:00,
2013-02-09 20:28:00,23.9,8.4,29.47,South,180,2.5,7.4,51,0.00,,,32.47,VWS V14.01,2013-02-10 01:28:00,
2013-02-09 20:29:00,23.9,8.4,29.47,SSE,158,5.8,5.8,51,0.00,,,32.47,VWS V14.01,2013-02-10 01:29:00,
2013-02-09 20:30:00,23.9,8.4,29.47,SE,135,1.6,5.8,51,0.00,,,32.47,VWS V14.01,2013-02-10 01:30:00,
2013-02-09 20:31:00,23.7,8.2,29.47,SSE,158,3.8,3.8,51,0.00,,,32.47,VWS V14.01,2013-02-10 01:31:00,
2013-02-09 20:32:00,23.7,8.2,29.47,ENE,68,3.1,3.8,51,0.00,,,32.47,VWS V14.01,2013-02-10 01:32:00,
2013-02-09 20:33:00,23.7,8.2,29.47,ESE,112,3.1,3.8,51,0.00,,,32.47,VWS V14.01,2013-02-10 01:33:00,
2013-02-09 20:34:00,23.7,8.2,29.47,SE,135,3.1,3.8,51,0.00,,,32.47,VWS V14.01,2013-02-10 01:34:00,
2013-02-09 20:36:00,23.7,8.2,29.47,SSW,202,1.1,3.8,51,0.00,,,32.47,VWS V14.01,2013-02-10 01:36:00,
2013-02-09 20:37:00,23.7,8.7,29.47,ESE,112,3.4,6.3,52,0.00,,,32.47,VWS V14.01,2013-02-10 01:37:00,
2013-02-09 20:38:00,23.7,8.2,29.47,SE,135,1.3,3.4,51,0.00,,,32.47,VWS V14.01,2013-02-10 01:38:00,
2013-02-09 20:39:00,23.5,8.1,29.47,SSE,158,3.1,6.5,51,0.00,,,32.47,VWS V14.01,2013-02-10 01:39:00,
2013-02-09 20:40:00,23.5,8.1,29.47,SSE,158,3.1,6.5,51,0.00,,,32.47,VWS V14.01,2013-02-10 01:40:00,
2013-02-09 20:41:00,23.5,8.1,29.47,SSE,158,4.9,4.9,51,0.00,,,32.47,VWS V14.01,2013-02-10 01:41:00,
2013-02-09 20:42:00,23.5,8.5,29.47,ESE,112,1.1,5.4,52,0.00,,,32.47,VWS V14.01,2013-02-10 01:42:00,
2013-02-09 20:43:00,23.5,8.5,29.47,SSW,202,4.7,8.1,52,0.00,,,32.47,VWS V14.01,2013-02-10 01:43:00,
2013-02-09 20:44:00,23.5,8.5,29.47,South,180,7.6,7.6,52,0.00,,,32.47,VWS V14.01,2013-02-10 01:44:00,
2013-02-09 20:45:00,23.5,8.5,29.47,SE,135,5.8,7.6,52,0.00,,,32.47,VWS V14.01,2013-02-10 01:45:00,
2013-02-09 20:46:00,23.5,8.5,29.47,SSE,158,4.0,8.5,52,0.00,,,32.47,VWS V14.01,2013-02-10 01:46:00,
2013-02-09 20:47:00,23.5,8.5,29.47,SSW,202,4.3,8.1,52,0.00,,,32.47,VWS V14.01,2013-02-10 01:47:00,
2013-02-09 20:49:00,23.5,8.5,29.47,SSW,202,3.1,3.1,52,0.00,,,32.47,VWS V14.01,2013-02-10 01:49:00,
2013-02-09 20:50:00,23.5,8.5,29.47,SSW,202,3.1,3.1,52,0.00,,,32.47,VWS V14.01,2013-02-10 01:50:00,
2013-02-09 20:51:00,23.5,8.5,29.47,East,90,3.4,4.3,52,0.00,,,32.47,VWS V14.01,2013-02-10 01:51:00,
2013-02-09 20:52:00,23.5,8.5,29.47,SE,135,4.7,4.7,52,0.00,,,32.47,VWS V14.01,2013-02-10 01:52:00,
2013-02-09 20:54:00,23.5,8.5,29.47,East,90,2.7,5.4,52,0.00,,,32.47,VWS V14.01,2013-02-10 01:54:00,
2013-02-09 20:55:00,23.5,8.5,29.47,East,90,0.9,5.4,52,0.00,,,32.47,VWS V14.01,2013-02-10 01:55:00,
2013-02-09 20:56:00,23.4,8.4,29.47,SE,135,3.8,7.6,52,0.00,,,32.47,VWS V14.01,2013-02-10 01:56:00,
2013-02-09 20:57:00,23.4,8.4,29.47,ESE,112,3.8,5.6,52,0.00,,,32.47,VWS V14.01,2013-02-10 01:57:00,
2013-02-09 20:58:00,23.4,8.4,29.47,South,180,2.0,3.8,52,0.00,,,32.47,VWS V14.01,2013-02-10 01:58:00,
2013-02-09 20:59:00,23.4,8.4,29.47,ENE,68,4.0,5.8,52,0.00,,,32.47,VWS V14.01,2013-02-10 01:59:00,
2013-02-09 21:00:00,23.4,8.4,29.47,ESE,112,3.6,5.8,52,0.00,,,32.47,VWS V14.01,2013-02-10 02:00:00,
2013-02-09 21:01:00,23.4,8.4,29.47,South,180,3.6,7.4,52,0.00,,,32.47,VWS V14.01,2013-02-10 02:01:00,
2013-02-09 21:02:00,23.4,8.4,29.47,South,180,3.6,3.6,52,0.00,,,32.47,VWS V14.01,2013-02-10 02:02:00,
2013-02-09 21:03:00,23.4,8.4,29.47,SSW,202,6.5,7.8,52,0.00,,,32.47,VWS V14.01,2013-02-10 02:03:00,
2013-02-09 21:04:00,23.4,8.4,29.47,East,90,5.4,8.5,52,0.00,,,32.47,VWS V14.01,2013-02-10 02:04:00,
2013-02-09 21:05:00,23.4,8.4,29.47,East,90,5.4,8.5,52,0.00,,,32.47,VWS V14.01,2013-02-10 02:05:00,
2013-02-09 21:06:00,23.4,8.4,29.47,East,90,2.9,6.7,52,0.00,,,32.47,VWS V14.01,2013-02-10 02:06:00,
2013-02-09 21:07:00,23.4,8.4,29.44,South,180,3.8,4.3,52,0.00,,,32.47,VWS V14.01,2013-02-10 02:07:00,
2013-02-09 21:08:00,23.4,8.4,29.44,ESE,112,4.0,4.9,52,0.00,,,32.47,VWS V14.01,2013-02-10 02:08:00,
2013-02-09 21:09:00,23.4,8.4,29.44,SSE,158,2.0,5.4,52,0.00,,,32.47,VWS V14.01,2013-02-10 02:09:00,
2013-02-09 21:10:00,23.4,8.4,29.44,SSE,158,3.8,5.4,52,0.00,,,32.47,VWS V14.01,2013-02-10 02:10:00,
2013-02-09 21:11:00,23.4,8.4,29.44,South,180,3.1,3.8,52,0.00,,,32.47,VWS V14.01,2013-02-10 02:11:00,
2013-02-09 21:12:00,23.4,8.4,29.44,SSW,202,3.6,6.3,52,0.00,,,32.47,VWS V14.01,2013-02-10 02:12:00,
2013-02-09 21:13:00,23.2,8.2,29.44,SSE,158,2.7,3.6,52,0.00,,,32.47,VWS V14.01,2013-02-10 02:13:00,
2013-02-09 21:14:00,23.2,8.2,29.44,SSE,158,2.5,4.3,52,0.00,,,32.47,VWS V14.01,2013-02-10 02:14:00,
2013-02-09 21:15:00,23.2,8.2,29.44,WNW,292,3.8,4.3,52,0.00,,,32.47,VWS V14.01,2013-02-10 02:15:00,
2013-02-09 21:16:00,23.2,8.2,29.44,SW,225,2.2,3.8,52,0.00,,,32.47,VWS V14.01,2013-02-10 02:16:00,
2013-02-09 21:17:00,23.2,8.2,29.44,SW,225,2.2,2.2,52,0.00,,,32.47,VWS V14.01,2013-02-10 02:17:00,
2013-02-09 21:18:00,23.2,8.2,29.44,South,180,2.9,4.9,52,0.00,,,32.47,VWS V14.01,2013-02-10 02:18:00,
2013-02-09 21:19:00,23.2,8.2,29.44,South,180,5.6,8.5,52,0.00,,,32.47,VWS V14.01,2013-02-10 02:19:00,
2013-02-09 21:20:00,23.2,8.6,29.44,South,180,2.9,5.6,53,0.00,,,32.47,VWS V14.01,2013-02-10 02:20:00,
2013-02-09 21:21:00,23.2,8.6,29.44,South,180,4.7,4.7,53,0.00,,,32.47,VWS V14.01,2013-02-10 02:21:00,
2013-02-09 21:22:00,23.2,8.6,29.44,South,180,4.7,4.7,53,0.00,,,32.47,VWS V14.01,2013-02-10 02:22:00,
2013-02-09 21:23:00,23.2,8.6,29.44,SSW,202,2.9,4.7,53,0.00,,,32.47,VWS V14.01,2013-02-10 02:23:00,
2013-02-09 21:24:00,23.2,8.6,29.44,SSW,202,1.3,2.9,53,0.00,,,32.47,VWS V14.01,2013-02-10 02:24:00,
2013-02-09 21:25:00,23.2,8.6,29.44,SSW,202,2.9,4.3,53,0.00,,,32.47,VWS V14.01,2013-02-10 02:25:00,
2013-02-09 21:26:00,23.2,8.6,29.44,SSE,158,7.8,8.1,53,0.00,,,32.47,VWS V14.01,2013-02-10 02:26:00,
2013-02-09 21:27:00,23.2,8.6,29.44,ESE,112,2.7,7.8,53,0.00,,,32.47,VWS V14.01,2013-02-10 02:27:00,
2013-02-09 21:28:00,23.2,8.6,29.44,SE,135,2.0,4.3,53,0.00,,,32.47,VWS V14.01,2013-02-10 02:28:00,
2013-02-09 21:29:00,23.2,8.6,29.44,SSE,158,3.6,4.3,53,0.00,,,32.47,VWS V14.01,2013-02-10 02:29:00,
2013-02-09 21:30:00,23.2,8.6,29.44,WSW,248,3.1,3.6,53,0.00,,,32.47,VWS V14.01,2013-02-10 02:30:00,
2013-02-09 21:32:00,23.2,8.6,29.44,SSW,202,3.4,3.4,53,0.00,,,32.47,VWS V14.01,2013-02-10 02:32:00,
2013-02-09 21:33:00,23.2,8.6,29.44,SSW,202,2.0,6.0,53,0.00,,,32.47,VWS V14.01,2013-02-10 02:33:00,
2013-02-09 21:34:00,23.2,8.6,29.44,South,180,8.1,8.1,53,0.00,,,32.47,VWS V14.01,2013-02-10 02:34:00,
2013-02-09 21:35:00,23.2,9.0,29.44,South,180,5.4,8.7,54,0.00,,,32.47,VWS V14.01,2013-02-10 02:35:00,
2013-02-09 21:36:00,23.2,9.0,29.44,SSE,158,2.5,6.0,54,0.00,,,32.47,VWS V14.01,2013-02-10 02:36:00,
2013-02-09 21:37:00,23.2,9.0,29.44,SSE,158,2.9,3.8,54,0.00,,,32.47,VWS V14.01,2013-02-10 02:37:00,
2013-02-09 21:38:00,23.2,9.0,29.44,SSW,202,2.5,4.3,54,0.00,,,32.47,VWS V14.01,2013-02-10 02:38:00,
2013-02-09 21:39:00,23.2,9.0,29.44,South,180,3.4,3.4,54,0.00,,,32.47,VWS V14.01,2013-02-10 02:39:00,
2013-02-09 21:40:00,23.2,9.0,29.44,South,180,3.4,3.4,54,0.00,,,32.47,VWS V14.01,2013-02-10 02:40:00,
2013-02-09 21:41:00,23.2,9.0,29.44,South,180,3.8,5.8,54,0.00,,,32.47,VWS V14.01,2013-02-10 02:41:00,
2013-02-09 21:42:00,23.2,9.0,29.44,SSW,202,3.6,3.8,54,0.00,,,32.47,VWS V14.01,2013-02-10 02:42:00,
2013-02-09 21:43:00,23.2,9.0,29.44,SSE,158,4.0,4.0,54,0.00,,,32.47,VWS V14.01,2013-02-10 02:43:00,
2013-02-09 21:44:00,23.2,9.0,29.44,SSW,202,2.5,4.0,54,0.00,,,32.47,VWS V14.01,2013-02-10 02:44:00,
2013-02-09 21:45:00,23.2,9.0,29.44,SSE,158,1.3,2.9,54,0.00,,,32.47,VWS V14.01,2013-02-10 02:45:00,
2013-02-09 21:46:00,23.2,9.0,29.44,SW,225,3.1,3.1,54,0.00,,,32.47,VWS V14.01,2013-02-10 02:46:00,
2013-02-09 21:47:00,23.2,9.0,29.44,SSE,158,4.9,4.9,54,0.00,,,32.47,VWS V14.01,2013-02-10 02:47:00,
2013-02-09 21:48:00,23.2,9.4,29.44,ESE,112,4.5,5.8,55,0.00,,,32.47,VWS V14.01,2013-02-10 02:48:00,
2013-02-09 21:49:00,23.2,9.4,29.44,ESE,112,6.0,6.0,55,0.00,,,32.47,VWS V14.01,2013-02-10 02:49:00,
2013-02-09 21:50:00,23.2,9.4,29.44,ESE,112,2.7,2.9,55,0.00,,,32.47,VWS V14.01,2013-02-10 02:50:00,
2013-02-09 21:51:00,23.2,9.4,29.44,SSW,202,5.6,8.5,55,0.00,,,32.47,VWS V14.01,2013-02-10 02:51:00,
2013-02-09 21:52:00,23.2,9.4,29.44,South,180,3.8,5.8,55,0.00,,,32.47,VWS V14.01,2013-02-10 02:52:00,
2013-02-09 21:53:00,23.2,9.4,29.44,SSW,202,6.0,6.0,55,0.00,,,32.47,VWS V14.01,2013-02-10 02:53:00,
2013-02-09 21:54:00,23.2,9.4,29.44,SSW,202,2.2,7.6,55,0.00,,,32.47,VWS V14.01,2013-02-10 02:54:00,
2013-02-09 21:55:00,23.2,9.4,29.44,SW,225,1.3,2.2,55,0.00,,,32.47,VWS V14.01,2013-02-10 02:55:00,
2013-02-09 21:56:00,23.2,9.4,29.44,SSE,158,7.4,8.1,55,0.00,,,32.47,VWS V14.01,2013-02-10 02:56:00,
2013-02-09 21:57:00,23.2,9.4,29.44,ESE,112,1.1,7.4,55,0.00,,,32.47,VWS V14.01,2013-02-10 02:57:00,
2013-02-09 21:58:00,23.2,9.4,29.44,SSW,202,3.4,8.5,55,0.00,,,32.47,VWS V14.01,2013-02-10 02:58:00,
2013-02-09 21:59:00,23.2,9.4,29.44,SSW,202,3.6,4.0,55,0.00,,,32.47,VWS V14.01,2013-02-10 02:59:00,
2013-02-09 22:00:00,23.2,9.4,29.44,SSE,158,12.8,12.8,55,0.00,,,32.47,VWS V14.01,2013-02-10 03:00:00,
2013-02-09 22:01:00,23.2,9.4,29.44,South,180,4.7,4.7,55,0.00,,,32.47,VWS V14.01,2013-02-10 03:01:00,
2013-02-09 22:02:00,23.2,9.4,29.44,ESE,112,4.9,5.8,55,0.00,,,32.47,VWS V14.01,2013-02-10 03:02:00,
2013-02-09 22:03:00,23.2,9.4,29.44,SSE,158,3.1,4.9,55,0.00,,,32.47,VWS V14.01,2013-02-10 03:03:00,
2013-02-09 22:04:00,23.2,9.4,29.44,SE,135,5.4,5.4,55,0.00,,,32.47,VWS V14.01,2013-02-10 03:04:00,
2013-02-09 22:05:00,23.2,9.8,29.44,SSE,158,4.0,4.9,56,0.00,,,32.47,VWS V14.01,2013-02-10 03:05:00,
2013-02-09 22:06:00,23.2,9.8,29.44,SSW,202,2.0,4.9,56,0.00,,,32.47,VWS V14.01,2013-02-10 03:06:00,
2013-02-09 22:07:00,23.2,9.8,29.44,SSE,158,3.8,4.0,56,0.00,,,32.47,VWS V14.01,2013-02-10 03:07:00,
2013-02-09 22:08:00,23.2,9.8,29.44,SSE,158,3.8,4.9,56,0.00,,,32.47,VWS V14.01,2013-02-10 03:08:00,
2013-02-09 22:09:00,23.2,9.8,29.44,SSE,158,4.9,4.9,56,0.00,,,32.47,VWS V14.01,2013-02-10 03:09:00,
2013-02-09 22:10:00,23.2,9.8,29.44,SSE,158,3.4,4.7,56,0.00,,,32.47,VWS V14.01,2013-02-10 03:10:00,
2013-02-09 22:11:00,23.2,9.8,29.44,SSW,202,3.8,4.7,56,0.00,,,32.47,VWS V14.01,2013-02-10 03:11:00,
2013-02-09 22:12:00,23.2,9.8,29.44,SSE,158,5.8,5.8,56,0.00,,,32.47,VWS V14.01,2013-02-10 03:12:00,
2013-02-09 22:13:00,23.2,9.8,29.44,SE,135,3.8,5.8,56,0.00,,,32.47,VWS V14.01,2013-02-10 03:13:00,
2013-02-09 22:14:00,23.2,9.8,29.44,WNW,292,3.4,6.3,56,0.00,,,32.47,VWS V14.01,2013-02-10 03:14:00,
2013-02-09 22:15:00,23.2,9.8,29.44,ESE,112,3.6,6.5,56,0.00,,,32.47,VWS V14.01,2013-02-10 03:15:00,
2013-02-09 22:16:00,23.2,9.8,29.44,South,180,5.8,6.5,56,0.00,,,32.47,VWS V14.01,2013-02-10 03:16:00,
2013-02-09 22:17:00,23.2,9.8,29.44,South,180,5.8,5.8,56,0.00,,,32.47,VWS V14.01,2013-02-10 03:17:00,
2013-02-09 22:18:00,23.2,9.8,29.44,NE,45,2.0,6.3,56,0.00,,,32.47,VWS V14.01,2013-02-10 03:18:00,
2013-02-09 22:19:00,23.2,9.8,29.44,SSE,158,4.9,8.7,56,0.00,,,32.47,VWS V14.01,2013-02-10 03:19:00,
2013-02-09 22:20:00,23.2,9.8,29.44,SSW,202,9.6,9.6,56,0.00,,,32.47,VWS V14.01,2013-02-10 03:20:00,
2013-02-09 22:21:00,23.2,9.8,29.44,SSE,158,8.5,9.6,56,0.00,,,32.47,VWS V14.01,2013-02-10 03:21:00,
2013-02-09 22:22:00,23.2,9.8,29.44,SE,135,4.3,8.5,56,0.00,,,32.47,VWS V14.01,2013-02-10 03:22:00,
2013-02-09 22:23:00,23.2,9.8,29.44,NNW,338,5.6,6.0,56,0.00,,,32.47,VWS V14.01,2013-02-10 03:23:00,
2013-02-09 22:24:00,23.2,9.8,29.44,ENE,68,4.9,5.6,56,0.00,,,32.47,VWS V14.01,2013-02-10 03:24:00,
2013-02-09 22:25:00,23.2,9.8,29.44,SSW,202,4.3,4.3,56,0.00,,,32.47,VWS V14.01,2013-02-10 03:25:00,
2013-02-09 22:26:00,23.2,9.8,29.44,SSE,158,4.9,4.9,56,0.00,,,32.47,VWS V14.01,2013-02-10 03:26:00,
2013-02-09 22:27:00,23.2,9.8,29.44,South,180,4.7,8.7,56,0.00,,,32.47,VWS V14.01,2013-02-10 03:27:00,
2013-02-09 22:28:00,23.2,9.8,29.44,SW,225,2.2,4.7,56,0.00,,,32.47,VWS V14.01,2013-02-10 03:28:00,
2013-02-09 22:30:00,23.2,10.2,29.44,SE,135,5.4,8.5,57,0.00,,,32.47,VWS V14.01,2013-02-10 03:30:00,
2013-02-09 22:31:00,23.2,10.2,29.44,SE,135,5.6,8.5,57,0.00,,,32.47,VWS V14.01,2013-02-10 03:31:00,
2013-02-09 22:32:00,23.2,10.2,29.44,ESE,112,3.1,5.6,57,0.00,,,32.47,VWS V14.01,2013-02-10 03:32:00,
2013-02-09 22:33:00,23.2,10.2,29.44,SSW,202,3.1,4.9,57,0.00,,,32.47,VWS V14.01,2013-02-10 03:33:00,
2013-02-09 22:34:00,23.2,10.2,29.44,SSW,202,5.6,7.6,57,0.00,,,32.47,VWS V14.01,2013-02-10 03:34:00,
2013-02-09 22:35:00,23.4,10.4,29.44,SSW,202,4.9,5.8,57,0.00,,,32.47,VWS V14.01,2013-02-10 03:35:00,
2013-02-09 22:36:00,23.4,10.4,29.44,SSW,202,4.7,4.9,57,0.00,,,32.47,VWS V14.01,2013-02-10 03:36:00,
2013-02-09 22:37:00,23.4,10.4,29.44,East,90,4.3,8.1,57,0.00,,,32.47,VWS V14.01,2013-02-10 03:37:00,
2013-02-09 22:38:00,23.4,10.4,29.44,ENE,68,3.1,4.3,57,0.00,,,32.47,VWS V14.01,2013-02-10 03:38:00,
2013-02-09 22:39:00,23.4,10.4,29.44,South,180,2.9,3.1,57,0.00,,,32.47,VWS V14.01,2013-02-10 03:39:00,
2013-02-09 22:40:00,23.4,10.4,29.44,ESE,112,5.4,7.8,57,0.00,,,32.47,VWS V14.01,2013-02-10 03:40:00,
2013-02-09 22:41:00,23.4,10.4,29.44,South,180,4.7,7.8,57,0.00,,,32.47,VWS V14.01,2013-02-10 03:41:00,
2013-02-09 22:42:00,23.4,10.4,29.44,South,180,4.7,4.7,57,0.00,,,32.47,VWS V14.01,2013-02-10 03:42:00,
2013-02-09 22:43:00,23.4,10.4,29.44,SE,135,4.9,4.9,57,0.00,,,32.47,VWS V14.01,2013-02-10 03:43:00,
2013-02-09 22:44:00,23.4,10.4,29.44,South,180,6.0,6.7,57,0.00,,,32.47,VWS V14.01,2013-02-10 03:44:00,
2013-02-09 22:45:00,23.4,10.4,29.44,SSW,202,3.4,4.0,57,0.00,,,32.47,VWS V14.01,2013-02-10 03:45:00,
2013-02-09 22:46:00,23.4,10.4,29.44,ESE,112,4.9,4.9,57,0.00,,,32.47,VWS V14.01,2013-02-10 03:46:00,
2013-02-09 22:47:00,23.4,10.4,29.44,SSW,202,5.6,5.6,57,0.00,,,32.47,VWS V14.01,2013-02-10 03:47:00,
2013-02-09 22:48:00,23.4,10.4,29.44,SSE,158,4.7,6.5,57,0.00,,,32.47,VWS V14.01,2013-02-10 03:48:00,
2013-02-09 22:49:00,23.4,10.4,29.44,SSE,158,7.4,7.4,57,0.00,,,32.47,VWS V14.01,2013-02-10 03:49:00,
2013-02-09 22:50:00,23.4,10.4,29.44,SSE,158,0.9,3.8,57,0.00,,,32.47,VWS V14.01,2013-02-10 03:50:00,
2013-02-09 22:51:00,23.4,10.4,29.44,SSE,158,0.9,3.8,57,0.00,,,32.47,VWS V14.01,2013-02-10 03:51:00,
2013-02-09 22:52:00,23.4,10.4,29.44,South,180,2.7,4.9,57,0.00,,,32.47,VWS V14.01,2013-02-10 03:52:00,
2013-02-09 22:53:00,23.4,10.4,29.44,South,180,2.9,6.0,57,0.00,,,32.47,VWS V14.01,2013-02-10 03:53:00,
2013-02-09 22:54:00,23.4,10.4,29.44,South,180,5.6,5.6,57,0.00,,,32.47,VWS V14.01,2013-02-10 03:54:00,
2013-02-09 22:55:00,23.5,10.6,29.44,ESE,112,7.8,8.7,57,0.00,,,32.47,VWS V14.01,2013-02-10 03:55:00,
2013-02-09 22:56:00,23.5,10.6,29.44,SSE,158,8.5,8.5,57,0.00,,,32.47,VWS V14.01,2013-02-10 03:56:00,
2013-02-09 22:57:00,23.5,10.6,29.44,SSW,202,4.7,8.5,57,0.00,,,32.47,VWS V14.01,2013-02-10 03:57:00,
2013-02-09 22:58:00,23.5,10.6,29.44,East,90,5.8,5.8,57,0.00,,,32.47,VWS V14.01,2013-02-10 03:58:00,
2013-02-09 22:59:00,23.5,10.6,29.44,SE,135,2.9,5.8,57,0.00,,,32.47,VWS V14.01,2013-02-10 03:59:00,
2013-02-09 23:00:00,23.5,10.6,29.44,South,180,5.6,11.0,57,0.00,,,32.47,VWS V14.01,2013-02-10 04:00:00,
2013-02-09 23:01:00,23.5,10.6,29.44,SSE,158,3.6,7.8,57,0.00,,,32.47,VWS V14.01,2013-02-10 04:01:00,
2013-02-09 23:02:00,23.5,10.6,29.44,SSE,158,4.9,6.3,57,0.00,,,32.47,VWS V14.01,2013-02-10 04:02:00,
2013-02-09 23:03:00,23.5,10.6,29.44,South,180,1.6,5.8,57,0.00,,,32.47,VWS V14.01,2013-02-10 04:03:00,
2013-02-09 23:04:00,23.5,10.6,29.44,South,180,4.0,4.0,57,0.00,,,32.47,VWS V14.01,2013-02-10 04:04:00,
2013-02-09 23:05:00,23.5,10.6,29.44,SSE,158,6.3,6.3,57,0.00,,,32.47,VWS V14.01,2013-02-10 04:05:00,
2013-02-09 23:06:00,23.5,10.6,29.44,SSE,158,7.6,7.6,57,0.00,,,32.47,VWS V14.01,2013-02-10 04:06:00,
2013-02-09 23:07:00,23.5,10.6,29.44,SSE,158,3.1,7.6,57,0.00,,,32.47,VWS V14.01,2013-02-10 04:07:00,
2013-02-09 23:08:00,23.5,10.6,29.44,SW,225,0.0,3.1,57,0.00,,,32.47,VWS V14.01,2013-02-10 04:08:00,
2013-02-09 23:09:00,23.5,10.6,29.44,South,180,6.0,6.0,57,0.00,,,32.47,VWS V14.01,2013-02-10 04:09:00,
2013-02-09 23:10:00,23.5,10.6,29.44,SSW,202,1.3,6.0,57,0.00,,,32.47,VWS V14.01,2013-02-10 04:10:00,
2013-02-09 23:11:00,23.5,10.6,29.44,SSW,202,1.3,6.0,57,0.00,,,32.47,VWS V14.01,2013-02-10 04:11:00,
2013-02-09 23:12:00,23.5,10.6,29.44,SSE,158,6.5,7.6,57,0.00,,,32.47,VWS V14.01,2013-02-10 04:12:00,
2013-02-09 23:13:00,23.5,10.6,29.44,ESE,112,6.0,6.5,57,0.00,,,32.47,VWS V14.01,2013-02-10 04:13:00,
2013-02-09 23:14:00,23.5,10.6,29.44,WSW,248,3.8,6.0,57,0.00,,,32.47,VWS V14.01,2013-02-10 04:14:00,
2013-02-09 23:15:00,23.5,10.6,29.44,South,180,5.4,5.4,57,0.00,,,32.47,VWS V14.01,2013-02-10 04:15:00,
2013-02-09 23:16:00,23.5,10.6,29.44,South,180,5.4,5.4,57,0.00,,,32.47,VWS V14.01,2013-02-10 04:16:00,
2013-02-09 23:17:00,23.5,10.6,29.44,South,180,2.9,5.8,57,0.00,,,32.47,VWS V14.01,2013-02-10 04:17:00,
2013-02-09 23:18:00,23.5,10.6,29.44,SE,135,3.1,3.1,57,0.00,,,32.47,VWS V14.01,2013-02-10 04:18:00,
2013-02-09 23:19:00,23.5,10.6,29.44,SSW,202,4.9,6.3,57,0.00,,,32.47,VWS V14.01,2013-02-10 04:19:00,
2013-02-09 23:21:00,23.5,10.6,29.44,SSW,202,4.9,6.3,57,0.00,,,32.47,VWS V14.01,2013-02-10 04:21:00,
2013-02-09 23:22:00,23.5,10.6,29.44,SSW,202,2.9,2.9,57,0.00,,,32.47,VWS V14.01,2013-02-10 04:22:00,
2013-02-09 23:23:00,23.5,10.6,29.44,SSE,158,10.3,10.3,57,0.00,,,32.47,VWS V14.01,2013-02-10 04:23:00,
2013-02-09 23:24:00,23.5,10.6,29.44,SSW,202,5.6,10.3,57,0.00,,,32.47,VWS V14.01,2013-02-10 04:24:00,
2013-02-09 23:25:00,23.5,10.6,29.44,East,90,2.5,5.6,57,0.00,,,32.47,VWS V14.01,2013-02-10 04:25:00,
2013-02-09 23:26:00,23.5,10.6,29.44,SSW,202,6.0,8.1,57,0.00,,,32.47,VWS V14.01,2013-02-10 04:26:00,
2013-02-09 23:27:00,23.5,10.6,29.44,South,180,6.3,8.1,57,0.00,,,32.47,VWS V14.01,2013-02-10 04:27:00,
2013-02-09 23:28:00,23.5,10.6,29.44,SSE,158,2.7,6.3,57,0.00,,,32.47,VWS V14.01,2013-02-10 04:28:00,
2013-02-09 23:29:00,23.5,10.6,29.44,SSW,202,2.2,8.5,57,0.00,,,32.47,VWS V14.01,2013-02-10 04:29:00,
2013-02-09 23:30:00,23.5,10.6,29.44,WSW,248,1.1,2.2,57,0.00,,,32.47,VWS V14.01,2013-02-10 04:30:00,
2013-02-09 23:31:00,23.5,10.2,29.44,SSW,202,3.1,4.0,56,0.00,,,32.47,VWS V14.01,2013-02-10 04:31:00,
2013-02-09 23:32:00,23.5,10.2,29.44,SSE,158,7.4,7.4,56,0.00,,,32.47,VWS V14.01,2013-02-10 04:32:00,
2013-02-09 23:33:00,23.5,10.2,29.44,SW,225,3.1,7.4,56,0.00,,,32.47,VWS V14.01,2013-02-10 04:33:00,
2013-02-09 23:34:00,23.5,10.2,29.44,South,180,2.7,3.4,56,0.00,,,32.47,VWS V14.01,2013-02-10 04:34:00,
2013-02-09 23:35:00,23.5,10.2,29.44,South,180,4.3,4.9,56,0.00,,,32.47,VWS V14.01,2013-02-10 04:35:00,
2013-02-09 23:36:00,23.5,10.2,29.44,SSW,202,2.9,2.9,56,0.00,,,32.47,VWS V14.01,2013-02-10 04:36:00,
2013-02-09 23:37:00,23.5,10.2,29.44,South,180,4.7,10.3,56,0.00,,,32.47,VWS V14.01,2013-02-10 04:37:00,
2013-02-09 23:38:00,23.5,10.2,29.44,SSE,158,4.9,6.0,56,0.00,,,32.47,VWS V14.01,2013-02-10 04:38:00,
2013-02-09 23:39:00,23.5,10.2,29.44,WSW,248,4.9,6.3,56,0.00,,,32.47,VWS V14.01,2013-02-10 04:39:00,
2013-02-09 23:40:00,23.5,10.2,29.44,East,90,3.8,4.9,56,0.00,,,32.47,VWS V14.01,2013-02-10 04:40:00,
2013-02-09 23:41:00,23.5,10.2,29.44,SE,135,6.0,6.0,56,0.00,,,32.47,VWS V14.01,2013-02-10 04:41:00,
2013-02-09 23:42:00,23.5,10.2,29.44,SSW,202,9.2,9.2,56,0.00,,,32.47,VWS V14.01,2013-02-10 04:42:00,
2013-02-09 23:43:00,23.5,10.2,29.44,SSW,202,1.1,9.2,56,0.00,,,32.47,VWS V14.01,2013-02-10 04:43:00,
2013-02-09 23:44:00,23.5,10.2,29.44,SSE,158,2.0,3.1,56,0.00,,,32.47,VWS V14.01,2013-02-10 04:44:00,
2013-02-09 23:45:00,23.5,10.2,29.44,SSW,202,3.6,4.0,56,0.00,,,32.47,VWS V14.01,2013-02-10 04:45:00,
2013-02-09 23:46:00,23.5,10.2,29.44,East,90,5.6,5.6,56,0.00,,,32.47,VWS V14.01,2013-02-10 04:46:00,
2013-02-09 23:47:00,23.5,10.2,29.44,South,180,7.8,7.8,56,0.00,,,32.47,VWS V14.01,2013-02-10 04:47:00,
2013-02-09 23:48:00,23.5,10.2,29.44,SE,135,2.5,7.8,56,0.00,,,32.47,VWS V14.01,2013-02-10 04:48:00,
2013-02-09 23:49:00,23.5,10.2,29.44,SSE,158,5.4,5.4,56,0.00,,,32.47,VWS V14.01,2013-02-10 04:49:00,
2013-02-09 23:50:00,23.5,10.2,29.44,SSW,202,6.9,6.9,56,0.00,,,32.47,VWS V14.01,2013-02-10 04:50:00,
2013-02-09 23:51:00,23.5,10.2,29.47,ESE,112,2.0,3.1,56,0.00,,,32.47,VWS V14.01,2013-02-10 04:51:00,
2013-02-09 23:52:00,23.5,10.2,29.47,SSW,202,3.8,3.8,56,0.00,,,32.47,VWS V14.01,2013-02-10 04:52:00,
2013-02-09 23:53:00,23.5,10.2,29.47,South,180,2.5,4.7,56,0.00,,,32.47,VWS V14.01,2013-02-10 04:53:00,
2013-02-09 23:54:00,23.5,10.2,29.47,SSE,158,3.6,3.6,56,0.00,,,32.47,VWS V14.01,2013-02-10 04:54:00,
2013-02-09 23:55:00,23.5,10.2,29.47,SSW,202,3.8,8.1,56,0.00,,,32.47,VWS V14.01,2013-02-10 04:55:00,
2013-02-09 23:56:00,23.5,10.2,29.47,South,180,3.6,6.3,56,0.00,,,32.47,VWS V14.01,2013-02-10 04:56:00,
2013-02-09 23:57:00,23.5,10.2,29.47,SSE,158,3.6,6.3,56,0.00,,,32.47,VWS V14.01,2013-02-10 04:57:00,
2013-02-09 23:58:00,23.5,10.2,29.47,SSW,202,6.0,9.6,56,0.00,,,32.47,VWS V14.01,2013-02-10 04:58:00,
2013-02-09 23:59:00,23.5,10.2,29.47,SSW,202,1.6,6.0,56,0.00,,,32.47,VWS V14.01,2013-02-10 04:59:00,